GFSWCAN_2pvu_pres_000.txt.gz
Presure
274 281 315 313 332 301 278 267 315 595 442 357 339 314 308 296 301 297 304 253 295 296 282 279 273 273 265 255 232 187 228 225 238 245 210 239 243 180 238 240 176 220 199 180 237 217 186 165 225 221 212 212 235 224
282 307 307 309 332 304 281 267 321 367 525 408 351 335 309 309 302 304 302 294 300 286 279 276 274 253 251 234 229 208 246 223 211 233 250 236 183 212 195 209 228 183 203 232 221 177 222 186 222 202 197 231 212 232
281 287 304 305 333 306 279 267 318 350 468 599 369 330 324 309 296 294 317 311 312 288 280 269 263 252 240 210 209 237 225 214 219 213 209 189 190 249 236 220 185 234 251 190 212 195 192 217 212 211 215 224 169 166
286 271 304 284 312 304 282 265 307 337 667 668 396 360 326 307 309 304 269 303 307 285 266 261 254 249 237 184 229 234 223 212 224 211 212 168 214 217 203 207 172 184 161 221 223 225 237 232 232 239 252 238 236 266
257 295 294 290 288 315 285 262 294 327 440 504 432 363 309 325 307 260 297 301 290 279 263 259 250 237 227 213 236 227 222 211 219 214 214 208 208 207 207 204 191 214 226 216 228 241 233 252 259 242 232 236 243 277
267 285 301 285 286 312 295 262 287 327 356 589 681 353 336 325 311 282 301 314 289 153 134 253 238 243 231 224 237 229 223 213 215 216 206 197 208 206 218 206 195 200 211 241 211 229 235 238 242 223 302 327 295 282
272 301 288 282 289 271 306 265 281 330 357 658 647 358 349 329 318 289 306 304 281 262 251 184 230 233 235 211 239 234 225 216 211 212 217 209 210 221 221 224 213 317 231 194 200 215 196 197 200 260 224 309 281 270
269 290 279 278 289 270 309 266 270 333 373 605 662 678 338 326 318 281 296 320 279 259 250 168 237 236 235 216 237 244 228 223 212 210 212 209 210 214 217 217 216 272 294 221 289 282 256 246 242 223 235 229 194 207
267 296 280 282 289 281 314 267 267 332 613 631 647 676 346 330 319 287 296 308 280 256 245 237 141 241 225 238 209 243 233 227 221 214 208 219 219 211 203 208 211 210 216 220 221 217 212 214 210 200 208 210 212 212
276 297 281 285 271 282 312 266 271 329 598 617 616 541 370 319 319 296 288 294 275 259 240 234 232 230 237 214 238 234 235 231 225 219 215 212 207 209 206 218 212 202 202 202 205 206 206 202 203 207 208 209 209 207
287 284 264 276 268 304 318 264 269 318 597 604 613 484 362 318 315 308 307 315 275 257 242 237 230 231 213 222 200 238 233 231 235 230 229 233 227 213 209 204 202 215 217 216 218 203 205 209 207 204 201 197 196 195
279 279 270 277 262 296 325 263 257 305 340 606 619 428 357 332 312 313 320 317 274 191 246 228 230 232 225 197 217 192 212 159 228 237 236 236 223 225 230 231 216 218 210 204 204 207 207 202 202 211 211 214 220 223
271 254 266 262 270 288 322 263 249 286 320 629 483 380 347 325 321 334 322 314 268 258 251 238 232 232 223 227 202 198 168 238 161 223 233 237 238 232 231 230 225 227 225 220 220 220 220 221 223 224 224 225 222 222
270 138 291 263 263 287 317 267 250 272 303 369 450 369 351 340 315 324 316 307 268 258 257 243 234 230 222 226 207 215 201 223 160 166 235 184 233 230 230 233 234 232 231 226 226 226 226 224 222 222 223 225 229 229
254 263 281 265 255 287 311 273 250 247 277 308 430 359 365 346 341 313 326 302 277 259 173 202 217 233 231 220 217 206 206 203 213 158 177 241 235 231 227 227 225 224 223 222 225 231 250 253 255 244 241 258 260 254
234 257 259 260 245 280 306 277 246 251 268 281 306 376 350 341 348 342 319 312 282 280 268 259 244 237 232 225 225 207 200 202 206 215 159 216 212 222 232 245 216 191 256 219 246 238 233 236 238 240 245 247 259 279
269 249 280 291 261 271 302 280 248 242 254 268 280 308 372 344 339 344 324 307 297 270 283 271 257 241 229 227 221 210 211 212 205 185 195 217 222 195 198 196 191 192 190 200 208 202 201 210 218 220 221 229 233 239
282 252 286 267 251 265 253 284 264 244 247 249 267 277 312 392 331 339 337 307 302 291 286 285 272 249 184 223 227 223 145 132 107 113 100 160 144 151 179 200 205 206 202 202 203 201 193 190 207 207 191 219 220 185
275 264 284 253 260 262 284 295 278 243 250 244 255 269 272 318 360 356 332 333 316 265 291 289 211 276 248 234 232 233 230 224 223 222 213 196 191 202 150 148 146 149 167 159 207 180 176 210 172 145 144 142 141 137
290 261 290 265 259 263 284 293 283 242 248 244 247 258 268 276 327 298 383 342 331 338 313 270 287 283 163 212 241 240 234 230 230 226 221 221 211 199 200 213 211 202 187 144 144 145 148 151 193 194 194 197 211 211
283 264 286 267 254 266 283 299 281 249 246 255 241 253 261 270 284 315 316 390 355 339 93 331 272 271 285 276 259 246 242 235 227 223 223 222 221 218 220 205 204 209 210 211 191 192 198 200 203 206 211 210 211 214
268 281 276 290 267 265 293 307 284 278 257 262 250 251 258 269 283 297 330 465 388 348 336 331 336 287 266 273 279 271 252 244 240 231 226 225 224 222 221 219 220 214 206 205 208 207 207 207 211 212 211 210 212 210
285 289 282 283 268 276 298 299 283 254 246 259 251 255 261 272 285 300 325 584 455 399 339 330 325 321 305 284 275 273 274 263 244 241 233 229 226 225 221 219 220 222 222 215 211 208 209 210 210 214 202 202 204 206
290 291 282 279 272 282 301 292 281 253 242 257 249 267 268 278 296 310 509 480 571 425 397 336 320 311 319 316 294 286 286 276 267 254 238 236 227 231 229 228 224 222 223 222 221 220 221 221 205 203 199 213 213 213
290 279 276 297 303 262 302 281 276 261 256 253 262 271 275 289 303 331 494 472 459 544 407 365 336 324 313 316 311 309 291 278 279 271 258 248 233 234 233 225 232 229 226 227 232 230 221 221 147 226 227 232 233 233
279 297 310 306 280 323 293 276 274 263 254 256 267 273 279 302 313 501 476 460 448 495 517 384 342 329 314 311 310 304 291 293 282 272 271 264 253 248 245 233 233 233 230 233 237 236 235 231 230 233 234 235 240 237
294 304 300 286 331 306 271 271 272 257 255 263 269 274 290 307 503 450 470 455 441 417 517 459 362 339 325 312 301 304 298 296 291 287 275 267 266 264 261 254 248 248 247 244 244 245 244 243 241 238 239 244 248 252
308 298 281 329 311 271 272 277 266 248 258 269 271 281 301 490 429 455 456 451 435 413 422 489 445 348 333 328 321 310 301 279 298 294 287 280 271 264 262 262 261 257 253 249 247 246 248 246 247 249 252 258 260 259
316 289 318 298 280 277 276 267 248 258 265 266 272 296 425 459 459 454 388 416 432 412 390 472 465 432 340 325 323 316 306 289 289 293 284 279 273 271 267 265 264 267 267 264 260 260 258 258 257 258 257 256 258 261
341 317 298 269 275 271 263 249 256 260 262 268 288 303 416 409 399 411 427 422 419 407 385 458 451 460 362 335 317 313 317 310 300 291 283 281 276 276 271 264 260 260 260 264 266 268 265 268 269 270 270 269 268 266
305 287 271 273 268 260 246 255 259 260 265 275 291 414 359 429 389 415 403 400 401 388 376 439 434 452 386 343 321 304 313 313 298 290 294 288 274 268 271 273 272 270 268 265 264 266 269 269 267 265 265 267 268 266
281 271 270 266 252 242 256 255 257 262 272 282 344 396 352 397 374 400 378 374 374 370 365 420 422 420 413 350 322 307 309 309 303 301 294 302 289 278 272 269 267 269 267 263 262 262 261 262 263 263 259 261 271 274
270 267 262 248 245 255 255 256 264 271 279 287 380 383 341 386 369 389 363 356 365 360 377 398 401 388 366 372 349 329 310 298 300 300 299 289 289 293 290 281 269 270 271 269 265 261 256 260 262 264 265 267 268 272

GFSWCAN_2pvu_pres_003.txt.gz
Presure
162 269 246 254 268 271 316 302 310 289 279 304 403 344 327 323 326 304 303 296 289 291 291 286 292 306 299 306 284 241 239 214 236 226 258 217 254 236 184 198 231 196 152 195 177 235 204 177 228 223 216 188 228 229
279 181 254 256 291 286 318 307 277 300 275 272 410 389 342 319 311 301 301 299 291 301 303 296 285 305 296 294 276 258 254 179 269 273 214 193 243 239 212 211 200 230 185 218 212 219 220 166 220 220 213 210 216 219
271 197 258 255 298 298 293 285 288 305 279 270 343 404 338 332 320 305 271 298 269 286 303 292 281 289 176 276 266 255 245 266 231 233 242 245 249 256 204 240 215 207 233 216 233 211 201 218 233 216 220 224 231 255
234 167 257 281 278 298 295 304 301 324 280 274 339 444 382 321 323 305 299 292 294 281 290 275 282 281 276 264 257 266 233 227 223 234 250 256 225 197 183 181 220 208 215 232 198 224 197 229 235 234 212 275 250 211
282 241 257 263 280 299 303 297 273 341 281 279 341 583 391 338 330 304 309 299 284 276 281 281 277 272 265 266 249 184 221 263 211 241 246 242 237 204 270 272 269 213 215 240 180 178 242 218 219 229 243 228 242 246
272 97 257 163 280 314 306 284 270 347 283 281 348 572 496 376 325 322 307 290 314 281 279 271 271 267 258 244 235 232 227 232 209 217 207 208 206 218 218 203 197 214 190 230 236 231 232 240 233 219 253 270 279 248
216 265 257 255 293 299 271 283 268 340 284 280 347 589 614 363 348 329 311 292 310 284 278 266 260 259 127 234 231 208 242 224 211 215 211 209 211 204 204 200 231 213 214 268 254 251 248 248 221 266 260 293 218 252
287 193 294 278 289 293 304 286 283 344 283 291 360 652 673 418 349 332 302 304 291 297 273 268 262 254 209 232 230 203 240 229 219 209 214 206 204 198 210 219 223 219 253 229 327 335 285 302 240 229 237 212 221 253
199 279 275 276 281 275 304 293 287 338 283 293 499 608 680 416 370 332 310 304 292 302 275 266 257 250 238 212 224 191 239 225 225 211 209 216 211 208 214 216 220 235 284 277 280 283 264 255 247 246 233 230 221 215
125 283 297 271 290 303 283 291 286 335 283 290 604 663 656 406 373 338 278 279 302 291 273 263 255 248 233 152 192 202 239 231 222 220 210 209 211 212 217 211 212 217 215 213 244 236 211 217 206 210 214 209 216 220
184 270 286 271 276 284 289 286 276 319 280 289 505 623 646 396 368 337 290 322 309 285 277 262 255 242 228 233 169 193 186 237 234 223 224 211 205 208 219 220 210 211 205 203 202 204 202 201 207 206 199 198 193 197
226 282 280 269 278 284 269 281 262 311 275 284 400 611 588 382 346 338 287 310 315 287 203 266 254 244 232 218 185 165 228 181 235 237 226 222 217 214 206 203 202 205 208 206 216 218 218 224 218 215 215 215 213 220
283 287 284 266 279 291 256 277 256 309 268 263 290 552 426 361 341 334 326 304 307 287 279 271 255 244 233 229 219 189 174 232 229 152 194 229 227 229 229 244 227 233 214 219 219 219 219 215 213 216 224 225 225 225
296 278 276 269 276 277 290 272 268 296 264 257 284 315 386 387 363 260 341 300 293 288 282 270 256 232 237 235 223 217 194 171 222 224 196 227 231 228 227 226 225 223 229 224 223 225 224 223 223 225 223 223 222 222
302 273 263 278 276 278 264 270 258 286 295 256 266 284 400 357 334 379 343 317 284 286 293 283 268 252 241 238 230 199 197 189 191 219 220 160 219 221 227 230 229 226 226 227 226 226 233 227 225 224 223 224 233 241
264 274 264 273 276 280 295 268 261 263 302 255 246 269 281 408 336 331 332 325 303 309 297 259 282 265 219 148 150 225 207 195 196 193 200 226 163 161 223 227 229 226 226 224 224 222 217 223 226 233 258 249 230 207
275 270 270 269 262 286 304 265 270 272 291 284 245 246 271 276 355 359 332 309 239 301 296 298 290 271 253 236 234 227 216 214 195 198 200 199 238 231 195 232 223 221 222 230 231 185 196 237 245 234 206 209 210 208
275 266 274 277 256 298 300 277 266 270 281 301 248 243 239 267 270 282 364 344 330 310 299 304 300 286 134 251 204 231 85 109 139 101 92 187 193 203 214 207 156 231 197 196 193 191 192 190 199 207 199 189 191 207
273 269 256 268 258 296 284 284 263 266 287 287 303 243 239 237 256 263 274 304 372 340 341 320 311 303 283 267 254 240 235 232 222 220 201 198 169 193 192 170 190 156 155 181 196 198 206 206 208 208 206 198 199 185
270 260 260 274 270 272 281 287 274 272 283 278 299 281 245 251 239 249 257 262 275 290 371 363 262 312 246 292 277 260 250 239 238 233 223 219 204 202 189 189 199 204 213 166 146 145 139 141 144 153 144 148 146 151
265 254 256 263 291 291 274 280 280 275 285 279 295 301 277 251 247 246 251 260 264 266 284 280 402 332 312 273 292 285 277 263 243 240 238 230 219 215 215 203 203 198 197 196 198 202 211 209 207 201 202 202 203 203
281 255 279 252 284 282 283 294 292 276 279 301 289 302 276 251 253 247 233 255 264 267 272 294 307 284 372 309 285 280 280 281 281 256 240 232 229 225 223 221 220 216 200 198 197 198 198 197 200 202 202 200 192 190
272 264 255 271 292 294 277 295 289 285 287 309 289 309 279 250 241 251 238 253 267 267 273 292 307 314 349 370 314 299 287 288 284 280 267 247 232 230 226 225 223 222 219 215 213 209 208 210 208 205 207 210 213 221
290 303 308 303 301 269 260 297 281 296 316 310 294 325 282 261 246 241 248 257 268 276 292 308 510 507 466 398 356 314 298 286 273 286 284 272 259 245 235 216 230 225 224 224 220 218 218 220 220 219 219 220 221 160
203 302 260 297 282 286 293 285 290 303 320 287 313 316 283 267 257 251 251 274 280 296 522 516 472 489 490 435 365 346 316 308 288 274 264 273 275 265 256 245 237 227 229 226 222 222 221 221 223 223 223 220 220 224
316 317 297 285 284 282 268 296 308 315 286 290 315 265 275 276 257 254 245 279 299 516 508 500 487 488 441 468 399 345 330 309 303 301 283 265 264 263 268 265 255 247 238 228 225 228 227 224 224 222 225 226 226 228
322 306 292 285 286 282 291 304 314 287 286 315 285 279 279 255 247 273 279 298 418 493 490 491 472 467 446 542 441 351 334 321 308 303 294 292 275 261 260 250 254 254 255 253 246 240 235 235 230 225 226 223 226 231
289 295 287 289 280 281 298 307 305 297 308 280 278 274 255 255 271 273 292 353 376 414 477 473 466 445 444 471 448 402 340 320 314 304 300 291 290 279 273 266 267 263 265 257 251 250 248 245 244 243 239 226 242 245
294 298 286 281 279 288 311 346 318 308 277 274 271 255 256 267 272 284 296 389 478 411 407 451 393 440 438 401 473 399 372 332 314 306 297 294 287 293 289 281 286 267 262 262 262 260 256 253 252 251 252 254 258 258
282 285 285 284 295 315 332 315 300 270 271 270 257 249 256 271 276 291 400 362 457 429 423 426 444 436 418 399 472 408 361 348 329 313 298 291 288 287 289 279 278 285 280 269 265 262 259 259 258 257 259 260 261 259
285 282 297 311 308 328 310 293 274 269 271 256 237 255 268 271 287 296 386 452 429 406 396 400 422 416 404 394 366 436 367 339 336 306 307 313 301 289 286 288 280 275 275 277 275 271 267 265 264 264 265 267 269 270
292 297 306 309 330 306 291 270 266 268 257 235 251 263 269 278 289 388 388 431 417 397 382 377 384 384 380 395 371 460 355 336 348 315 306 306 298 286 277 277 278 268 269 270 274 274 273 273 273 272 272 272 271 270
330 315 333 325 304 283 262 267 267 256 243 250 262 265 271 284 297 396 379 363 398 389 372 376 367 365 434 449 447 422 358 341 332 329 318 315 296 292 288 283 279 280 273 273 267 265 264 268 271 268 269 271 269 269

GFSWCAN_2pvu_pres_006.txt.gz
Presure
234 291 277 255 281 272 248 281 306 303 287 312 292 276 256 348 346 330 307 305 302 302 306 303 312 335 326 233 233 229 221 220 221 222 221 199 217 213 222 195 223 216 199 232 214 214 147 178 224 207 216 216 223 215
265 284 265 265 250 278 287 280 294 317 298 283 296 278 255 358 335 309 315 305 310 282 292 299 307 314 320 246 235 231 226 227 222 222 212 211 221 183 229 195 177 202 222 214 223 213 182 173 223 216 214 222 212 229
269 281 248 273 267 277 254 277 297 278 303 331 308 279 260 417 349 333 325 313 293 292 290 296 296 309 316 286 238 232 231 228 230 236 227 224 225 252 236 249 183 216 187 226 234 215 217 216 155 219 213 220 242 253
284 286 270 270 261 263 151 302 301 297 286 317 319 286 254 484 359 326 330 280 303 284 288 297 290 300 301 306 243 229 230 235 219 217 246 246 198 234 246 234 178 220 210 187 218 223 208 229 221 224 237 209 251 226
276 276 260 276 260 116 159 333 316 270 310 311 318 290 277 538 381 335 324 293 302 277 291 284 289 299 304 302 280 248 230 241 242 241 254 265 231 240 244 244 175 200 213 230 227 203 217 236 236 254 216 225 248 249
271 271 263 273 280 129 270 323 299 307 310 281 307 287 312 524 400 347 310 311 305 278 280 293 289 295 293 283 273 278 263 258 256 256 267 245 245 245 242 187 267 203 206 173 217 211 252 246 252 235 225 253 228 291
269 272 254 261 208 134 285 277 297 288 308 277 300 282 386 531 431 352 328 311 297 285 275 288 197 289 282 161 274 267 262 266 257 215 235 251 256 232 197 249 224 244 263 248 212 226 246 232 261 236 255 248 273 267
259 269 259 259 262 260 295 277 285 307 308 277 295 290 627 636 540 353 316 318 288 276 281 285 273 207 277 270 246 265 191 241 218 210 250 230 229 208 202 209 211 199 210 208 282 251 283 264 283 271 245 244 263 248
272 272 263 160 274 231 279 279 307 279 304 274 290 292 651 639 514 345 325 313 295 285 280 278 275 272 269 271 259 240 231 229 220 213 214 202 205 204 216 200 198 191 219 275 200 256 290 233 190 258 248 244 208 207
278 288 258 252 270 284 275 285 276 318 298 285 284 288 642 671 447 351 319 317 290 308 294 279 278 264 261 265 245 165 215 230 230 211 210 210 209 199 202 199 197 219 256 276 282 284 218 270 268 252 251 224 231 224
290 276 280 267 268 277 304 294 287 313 293 301 279 277 674 598 397 364 319 316 308 291 294 227 276 265 266 253 239 184 183 228 234 219 213 206 208 211 208 211 211 208 213 217 251 253 234 214 211 217 208 212 212 203
283 278 268 275 288 258 270 292 286 269 289 295 277 269 589 423 383 369 332 313 297 282 292 287 281 266 266 249 234 198 190 206 213 226 221 216 210 205 202 206 202 207 211 205 210 205 205 205 203 201 199 200 209 209
282 280 278 279 304 271 283 268 288 266 285 283 284 266 491 381 383 372 347 304 315 276 291 296 279 272 265 252 232 228 195 199 221 236 226 200 218 214 206 201 202 200 199 201 202 200 205 208 204 202 206 205 211 219
277 277 286 265 276 275 272 277 279 271 275 280 302 265 244 371 351 387 376 336 249 202 283 296 269 274 265 253 244 233 204 226 205 152 233 229 157 218 219 214 209 205 205 205 211 220 205 212 219 224 223 216 221 224
278 272 280 268 272 271 283 284 255 276 263 274 296 270 261 256 360 331 332 296 312 279 282 292 296 280 269 256 248 230 229 214 209 205 234 232 226 227 226 225 223 224 224 231 219 219 222 220 221 217 216 217 221 223
276 289 282 270 272 268 283 272 254 286 300 271 283 302 261 251 269 349 327 321 283 279 294 303 295 288 270 207 248 233 227 202 204 210 211 218 228 162 194 183 220 222 222 222 224 223 219 222 221 217 223 225 222 221
299 279 305 268 273 262 284 264 272 277 299 282 268 287 280 258 247 237 369 330 336 295 293 298 297 291 287 265 250 240 236 222 224 197 205 218 215 218 214 218 161 177 219 225 225 224 224 214 222 221 219 232 232 231
319 280 279 268 268 265 286 260 264 273 293 282 271 277 288 269 254 247 236 271 355 334 298 296 294 297 300 189 265 248 237 170 89 131 101 109 194 227 185 220 216 220 174 211 223 228 226 225 221 229 193 235 238 237
298 285 272 272 261 264 284 259 273 273 286 285 285 272 266 288 271 250 252 252 266 271 324 322 337 332 308 304 291 267 253 216 242 228 211 205 207 202 199 197 215 232 228 227 227 191 223 221 243 219 191 190 189 192
293 281 288 265 274 259 284 255 268 243 280 292 291 273 283 255 292 270 253 248 251 247 256 271 294 353 329 320 316 304 287 265 251 246 229 229 220 216 201 194 204 196 210 238 221 245 218 151 161 162 160 156 155 162
290 285 279 271 261 267 278 262 267 265 278 279 294 298 278 287 289 294 269 258 246 252 249 239 256 269 277 294 366 364 326 304 292 270 247 240 213 191 215 215 203 193 202 200 196 201 209 212 210 211 213 150 152 204
284 262 270 282 258 259 273 244 260 276 268 284 302 293 293 287 310 301 301 269 260 252 251 249 240 241 252 268 280 293 360 364 300 314 292 274 255 221 217 204 213 214 205 204 202 196 198 198 201 201 200 200 199 199
274 267 269 283 270 269 285 280 285 279 224 302 301 295 291 286 315 279 310 299 265 254 248 243 237 244 243 252 264 264 276 292 307 344 314 306 283 265 255 235 224 215 211 215 211 204 202 202 198 198 199 197 198 198
298 269 273 275 291 268 258 293 289 302 288 310 294 295 285 298 319 285 329 314 278 264 254 248 249 249 252 252 249 267 270 277 292 305 340 338 317 281 276 263 254 246 219 226 214 215 215 211 209 211 204 203 202 202
301 301 313 305 256 295 293 299 310 298 315 303 287 281 305 317 297 294 324 304 275 270 268 264 260 260 247 255 263 443 541 504 428 317 399 341 328 315 295 272 273 261 257 251 239 228 227 215 213 162 211 214 215 216
310 319 315 267 277 277 285 301 311 317 307 288 282 299 309 305 298 329 280 268 277 277 273 270 261 253 278 456 386 495 485 516 436 452 370 349 325 318 305 294 285 269 267 264 261 252 242 232 226 222 226 229 229 227
322 310 293 283 292 287 282 291 315 310 296 291 291 298 313 329 325 285 279 277 272 269 270 250 278 317 469 505 467 425 491 501 416 451 395 355 332 310 307 304 287 286 268 266 263 257 252 244 233 227 227 230 230 230
278 277 301 332 324 279 318 317 307 295 288 287 295 310 341 330 291 279 274 271 265 262 256 293 314 433 496 424 422 417 460 408 481 443 395 359 329 314 306 303 301 278 276 270 265 263 261 254 251 249 248 248 247 244
284 283 286 326 310 309 306 289 294 288 291 292 303 334 320 294 278 276 271 264 257 260 290 306 425 465 442 435 444 415 401 448 453 420 385 356 339 313 309 305 291 290 289 283 255 250 252 253 253 252 252 253 253 252
296 206 274 277 286 305 306 291 290 287 296 309 328 311 293 279 277 272 264 254 259 281 299 416 453 433 418 407 426 451 388 454 410 506 374 355 336 323 314 301 306 292 282 286 290 280 262 248 243 241 245 244 242 245
294 284 287 295 301 292 287 288 292 300 311 333 309 289 273 273 273 265 253 259 278 297 336 403 409 418 398 412 420 433 426 428 366 483 368 348 328 319 313 313 298 291 279 270 277 284 280 271 266 261 258 256 254 254
282 285 306 307 305 297 303 308 307 311 338 308 283 272 271 269 263 257 259 270 295 305 406 390 406 404 390 392 392 410 424 397 416 470 357 338 331 321 305 314 306 286 283 281 282 278 278 282 278 274 268 263 266 270
325 326 323 320 311 300 312 324 330 332 304 280 270 270 268 258 248 255 271 290 297 402 398 386 408 396 390 394 379 382 419 376 436 406 358 341 326 321 303 303 313 293 282 277 276 274 277 276 284 279 275 274 271 269

GFSWCAN_2pvu_pres_009.txt.gz
Presure
286 265 278 281 270 288 278 263 278 263 127 273 266 298 323 263 280 269 346 315 320 324 330 334 290 250 221 237 233 235 224 223 220 222 219 218 204 215 212 217 212 238 198 159 213 217 208 214 218 221 216 212 215 222
266 260 282 290 271 292 263 270 177 279 275 275 281 304 322 266 280 269 359 339 304 313 310 314 316 252 252 236 227 233 217 228 230 222 192 212 207 214 208 219 229 241 221 190 238 216 138 161 223 216 213 237 225 221
263 265 290 271 274 267 278 260 268 128 271 271 274 280 313 266 286 272 381 347 318 311 306 312 309 326 257 250 238 222 233 225 228 226 190 204 225 217 182 218 224 189 198 237 212 216 217 222 167 204 217 221 231 228
275 287 275 273 282 275 294 256 269 277 270 272 290 277 326 319 294 273 397 350 332 314 293 299 304 304 323 263 246 232 229 232 224 227 218 207 216 209 227 219 253 234 204 186 233 216 225 227 213 232 176 234 227 239
283 274 273 269 283 272 247 283 294 282 289 274 303 279 332 310 298 301 450 351 330 314 286 294 298 295 305 328 269 240 230 230 231 218 215 221 220 222 207 227 249 223 247 203 216 210 240 231 257 230 215 214 219 253
282 298 279 263 269 281 277 287 212 234 292 268 299 304 328 335 294 563 466 359 315 294 292 290 293 290 296 310 321 260 240 228 234 234 231 208 222 231 227 240 232 238 182 238 231 249 247 218 248 223 256 229 236 248
290 277 275 274 269 273 286 285 289 193 275 270 284 324 333 325 347 508 423 344 311 295 292 289 291 289 288 302 311 314 239 225 226 206 197 222 233 231 245 268 245 240 246 197 194 221 236 257 253 260 234 233 248 259
282 291 286 266 263 268 269 289 274 127 274 286 282 332 342 308 610 674 391 339 309 290 289 285 282 286 283 300 300 232 287 242 233 224 228 239 238 252 259 238 185 242 240 248 254 190 204 221 227 235 247 240 256 269
278 271 276 276 264 282 274 274 281 128 271 314 274 329 329 604 600 640 367 323 309 289 287 279 287 283 281 295 282 280 268 260 242 239 238 232 257 248 246 239 190 249 219 198 208 221 191 192 289 241 206 247 196 198
273 285 263 270 275 291 266 274 272 232 266 288 272 327 307 704 682 402 349 323 301 282 281 277 100 278 281 281 273 157 270 262 253 251 256 216 242 227 247 195 223 206 200 192 191 213 264 235 238 338 285 265 266 265
271 271 277 269 269 279 297 291 273 272 265 283 293 313 300 589 493 374 343 327 305 283 284 280 283 276 275 275 243 269 270 221 247 257 218 222 222 231 224 203 212 204 194 214 234 277 281 274 269 266 262 243 212 230
209 274 276 281 270 287 278 271 275 171 302 271 286 301 301 494 418 362 349 325 309 282 280 274 276 278 273 272 267 225 266 271 171 139 219 215 221 203 204 203 201 199 198 208 203 213 227 244 232 213 210 206 201 201
274 275 280 271 276 274 287 277 268 238 268 276 274 293 306 282 423 371 261 329 306 302 284 279 274 277 271 267 265 270 135 246 235 169 217 212 210 211 211 207 202 211 211 209 211 203 207 210 212 209 210 208 208 217
271 274 277 273 281 278 275 273 272 291 265 271 296 301 301 284 365 393 257 300 316 290 281 301 286 277 274 267 263 262 231 242 220 232 230 218 215 209 207 206 209 209 204 201 203 213 209 203 201 199 198 201 206 217
278 280 280 275 289 271 269 273 237 268 270 282 285 307 276 290 274 244 353 350 318 255 301 302 296 285 285 268 261 262 253 241 210 208 232 214 197 209 205 189 214 209 202 202 205 202 203 203 202 204 210 204 209 213
285 293 306 291 281 269 268 275 263 276 269 286 278 299 290 278 276 264 250 332 370 271 309 316 279 294 281 279 261 163 141 241 229 207 197 226 232 205 222 220 221 218 195 213 211 210 210 239 219 220 221 222 220 223
295 294 286 305 270 270 274 280 263 268 263 296 260 281 278 283 296 270 262 243 366 331 299 289 299 279 285 290 271 262 263 252 240 232 209 199 210 226 232 174 161 224 223 217 221 224 223 224 226 225 226 223 223 217
298 313 289 288 281 301 282 295 298 267 263 296 261 274 289 295 281 292 271 263 251 245 350 323 324 321 301 292 289 280 268 261 253 242 221 211 211 213 219 221 231 175 160 162 226 225 165 225 224 226 226 225 228 220
314 334 313 292 341 315 303 297 275 271 260 297 261 265 276 288 296 284 295 272 262 258 249 315 373 336 310 310 308 300 290 280 122 99 166 137 162 168 220 222 225 226 199 224 223 223 220 200 205 227 231 232 224 231
353 348 322 280 297 289 290 286 280 262 265 286 249 258 268 281 277 303 292 292 277 267 260 254 253 297 349 344 329 295 286 302 306 226 259 251 225 219 229 213 220 226 223 217 214 217 222 222 220 219 221 170 223 223
297 310 304 320 299 296 291 286 288 267 265 296 291 262 273 269 276 293 302 293 289 293 272 265 260 256 258 266 281 317 342 338 303 304 297 267 253 243 221 216 209 210 212 220 228 228 229 225 222 220 223 225 223 216
297 307 287 282 296 288 271 286 290 279 265 266 270 258 270 279 276 305 304 300 288 318 300 278 270 264 260 257 258 260 272 287 98 344 336 346 307 265 242 233 224 208 213 216 213 203 198 196 215 200 222 222 208 228
282 306 296 296 296 289 283 286 273 285 262 267 287 287 267 283 296 309 305 302 292 314 315 305 283 273 267 262 260 255 252 259 260 193 283 299 338 365 342 282 260 222 219 221 220 221 215 211 203 200 202 201 199 200
304 305 296 280 274 278 287 287 278 283 277 285 292 276 275 299 307 309 307 295 292 322 311 283 332 287 273 272 263 263 265 259 258 254 262 257 265 282 313 382 374 288 270 255 224 229 218 223 219 211 213 211 203 200
306 297 297 292 278 279 286 307 295 272 282 286 295 292 283 301 315 314 306 281 309 313 293 300 322 306 285 280 272 270 271 266 261 255 257 249 257 263 263 266 285 355 349 288 276 261 259 225 228 213 212 215 220 218
309 285 300 304 297 287 290 304 295 302 308 285 280 274 294 308 317 313 285 294 310 301 310 319 301 288 280 273 263 274 278 283 283 272 262 266 267 269 274 275 279 274 274 330 314 287 275 263 258 233 223 226 222 216
311 282 293 317 299 303 303 301 308 312 288 285 281 294 287 316 313 308 287 307 315 351 322 293 280 277 271 282 280 277 276 257 267 276 385 539 503 544 478 370 393 296 283 273 313 312 289 275 264 263 257 249 241 243
277 294 301 299 284 302 300 306 315 300 278 301 322 320 318 316 306 292 297 319 337 319 292 281 272 273 280 276 283 261 273 291 480 449 494 447 436 462 442 505 460 424 323 291 286 310 301 284 273 265 259 258 256 255
280 280 282 318 321 316 315 289 270 290 330 323 313 311 285 306 293 303 323 333 314 289 278 274 274 278 281 264 271 296 425 458 445 437 457 491 504 496 492 458 426 374 324 329 296 312 300 291 279 270 269 255 254 252
279 288 285 314 304 277 278 277 277 280 304 274 301 306 309 293 300 319 336 308 288 280 273 276 278 284 267 284 359 421 434 432 416 432 473 441 419 407 501 409 376 345 324 335 310 303 301 290 283 273 264 262 257 251
286 285 277 275 277 279 279 275 275 284 298 306 313 292 300 297 314 342 306 284 277 268 275 280 274 268 290 414 415 433 428 420 384 442 403 387 436 453 473 379 347 335 315 319 307 299 300 289 281 279 271 265 261 260
282 278 277 283 216 282 306 295 287 298 308 311 307 314 304 331 336 302 283 278 271 283 279 264 274 293 428 422 425 421 412 387 398 424 514 435 453 473 397 366 333 331 318 316 303 288 297 282 281 279 274 271 268 261
267 272 281 280 279 304 288 284 296 316 328 329 329 333 337 331 295 281 273 272 278 274 263 279 291 426 423 404 419 404 409 476 387 480 399 419 466 435 367 365 339 313 332 301 293 289 284 290 277 273 275 276 274 273

GFSWCAN_2pvu_pres_012.txt.gz
Presure
265 274 283 282 274 291 273 291 279 273 276 267 273 198 290 278 257 269 298 272 285 271 370 366 324 249 252 241 242 218 254 247 230 233 228 221 232 228 209 208 217 212 234 169 202 228 207 186 219 216 221 215 212 225
305 282 306 297 287 280 277 287 281 266 283 248 270 274 290 279 274 277 304 301 281 263 299 350 351 276 257 256 247 236 236 223 259 242 238 227 226 217 204 205 213 225 228 222 195 187 213 212 219 212 224 248 222 225
283 289 282 291 286 270 297 274 291 272 274 289 208 185 285 282 284 308 319 308 289 262 325 338 336 337 265 250 241 240 237 240 226 248 220 253 231 216 214 211 214 221 227 225 247 209 202 229 154 213 217 249 223 231
238 287 280 299 277 280 271 286 285 279 264 200 277 284 287 287 303 300 322 329 301 258 339 327 315 328 323 262 246 239 227 229 227 231 232 221 221 199 207 212 205 213 219 214 205 233 218 230 219 223 213 217 220 230
283 292 268 284 279 286 285 289 300 284 255 294 271 279 288 294 321 305 352 312 273 370 335 315 309 318 316 316 254 247 239 232 229 233 224 228 223 192 223 207 219 218 203 225 246 238 229 215 215 229 252 245 241 214
292 281 269 288 291 271 284 284 277 254 276 292 205 323 293 293 295 327 316 701 497 353 327 309 299 312 308 310 329 257 244 238 233 222 232 228 222 206 208 221 171 211 219 228 236 246 250 236 223 245 232 254 239 252
293 294 241 293 282 277 269 287 277 267 279 295 259 280 294 329 306 341 632 665 442 342 314 300 299 289 296 300 312 284 253 244 234 230 220 231 222 203 231 213 215 226 222 222 242 254 236 203 228 243 258 241 245 239
266 277 276 286 276 207 271 270 277 282 270 293 283 280 305 316 357 583 641 586 367 328 305 295 285 301 295 291 300 308 313 252 242 223 216 220 229 227 212 209 223 218 230 252 221 196 248 216 245 220 218 231 228 238
292 287 278 279 285 276 271 271 271 279 283 271 292 285 304 302 333 514 629 396 345 317 295 290 290 293 294 282 293 303 304 319 254 237 231 221 220 222 207 219 227 241 251 217 243 249 229 242 208 275 269 218 271 201
295 285 270 273 301 276 266 271 270 272 276 272 289 288 318 307 317 597 421 354 326 302 294 289 286 284 287 278 287 289 293 299 298 167 237 225 224 207 218 229 243 244 191 248 249 254 205 192 190 192 232 307 308 254
290 289 283 244 282 278 277 280 275 267 279 265 285 283 293 288 306 417 368 346 320 298 296 284 286 280 286 277 282 282 283 282 287 208 248 226 222 210 221 240 248 266 199 203 217 208 199 203 290 271 295 314 263 269
306 180 273 206 281 274 276 274 277 271 276 272 246 280 288 295 297 361 360 333 319 293 290 280 282 282 280 273 280 276 274 274 268 270 252 189 214 243 239 245 268 247 199 193 209 206 203 270 260 263 260 253 253 232
307 280 276 280 230 293 281 274 272 280 274 283 151 272 277 281 297 272 354 316 246 288 286 277 277 279 275 270 276 274 270 274 267 262 261 197 238 170 249 217 236 222 212 204 211 212 201 222 204 237 234 216 212 210
290 299 280 276 280 281 278 282 274 281 271 278 213 271 280 295 304 282 328 339 321 304 294 277 279 274 275 266 268 271 270 265 264 262 263 270 183 250 237 217 225 210 208 204 203 202 208 213 217 201 204 210 212 217
290 291 291 291 284 298 286 282 292 273 275 283 274 285 264 283 303 295 272 251 334 296 296 293 280 280 277 275 265 264 267 265 263 258 263 259 255 212 210 214 198 211 206 205 205 203 217 212 206 202 214 209 207 204
297 268 291 300 293 286 284 300 272 296 292 278 269 291 267 283 260 297 285 271 250 329 249 294 291 274 278 280 272 268 265 265 260 260 257 254 239 206 206 222 212 191 152 205 205 205 194 208 211 211 207 205 213 212
292 291 135 303 292 290 305 301 287 294 297 275 278 287 270 270 265 304 299 289 273 244 354 333 317 295 283 280 284 275 268 268 262 102 252 248 237 215 219 219 222 219 211 175 215 215 215 157 211 205 209 209 215 220
289 293 302 179 304 313 289 281 293 277 280 272 293 277 270 275 282 263 300 288 288 271 242 285 347 328 320 292 292 287 284 277 270 264 257 248 244 222 203 230 226 224 223 221 216 202 162 219 219 195 187 159 214 227
283 275 284 289 286 311 301 315 296 282 299 290 280 275 273 260 289 250 273 286 292 297 280 268 257 302 331 312 302 284 290 299 296 274 264 146 247 232 219 203 209 222 227 225 225 226 225 225 189 165 171 225 224 226
251 289 285 284 283 299 282 321 293 280 299 288 280 274 273 256 288 270 264 266 278 308 284 296 281 256 244 296 348 320 273 275 302 305 296 152 109 109 242 227 214 204 205 210 218 218 222 205 225 224 224 223 222 217
291 298 296 282 298 287 295 297 301 301 281 281 275 273 275 264 272 285 267 265 265 304 303 296 281 295 276 260 252 278 337 344 287 314 295 310 308 273 262 249 239 222 221 209 203 211 214 224 211 128 221 220 216 218
296 293 288 289 294 298 291 275 304 279 281 276 284 272 276 268 257 273 290 260 274 288 309 301 301 288 309 293 276 263 254 265 290 350 338 308 161 318 314 276 264 256 242 231 229 222 206 211 216 218 221 214 196 207
293 289 288 287 297 284 299 312 298 279 281 277 272 286 283 269 268 259 289 286 282 296 314 309 296 303 290 323 321 291 278 265 258 261 262 275 311 340 354 373 344 293 282 261 241 225 226 221 213 210 208 205 210 216
285 292 283 290 287 305 305 301 277 285 300 288 279 275 266 281 278 279 282 273 296 296 315 311 309 289 289 315 324 313 309 287 276 272 264 262 263 259 263 279 316 334 355 355 302 288 275 254 223 221 224 223 216 212
291 288 289 284 298 298 277 285 291 297 270 284 284 279 271 281 283 264 290 297 285 293 312 321 313 287 283 319 317 310 297 333 301 285 280 279 272 270 270 266 256 251 257 274 311 363 345 290 296 294 278 220 213 216
295 295 287 276 273 307 306 303 298 276 283 282 277 285 292 288 289 303 289 281 284 282 315 314 316 295 291 317 321 309 296 335 324 310 295 288 279 277 273 272 272 271 271 268 261 250 255 318 347 321 299 289 280 268
299 288 277 276 284 279 297 289 288 286 291 288 284 291 300 296 304 307 283 289 310 278 316 317 314 295 298 326 345 338 325 313 281 285 285 279 279 284 287 285 284 265 258 259 255 251 249 245 250 254 276 311 298 283
292 285 277 278 304 293 304 292 278 288 293 305 317 307 302 296 307 274 289 317 323 318 314 312 304 297 321 343 333 325 302 291 285 282 279 286 292 259 262 266 272 275 276 279 277 275 273 268 261 260 257 255 252 302
286 285 287 286 279 289 302 270 284 312 283 286 296 298 310 317 279 306 327 318 275 296 308 308 302 329 341 327 315 299 291 277 283 291 275 264 282 297 320 475 464 466 539 455 496 527 444 336 284 277 260 258 257 251
290 290 290 288 288 279 308 292 296 291 285 298 314 318 271 273 288 313 277 302 315 307 305 305 337 337 319 297 288 275 291 284 267 278 326 458 445 461 468 431 420 456 490 419 494 500 444 403 369 328 281 268 261 259
293 294 285 182 247 280 277 277 279 297 308 317 277 277 281 280 282 291 309 312 297 310 310 346 337 305 289 275 285 279 271 291 394 457 439 438 437 424 400 474 472 494 506 489 412 475 357 366 363 340 315 284 275 269
290 289 284 279 279 280 277 283 280 274 279 282 282 283 280 277 292 310 317 326 323 339 354 320 294 281 275 289 266 288 301 466 449 428 463 409 410 398 420 412 477 412 465 488 476 422 329 356 315 297 300 293 293 286
204 287 280 279 275 275 282 280 278 281 285 277 278 287 282 316 324 335 331 321 378 348 301 287 274 285 273 274 289 318 462 459 469 462 488 457 397 422 448 387 368 453 485 425 394 377 332 306 299 298 289 282 288 282

GFSWCAN_2pvu_pres_015.txt.gz
Presure
191 282 290 284 306 297 291 284 281 292 290 278 286 292 276 250 273 281 290 283 310 304 314 266 295 352 252 233 237 238 239 228 233 227 226 219 221 221 223 209 212 210 224 211 182 220 197 219 215 216 198 208 209 229
292 290 282 290 282 290 291 283 267 292 298 290 298 274 287 272 288 247 293 298 293 288 295 305 271 295 391 252 245 236 238 229 230 226 230 229 217 224 226 222 209 201 233 228 232 219 205 200 200 209 221 210 219 222
227 257 279 313 288 293 285 289 271 299 289 274 280 285 282 258 295 258 306 314 279 293 299 313 310 273 353 390 255 240 253 242 235 231 233 235 233 220 215 226 205 201 202 230 231 228 226 231 207 207 221 209 220 214
293 314 282 309 244 296 287 282 278 298 289 256 282 281 301 268 292 296 302 321 303 335 331 290 282 265 305 353 321 252 239 240 246 232 231 232 235 231 226 225 202 197 210 225 212 217 216 209 214 232 223 224 234 240
326 308 138 316 300 285 275 279 285 277 304 277 269 280 281 291 287 298 311 324 351 314 453 285 284 319 331 331 341 266 246 245 238 238 241 252 245 170 242 234 208 209 210 210 225 226 223 228 225 242 212 215 241 213
298 317 314 318 292 281 275 286 284 276 279 284 277 282 299 287 298 333 343 360 621 579 554 448 342 329 316 311 326 328 256 250 234 235 238 236 242 220 240 236 203 220 194 219 219 217 222 235 245 242 230 230 231 254
317 335 304 295 284 293 284 295 134 281 289 291 286 284 279 284 308 322 349 620 644 621 497 367 325 311 306 300 316 324 318 250 227 234 228 231 233 228 229 215 201 220 208 201 218 230 240 241 248 249 211 243 244 248
253 302 307 289 285 301 287 274 286 271 303 297 278 281 286 294 318 341 631 645 495 439 372 333 306 303 296 305 302 310 338 270 251 234 239 230 220 233 226 218 199 210 219 220 231 223 233 240 188 245 245 247 223 251
301 301 298 305 285 293 281 255 275 272 302 279 274 281 289 298 302 356 644 473 417 372 335 313 300 290 297 291 97 306 321 328 260 244 237 239 226 220 226 219 200 226 222 208 221 223 237 239 246 245 244 256 280 274
315 301 294 291 303 295 118 162 283 276 280 283 286 283 301 286 313 335 426 393 370 338 311 294 297 286 289 285 285 295 308 313 324 259 250 231 234 226 227 208 215 218 210 217 213 234 248 246 245 204 213 210 216 245
303 295 298 297 224 303 287 278 269 276 268 283 281 268 289 288 304 153 373 378 348 312 304 291 291 293 295 286 285 288 293 299 304 315 272 248 235 216 216 222 224 215 212 220 233 245 252 250 213 187 197 192 237 303
320 300 290 292 280 290 287 288 290 273 276 281 268 275 288 296 302 296 372 358 324 306 300 290 280 283 284 276 281 282 283 290 295 302 308 295 244 237 228 222 218 200 215 224 236 249 254 218 196 197 201 299 305 291
305 320 304 294 284 295 287 290 299 277 277 268 281 281 298 292 297 151 348 328 307 301 292 288 288 281 280 274 279 280 282 283 290 290 98 290 277 153 241 222 210 216 217 236 251 267 201 210 201 204 243 218 261 257
299 300 298 293 295 289 293 302 288 290 270 277 287 308 293 283 294 277 270 304 283 309 302 287 290 281 280 283 280 279 275 280 278 279 283 286 281 274 260 210 246 215 223 250 244 211 202 200 209 232 199 206 217 224
306 295 286 295 290 172 289 290 281 282 283 282 300 285 291 281 285 273 271 299 275 258 306 300 277 292 275 277 277 273 272 272 269 270 272 270 271 265 264 203 258 219 232 255 239 223 212 203 207 203 201 211 212 208
304 262 290 292 297 187 297 285 291 264 289 280 302 296 269 275 252 275 288 287 301 270 256 306 294 284 277 283 275 276 268 273 273 269 270 263 260 260 257 253 246 245 245 221 236 226 214 205 206 207 204 208 206 204
296 291 298 299 294 296 155 295 273 332 307 286 299 290 283 285 280 276 275 273 289 291 272 255 338 301 292 268 275 274 276 278 274 272 268 263 261 259 256 258 248 182 247 240 227 220 214 211 212 212 208 204 205 210
289 293 292 296 295 297 296 310 309 292 309 299 301 289 282 278 281 277 264 281 263 297 289 277 255 248 338 305 288 284 284 261 282 277 270 271 266 260 244 251 239 247 242 250 224 224 213 209 210 210 211 213 214 194
283 286 265 218 286 288 289 236 294 280 302 291 292 295 278 277 279 272 272 272 265 254 284 294 291 272 254 275 328 320 285 294 280 276 286 277 267 232 259 258 255 248 238 238 213 216 217 222 222 215 218 219 215 216
281 237 274 285 202 233 281 270 282 274 324 289 288 286 295 276 279 272 271 259 290 270 256 268 303 294 290 274 260 268 320 341 319 319 303 298 292 271 265 264 251 247 240 230 230 214 203 222 221 220 222 220 221 215
282 278 279 260 294 282 285 275 285 270 279 290 314 294 270 293 280 271 269 262 258 283 276 262 265 269 302 289 291 279 263 253 259 324 344 337 302 295 295 270 267 256 248 242 236 221 233 227 229 204 214 221 223 221
287 284 263 276 276 274 277 295 279 280 328 305 302 294 301 290 278 273 270 273 267 255 269 283 268 288 312 305 297 289 288 293 276 258 257 271 340 357 312 326 265 269 251 257 249 239 229 219 216 220 215 209 208 206
237 285 282 274 274 273 286 299 286 288 307 335 332 312 295 283 270 278 267 273 268 269 257 261 285 274 294 310 315 300 300 293 289 311 302 267 258 262 303 337 357 345 298 276 271 257 251 244 233 229 225 225 222 215
237 230 286 280 278 273 285 280 281 319 340 306 300 298 288 273 276 267 275 275 275 274 267 265 263 286 291 299 310 321 316 300 298 288 319 326 309 276 263 256 271 307 322 345 328 329 282 275 267 253 248 245 236 227
297 297 299 286 273 280 281 281 277 323 308 306 304 293 284 279 285 284 276 275 275 270 279 278 274 303 291 295 296 315 325 320 294 292 310 320 325 318 310 288 274 259 251 261 285 303 311 319 350 362 330 276 269 266
322 327 310 295 280 285 281 278 280 308 307 313 304 286 286 284 279 277 276 276 275 279 280 280 293 294 301 293 270 319 322 325 305 295 307 324 353 318 310 309 321 300 284 271 261 246 240 243 269 281 293 320 340 345
336 323 308 299 291 284 288 281 288 305 308 271 289 291 292 265 281 277 275 273 279 281 283 286 307 263 299 308 312 331 328 326 317 299 307 347 348 345 324 332 329 331 326 301 282 276 277 272 259 252 246 247 251 253
316 312 299 291 291 285 279 292 309 298 302 296 299 307 282 278 279 280 289 273 273 291 306 301 309 280 310 329 288 307 318 321 308 312 345 338 337 336 330 316 306 300 292 297 296 284 280 282 279 275 274 271 263 259
320 316 213 294 290 288 282 277 277 294 272 306 304 294 291 280 281 284 294 303 310 304 312 305 271 319 280 296 326 320 327 311 345 346 327 321 320 321 305 290 285 282 282 284 282 279 273 255 251 248 243 242 240 243
322 321 304 294 290 287 285 282 276 299 301 299 298 276 274 285 296 290 274 306 309 294 272 276 279 284 323 319 312 321 331 371 337 321 300 290 287 281 277 274 275 278 285 291 296 297 297 293 289 283 275 268 265 261
321 309 298 293 291 287 284 280 288 285 283 284 283 291 306 311 288 301 305 302 275 276 281 285 299 310 318 332 342 371 341 322 307 291 280 276 271 285 366 474 512 507 563 461 450 475 467 444 440 510 479 459 431 387
307 302 296 295 295 290 285 274 284 281 280 275 274 280 285 298 303 282 284 279 287 289 292 307 314 342 350 387 342 311 294 283 275 273 289 294 393 462 470 482 499 512 414 408 414 404 395 444 539 427 508 398 410 393
305 304 299 252 294 289 288 283 272 274 278 275 274 280 283 276 277 280 283 283 281 320 323 330 310 377 348 305 282 285 273 269 291 295 483 446 469 481 492 472 498 389 398 425 485 492 446 514 489 418 438 355 349 326

GFSWCAN_2pvu_pres_018.txt.gz
Presure
163 248 296 256 305 243 300 294 281 250 296 281 281 268 291 292 270 277 278 267 289 295 333 311 274 296 314 257 242 252 240 246 238 231 226 216 222 219 216 211 220 215 206 233 215 220 192 236 214 215 204 209 220 214
238 281 170 312 302 304 329 294 312 286 274 283 278 272 275 298 286 269 282 286 266 294 303 315 321 274 299 316 263 248 224 241 240 231 231 225 219 223 218 214 220 215 214 228 214 209 209 223 213 215 176 206 221 212
296 295 184 336 316 312 294 290 307 284 292 281 278 285 276 272 286 281 285 288 271 289 285 309 296 321 312 289 310 261 250 238 244 222 227 224 227 221 222 221 230 215 215 204 230 235 230 226 210 235 206 217 228 230
174 303 252 337 331 304 303 306 302 295 293 282 135 285 285 280 291 304 302 286 296 306 303 306 310 319 317 287 278 317 261 251 231 237 223 228 224 227 218 219 229 219 215 203 209 232 241 231 234 238 228 224 240 223
310 344 336 323 314 299 322 286 307 288 288 289 288 300 284 273 305 299 302 312 318 321 341 336 466 325 309 314 273 294 357 261 248 243 238 221 231 228 228 224 218 218 218 200 211 211 221 211 201 214 222 236 235 222
363 334 334 327 310 294 306 313 296 296 288 297 290 296 282 301 294 305 314 338 340 361 638 591 606 522 448 293 289 268 320 306 259 243 245 239 220 230 233 235 221 212 225 204 209 220 190 234 229 233 238 247 241 231
344 332 171 308 304 300 297 297 290 283 281 294 287 273 274 293 300 313 323 328 556 616 585 464 512 460 368 336 289 297 342 339 271 250 244 251 236 223 226 242 237 232 223 209 208 183 217 214 229 216 232 241 245 256
341 328 322 308 299 307 293 288 291 228 284 287 286 269 282 276 283 285 311 339 514 447 383 376 413 369 332 319 323 319 211 329 332 263 236 243 239 237 240 230 246 231 252 203 194 212 200 220 225 232 235 245 247 216
337 140 317 315 298 299 290 281 272 138 291 267 301 278 289 292 295 316 323 443 413 162 355 348 354 328 315 307 307 305 312 265 317 321 184 241 236 228 227 248 235 230 227 199 215 222 220 225 222 235 235 204 255 245
338 322 312 314 297 285 290 283 185 270 276 314 295 289 293 280 292 300 324 401 387 160 359 333 318 301 306 298 305 294 302 308 332 333 265 248 231 231 224 229 229 224 228 207 200 212 218 221 230 237 247 252 252 235
335 323 312 307 314 302 291 296 285 283 306 287 286 301 285 285 283 331 310 391 383 142 320 309 305 300 298 291 286 289 297 312 316 330 322 251 238 227 232 220 224 230 229 223 202 221 212 210 225 242 256 257 213 220
318 316 308 317 319 307 296 293 295 283 263 283 279 279 289 279 279 310 306 346 348 330 307 309 301 292 295 291 285 286 291 300 307 316 328 316 248 236 232 229 221 223 223 217 204 227 213 217 226 244 251 217 209 197
313 312 303 297 303 294 293 311 293 288 289 281 282 276 290 279 287 312 297 303 340 323 312 302 298 283 291 292 283 279 282 295 299 304 307 317 311 250 195 232 165 229 229 224 223 223 213 222 236 249 245 210 211 193
314 314 298 299 295 301 295 293 299 281 285 271 278 287 258 288 310 301 294 288 318 320 294 305 287 292 276 284 286 271 282 283 287 289 298 298 305 305 251 240 233 201 224 224 226 227 211 222 240 250 207 209 206 211
313 308 302 299 297 300 292 287 251 301 286 276 289 282 275 302 299 289 282 285 278 287 299 298 290 286 289 273 276 276 280 283 286 285 289 286 288 292 293 266 251 240 206 231 221 223 218 221 244 258 202 213 198 232
310 307 301 298 296 287 292 296 290 291 295 280 281 272 280 249 298 278 295 279 277 272 283 281 301 293 290 271 282 275 269 281 281 282 280 280 279 280 280 276 276 263 250 220 192 211 217 224 254 255 209 208 201 203
302 306 298 297 298 293 298 302 293 291 287 287 296 186 318 302 283 286 290 283 281 270 292 310 310 303 290 282 267 263 273 277 279 279 282 273 271 272 276 272 272 266 264 260 255 214 255 215 254 239 228 215 212 206
299 298 297 296 294 286 291 290 288 287 281 283 298 279 317 302 294 277 283 280 272 282 265 288 284 265 275 307 297 288 282 268 274 271 268 279 278 273 269 268 262 258 256 256 256 252 249 244 248 242 233 224 214 214
301 295 293 292 293 289 288 184 126 202 286 297 289 302 294 289 281 275 285 278 273 267 275 262 266 288 286 272 261 255 320 305 294 278 264 266 271 278 277 267 262 260 255 251 248 247 247 240 215 246 233 222 196 212
306 292 289 292 294 289 286 284 282 279 282 277 316 299 299 294 281 278 287 280 271 269 258 279 268 258 269 291 290 287 275 263 291 340 322 303 280 265 277 258 269 264 260 252 248 246 249 248 241 241 235 224 222 222
307 286 288 287 292 284 287 282 272 274 273 275 271 276 303 295 292 285 283 270 278 269 269 258 286 276 263 261 260 297 292 289 286 273 257 266 330 340 330 294 294 277 184 263 258 252 249 239 248 245 243 235 222 205
310 290 287 287 291 281 273 275 275 272 271 272 269 270 273 295 288 302 269 283 272 277 269 268 259 259 275 282 270 254 295 301 296 292 290 289 278 260 271 284 312 348 369 299 270 255 255 249 251 249 248 239 233 228
311 295 289 289 289 285 270 273 273 276 273 277 276 299 277 312 289 290 287 293 288 282 274 270 269 267 260 261 270 270 273 284 296 308 311 303 298 296 296 282 257 283 303 327 359 295 266 269 261 251 250 249 242 236
314 295 285 283 285 278 276 269 270 279 266 266 287 278 283 293 293 314 318 296 295 280 271 269 272 274 269 269 264 272 261 291 292 294 298 305 314 312 306 305 298 316 258 275 299 306 312 304 290 279 261 259 257 249
309 308 291 280 279 287 278 274 269 273 270 287 291 285 283 284 338 330 304 299 287 270 272 272 277 273 277 274 269 284 274 295 302 315 301 297 314 320 325 321 299 295 313 329 276 260 277 293 320 338 345 306 286 268
317 339 316 289 282 295 282 275 275 272 272 290 284 278 291 331 329 309 300 296 287 273 271 271 274 270 279 278 274 280 287 295 299 294 309 272 312 336 331 327 321 304 310 319 339 328 306 265 256 259 278 301 318 327
253 340 340 317 294 294 284 280 280 277 274 290 284 279 331 306 304 298 293 290 281 278 285 298 281 277 279 285 286 285 291 306 266 301 320 325 347 350 336 333 329 309 309 351 356 355 319 307 316 280 260 252 251 254
283 318 329 320 307 311 300 293 291 280 277 277 284 278 322 310 299 300 294 283 282 276 274 292 294 287 290 284 285 289 305 269 320 321 289 291 346 342 344 330 317 349 356 350 345 342 341 337 334 341 339 284 262 259
332 323 328 316 196 190 302 292 291 288 285 285 285 279 306 297 300 278 303 293 284 279 278 277 287 285 298 299 302 316 276 283 285 289 341 324 328 334 329 384 367 342 330 325 326 328 327 324 319 315 319 322 319 268
323 322 327 322 319 315 303 300 295 294 289 284 280 282 313 279 275 287 291 297 301 300 284 281 293 285 293 309 318 279 288 289 302 325 337 354 383 372 343 331 313 300 297 293 296 295 294 295 291 289 285 284 281 280
339 321 331 327 325 314 299 295 239 291 286 286 281 280 303 302 275 294 299 310 274 279 290 291 293 307 309 277 288 292 288 332 349 382 385 331 310 299 294 291 291 293 292 287 289 293 292 290 289 287 285 282 277 274
345 329 329 326 319 313 304 299 293 287 286 285 280 276 282 285 314 316 300 282 294 291 308 320 298 282 307 290 289 329 334 377 376 314 300 297 292 287 289 301 309 370 488 501 499 497 509 518 446 565 454 447 446 382
321 329 324 320 306 312 304 294 288 289 286 284 279 280 307 300 281 283 289 279 284 302 277 279 291 284 305 325 290 388 363 309 293 289 283 283 297 301 329 485 501 514 501 503 484 517 520 465 413 422 447 437 447 431

GFSWCAN_2pvu_pres_021.txt.gz
Presure
191 203 281 187 124 285 302 256 312 308 294 302 283 296 293 283 278 271 276 278 282 307 303 277 277 317 299 321 283 264 255 255 257 240 237 261 284 249 293 252 220 219 217 220 216 212 232 246 253 223 233 212 202 219
297 110 123 118 133 284 327 168 332 232 300 286 299 281 292 285 281 274 282 292 278 301 295 286 284 293 308 273 287 321 264 252 258 249 232 237 241 233 222 229 221 215 221 217 217 231 216 215 178 219 203 214 212 216
209 297 123 144 204 294 107 320 329 304 332 298 294 271 289 288 283 276 285 283 286 297 293 284 290 295 295 303 278 293 310 268 248 249 244 228 231 223 224 227 222 218 223 215 217 198 221 217 237 217 214 222 228 230
115 193 206 314 355 334 141 314 308 314 305 306 303 293 291 289 283 278 287 296 280 297 294 289 301 304 300 305 303 275 284 303 269 247 247 236 236 226 220 218 220 215 219 218 216 202 227 214 226 230 232 221 240 232
275 349 361 374 355 333 339 324 325 305 289 288 312 289 288 288 291 281 293 279 292 292 303 315 314 328 308 303 321 291 317 281 284 265 246 242 229 233 227 225 221 216 220 221 218 210 192 211 234 249 246 220 220 226
359 380 356 367 201 355 331 316 319 311 283 281 281 292 280 282 279 286 275 305 312 326 366 484 673 557 607 386 321 317 312 282 272 276 258 243 239 230 226 225 215 214 214 220 228 212 206 208 210 217 225 229 237 237
327 361 115 365 343 335 323 323 301 297 296 287 282 290 281 281 287 281 288 311 301 351 489 549 597 601 699 546 392 312 312 317 280 309 273 252 233 237 229 220 215 219 199 217 215 221 204 204 214 195 221 217 236 229
352 355 309 345 273 332 319 315 302 290 300 292 279 284 284 292 287 279 319 323 307 374 443 520 542 541 464 420 375 319 318 296 300 262 343 271 246 235 231 226 225 223 223 218 213 224 215 204 203 200 211 211 236 239
210 344 339 339 343 328 321 317 298 290 280 282 282 273 279 282 289 303 308 304 335 401 414 417 376 349 361 357 359 331 316 311 291 267 259 348 260 241 240 215 227 225 228 230 229 217 223 210 206 208 198 225 229 239
223 344 335 140 324 327 324 307 294 295 282 281 284 282 283 287 302 272 306 296 312 376 365 369 349 330 331 328 322 320 307 313 283 272 271 340 278 253 242 239 216 213 227 231 239 233 243 211 205 210 211 219 230 236
350 343 328 325 324 321 314 300 304 294 290 290 282 285 299 289 280 275 289 303 311 369 345 331 323 313 313 308 307 305 307 303 310 310 324 324 345 262 237 244 235 221 226 225 238 244 239 209 204 214 217 214 224 240
343 331 324 313 314 313 303 316 301 290 289 284 279 289 268 265 278 282 298 305 317 342 318 319 305 304 295 298 297 299 298 304 298 307 321 329 349 302 239 236 231 228 222 222 235 226 231 217 214 203 219 210 225 243
354 326 167 138 311 324 312 302 301 290 304 291 310 294 287 292 270 283 294 303 286 347 317 316 304 296 311 301 294 287 287 288 292 299 306 312 327 341 256 235 235 227 227 226 224 225 224 226 221 210 222 215 224 243
356 334 127 310 310 318 309 300 297 309 302 298 283 287 278 277 277 276 283 244 286 298 318 295 309 305 299 295 293 291 284 281 284 291 295 302 308 326 328 246 241 235 229 218 219 214 225 226 224 213 212 215 223 241
200 343 330 311 310 299 309 304 298 292 287 291 289 277 290 276 280 286 286 290 289 271 294 294 300 305 293 289 278 284 288 279 280 284 285 287 295 303 307 285 247 235 232 231 228 221 217 219 225 213 224 216 220 237
110 346 341 320 305 300 308 305 302 292 290 289 282 300 269 284 274 287 268 290 283 268 283 293 303 302 301 290 284 285 275 274 274 284 284 283 289 286 293 297 291 250 236 232 227 233 227 213 167 226 225 219 217 231
101 333 337 330 315 303 304 302 300 292 291 286 284 283 284 286 299 275 282 286 279 282 280 279 288 298 294 290 282 275 279 277 282 268 279 281 284 284 280 283 283 285 270 249 237 235 234 227 232 213 219 222 222 222
341 336 334 326 316 302 300 300 295 296 290 284 258 258 289 217 286 285 292 283 287 285 277 277 283 283 273 299 294 298 291 283 277 271 268 262 273 278 276 274 276 277 276 280 266 252 242 240 239 240 240 237 213 222
342 337 326 323 314 303 295 296 291 292 290 288 284 284 282 277 277 283 295 281 291 272 277 270 271 267 281 284 277 261 257 301 308 304 299 284 272 263 279 277 273 271 190 269 269 269 266 260 258 255 251 254 239 260
345 330 325 322 312 297 291 290 289 288 286 280 281 283 283 286 329 287 293 283 287 293 278 268 272 278 267 260 276 287 287 280 268 258 268 314 315 300 269 275 283 276 271 267 268 267 264 261 260 258 254 254 252 253
350 322 326 315 310 304 285 283 285 287 281 279 281 284 283 284 301 279 294 282 290 288 277 279 274 269 268 284 268 258 262 268 294 292 286 279 262 286 338 342 317 274 283 280 271 269 266 264 259 251 253 252 249 246
342 320 323 327 314 308 283 283 291 285 278 277 283 276 275 281 313 286 293 287 278 287 285 275 271 270 269 269 262 284 280 276 268 275 276 305 305 298 285 262 276 298 315 320 285 284 282 273 266 261 257 254 254 245
337 338 324 331 318 310 279 285 281 283 277 277 279 274 273 275 280 268 272 284 286 294 296 272 281 261 278 269 272 263 261 256 269 277 288 284 280 289 302 314 315 306 283 262 280 294 300 308 301 276 270 267 262 254
343 347 327 330 324 311 291 282 278 282 277 277 276 278 276 267 267 264 291 278 285 290 300 273 265 277 268 281 269 273 272 270 267 267 273 270 262 293 307 310 308 300 309 321 333 312 260 263 285 308 325 329 279 267
341 355 333 329 319 308 287 282 281 285 278 276 275 269 280 275 268 272 303 286 266 286 293 272 283 296 283 278 272 268 270 277 278 275 270 273 283 280 297 300 312 318 333 291 323 334 333 328 290 268 268 298 318 337
352 359 351 322 311 303 287 283 285 286 280 275 271 268 279 278 267 277 274 281 276 274 285 273 319 304 293 278 272 273 270 279 277 277 294 286 283 295 289 283 311 325 336 326 340 344 341 336 336 300 305 328 271 283
354 355 336 317 304 300 291 289 283 279 281 276 274 268 265 276 278 280 312 278 278 281 277 332 318 300 292 282 271 272 271 269 283 289 281 290 290 299 304 272 304 335 360 358 318 348 340 334 340 342 311 317 336 332
353 277 330 314 316 312 295 284 277 276 283 279 278 272 264 267 278 284 277 278 312 278 315 316 305 296 285 281 272 276 285 293 296 277 292 292 305 312 315 295 289 287 316 340 341 343 342 341 335 325 323 353 362 363
358 355 312 315 316 315 305 302 280 275 285 288 284 276 270 272 274 275 274 276 319 314 307 299 291 291 291 284 281 284 284 277 284 287 293 270 280 301 289 288 303 349 349 362 384 400 390 378 372 364 359 353 349 348
374 369 217 207 316 319 314 257 312 304 287 286 284 279 272 272 274 276 273 275 317 306 292 294 295 294 290 290 289 295 288 289 290 301 308 306 305 286 309 352 370 392 387 346 333 330 328 325 326 325 324 324 326 331
390 382 380 330 316 310 316 326 320 315 295 293 294 294 287 282 279 277 275 278 309 300 295 294 298 303 301 291 308 291 294 307 304 310 292 275 327 303 388 388 339 313 308 305 303 302 300 295 293 294 297 298 298 297
399 403 392 381 324 307 315 325 329 321 307 302 298 292 290 291 286 279 278 323 310 307 298 280 296 304 314 314 298 310 285 308 284 285 306 290 391 361 311 304 298 293 289 287 283 290 312 315 352 493 482 313 286 281
277 353 407 247 324 321 320 328 331 319 313 307 302 300 294 287 279 280 278 273 296 310 301 312 304 291 290 302 289 288 283 309 292 380 361 324 304 296 289 286 299 308 317 368 506 512 444 508 508 502 500 502 506 515

GFSWCAN_2pvu_pres_024.txt.gz
Presure
212 315 298 197 278 288 137 125 282 331 334 325 126 306 281 290 284 283 286 282 275 280 281 286 289 303 283 269 273 302 297 262 255 249 270 247 238 236 233 227 231 230 231 233 240 284 257 216 217 224 229 238 249 212
263 296 178 269 261 180 128 344 351 341 347 332 317 293 317 283 296 289 288 286 278 282 282 287 282 289 292 292 288 271 294 304 275 249 248 267 239 240 260 288 290 289 283 290 285 222 213 230 238 228 187 236 236 196
345 333 272 269 319 366 329 334 351 354 290 321 320 303 294 302 291 284 290 282 279 279 279 279 293 294 273 279 292 289 271 286 296 289 257 254 244 232 260 285 293 296 218 219 211 219 233 206 220 211 230 211 212 220
338 279 327 375 312 107 354 374 302 366 91 331 314 293 301 291 292 286 291 281 280 276 279 278 287 292 290 290 301 297 289 273 277 282 307 259 257 238 233 220 259 212 219 219 223 217 218 227 217 223 215 225 215 230
271 354 336 339 296 324 284 360 364 340 337 345 321 283 305 297 114 276 277 282 282 284 285 291 309 300 307 317 309 300 305 293 289 284 302 285 256 240 232 223 220 224 225 218 226 213 218 197 230 217 219 225 234 233
325 280 353 358 361 178 361 259 359 339 322 328 297 312 288 291 293 277 284 287 283 295 300 309 336 321 667 690 553 357 330 299 295 293 292 292 271 252 232 227 209 221 221 219 219 219 222 215 207 209 213 221 220 217
278 308 188 173 235 339 287 185 349 330 328 319 305 299 291 286 290 273 289 285 293 303 317 328 523 601 580 581 687 433 339 295 299 302 317 297 318 264 242 230 220 214 219 221 217 221 227 216 209 209 212 213 214 215
374 147 125 216 260 358 350 335 252 331 310 301 206 304 283 280 292 292 199 288 282 307 299 374 558 586 596 613 516 414 341 290 295 305 282 296 264 293 247 235 223 223 218 219 215 211 215 213 220 207 206 211 206 214
192 233 182 346 157 136 339 329 347 323 321 301 291 293 280 294 202 280 116 272 285 280 334 371 401 399 409 389 400 376 335 312 299 309 300 303 305 300 266 248 230 223 223 221 221 214 211 210 213 226 219 206 203 203
231 140 132 369 310 353 341 329 227 321 314 310 295 285 280 285 282 289 284 277 291 292 340 377 365 368 347 333 332 333 331 302 297 290 295 300 308 250 340 259 244 223 224 217 215 219 215 213 213 214 224 221 210 206
259 320 138 122 342 353 339 283 319 309 305 296 295 293 291 292 289 275 283 279 285 303 303 319 327 354 332 328 320 317 311 306 312 309 312 320 306 286 254 359 252 236 224 226 222 224 222 219 221 219 214 219 217 209
365 117 350 330 287 354 232 200 314 321 303 299 294 291 292 299 281 275 276 291 285 291 295 340 330 324 322 317 313 306 303 305 307 317 319 289 274 294 264 252 353 249 234 224 226 216 222 222 223 228 237 235 238 208
375 397 283 341 340 358 339 321 303 303 306 296 290 293 293 289 291 309 295 308 283 279 298 307 321 306 308 307 309 304 303 296 297 294 297 307 325 329 300 263 260 339 245 236 225 225 211 215 228 232 241 240 238 210
422 340 362 368 357 347 336 92 310 311 293 303 295 284 301 305 282 281 285 280 281 277 291 288 306 309 307 311 301 304 290 285 289 290 294 298 307 316 327 331 329 327 267 237 236 226 224 216 213 222 227 239 240 220
346 388 400 265 366 351 104 263 315 304 295 315 306 291 293 306 303 285 281 279 275 282 272 283 304 304 301 297 301 297 290 278 279 279 282 289 290 297 309 319 312 316 313 240 238 232 225 225 188 232 227 226 226 222
402 364 390 381 363 113 118 338 322 307 295 300 294 292 289 285 290 287 280 276 271 287 271 284 267 304 296 300 289 281 281 283 272 275 280 279 285 287 289 303 303 301 307 261 233 235 230 225 226 226 226 227 225 204
277 129 336 384 360 353 325 335 332 314 305 305 294 290 285 283 291 281 280 308 277 288 266 286 279 283 300 293 293 288 285 280 281 273 270 272 273 278 284 283 286 291 290 293 284 238 234 235 225 224 226 225 223 220
375 365 356 384 359 348 343 338 336 319 302 302 296 293 286 290 295 288 282 264 283 295 270 280 278 280 279 280 291 293 293 291 280 273 270 268 268 271 274 278 276 278 285 284 284 286 263 238 239 235 227 229 232 227
368 352 337 382 356 345 329 331 330 318 305 300 295 292 287 293 290 225 223 274 227 271 291 280 272 272 276 285 285 274 263 299 304 302 290 275 273 268 267 272 276 276 275 279 277 180 278 265 248 241 237 235 231 231
359 344 336 376 353 345 336 333 329 321 304 295 297 288 291 292 262 285 284 278 278 277 294 279 272 271 283 277 269 270 286 282 272 263 276 308 325 311 294 272 272 270 276 276 277 278 277 274 274 275 279 264 252 249
354 345 335 372 361 351 342 331 322 318 301 293 291 289 289 288 287 284 283 276 270 270 296 287 285 274 267 267 278 273 266 257 268 278 294 288 277 261 254 251 318 326 325 279 273 274 273 277 277 273 274 274 275 272
351 350 338 356 371 362 346 329 324 311 299 287 286 286 285 287 281 281 280 277 304 304 279 293 291 290 268 273 267 269 270 277 281 264 254 261 265 269 296 304 291 277 263 299 319 320 281 272 277 276 275 267 271 273
356 350 350 367 377 376 336 323 319 309 298 286 283 280 283 286 280 281 280 276 311 285 274 297 283 283 283 277 275 271 272 271 275 263 269 274 277 279 284 286 285 287 291 298 303 286 275 286 299 312 293 271 276 277
364 355 359 384 407 375 329 317 315 310 303 288 281 276 286 284 278 278 275 277 279 275 300 288 285 283 287 284 270 284 268 265 263 265 277 273 269 274 262 267 273 263 265 277 290 304 312 314 306 305 288 277 289 303
360 400 409 405 385 371 328 325 315 310 305 289 281 282 287 280 276 273 273 276 272 269 268 273 271 279 289 293 290 265 263 269 281 270 270 268 275 276 282 286 274 274 264 284 293 286 292 313 324 336 339 314 328 340
407 397 388 388 371 353 324 319 315 315 310 290 278 279 282 277 275 274 277 275 270 265 262 276 291 274 262 265 269 268 284 288 291 286 280 283 281 273 281 282 283 289 286 291 288 299 262 284 277 326 342 360 343 345
406 384 380 382 355 350 339 316 317 319 314 292 280 277 278 277 275 277 273 271 272 269 266 277 289 305 267 270 280 297 293 272 296 292 282 275 279 269 270 281 286 298 295 296 305 311 311 302 311 315 324 323 291 292
386 377 368 386 362 352 343 317 315 318 316 294 284 277 287 276 278 277 272 274 280 270 269 274 281 279 270 281 313 272 295 316 314 299 289 288 286 282 284 287 292 293 293 304 313 317 287 286 289 294 308 328 332 340
375 373 364 383 365 358 355 315 312 312 324 307 281 277 280 286 279 275 273 271 273 279 268 281 285 271 280 281 281 339 329 314 299 293 293 292 295 299 280 298 297 303 307 287 284 302 293 296 351 381 389 398 398 395
384 381 365 382 365 357 221 319 315 316 319 310 284 279 278 285 277 277 275 268 266 269 277 280 274 272 303 321 310 309 305 297 292 292 293 297 298 307 311 305 305 282 302 289 296 308 307 404 380 345 337 333 332 334
383 211 282 384 379 357 342 322 320 322 317 311 283 279 278 283 283 279 275 273 273 274 279 276 275 274 318 310 305 289 293 297 298 305 308 310 294 286 279 295 290 302 305 302 352 357 334 322 313 306 304 303 301 301
356 367 371 385 388 380 354 327 322 326 326 330 186 274 275 282 286 283 285 278 274 273 278 277 279 279 321 313 302 277 288 309 312 315 305 311 283 287 297 296 294 365 333 318 308 303 297 292 293 293 291 289 287 286
385 380 374 385 395 396 390 333 332 328 331 325 316 309 302 294 283 282 291 286 281 282 292 285 282 280 315 320 316 308 309 301 315 283 291 296 292 308 370 320 306 294 289 285 281 291 314 350 378 513 538 518 511 511

GFSWCAN_2pvu_pres_027.txt.gz
Presure
173 176 249 234 281 291 323 377 336 380 366 193 380 335 334 333 313 305 282 300 291 287 289 285 272 282 281 278 282 282 284 285 289 279 266 245 253 244 244 244 239 237 245 252 246 241 236 244 232 224 225 237 247 217
168 164 256 282 293 294 270 311 252 381 370 316 386 348 326 317 293 301 312 305 294 284 288 283 274 277 277 283 279 259 257 271 282 283 287 268 261 251 235 234 237 235 240 240 240 235 228 222 230 248 251 213 231 232
184 276 279 296 278 289 236 400 395 380 371 342 286 178 344 222 332 317 298 297 282 299 276 282 281 276 283 272 273 277 277 289 267 277 283 294 278 252 239 233 231 228 228 228 227 227 226 249 265 232 215 221 234 243
267 255 280 274 281 292 274 383 272 258 259 136 143 317 295 331 257 311 309 293 281 285 278 286 289 282 279 282 282 286 286 285 292 289 282 283 294 282 250 233 235 250 287 289 286 243 268 264 226 231 235 234 240 236
274 284 284 305 303 221 246 267 336 320 207 180 358 341 327 312 324 299 300 287 286 293 274 289 283 291 284 287 293 295 295 292 298 299 301 280 284 292 290 237 236 235 281 290 293 290 245 202 241 221 225 216 215 227
273 285 303 306 259 111 265 351 364 356 137 143 186 331 309 324 296 310 300 276 277 281 296 289 291 285 296 300 302 330 346 320 298 296 304 284 270 284 290 248 237 234 252 285 225 225 219 223 234 231 218 227 224 230
275 291 296 249 266 137 326 173 163 127 296 329 351 303 330 303 299 295 284 287 274 274 289 300 283 296 312 408 577 661 nan 471 378 336 287 282 276 281 286 301 242 233 224 235 222 221 226 221 218 210 209 210 224 223
214 170 291 208 120 253 132 245 181 177 341 176 323 320 308 310 287 296 282 283 279 286 220 292 300 292 409 653 645 621 697 517 386 337 318 304 285 275 282 296 248 237 229 224 222 225 222 225 221 214 212 202 213 216
224 278 428 213 126 302 199 383 110 259 127 334 322 256 303 288 235 288 282 290 282 295 291 284 302 351 418 412 458 466 493 394 345 325 306 305 286 276 274 303 290 242 235 232 222 220 217 215 221 222 219 214 212 213
324 115 129 126 120 371 120 342 120 345 337 109 201 314 304 300 298 280 278 297 298 293 284 296 291 371 365 358 376 349 329 326 312 299 302 291 281 278 288 288 288 290 243 236 225 222 220 215 218 214 213 215 214 217
336 338 334 321 350 334 325 389 110 312 265 324 318 308 313 288 293 292 279 286 295 279 279 291 285 342 330 341 319 328 320 312 307 295 298 296 280 294 288 274 305 283 257 239 237 225 222 220 214 214 214 214 213 214
321 359 258 130 310 277 372 388 169 354 322 330 310 317 310 293 284 284 292 297 291 276 306 307 290 319 339 330 324 331 333 311 299 297 291 289 288 280 290 286 287 262 290 247 236 236 224 222 212 214 214 218 215 216
333 193 301 309 365 420 390 348 373 356 346 236 313 303 298 281 290 290 297 286 283 295 296 281 277 292 305 308 314 308 310 299 298 294 300 308 319 311 310 306 297 312 260 302 246 236 231 223 224 213 213 214 215 215
300 311 353 342 333 305 412 388 373 354 351 133 232 289 303 287 284 289 292 292 296 276 287 282 286 278 311 307 296 294 300 298 293 299 297 296 300 308 313 323 277 274 300 253 284 251 236 236 221 225 216 213 222 223
305 313 325 229 335 410 393 396 381 313 362 351 320 316 307 296 300 288 294 288 287 303 271 279 285 277 283 297 315 317 290 283 285 288 289 289 292 295 304 312 326 332 335 273 246 271 286 236 235 225 226 225 215 213
255 332 308 331 330 382 126 304 392 209 363 347 328 324 306 291 289 300 301 300 288 308 276 282 272 278 275 280 291 283 298 292 279 278 278 282 282 286 292 296 306 310 312 314 318 289 271 284 240 235 232 226 226 221
325 304 317 327 329 314 146 379 383 371 353 342 339 326 312 300 294 300 314 297 284 280 278 272 277 257 276 271 297 296 286 286 288 280 272 268 277 275 275 282 286 287 292 295 299 297 304 287 268 244 239 238 234 227
328 330 321 143 331 371 355 368 383 363 351 344 337 332 321 308 298 312 294 293 283 283 279 273 192 263 280 274 279 290 299 298 287 281 275 275 270 269 273 274 275 282 283 284 285 293 291 282 280 254 241 241 243 237
324 324 251 323 292 119 118 368 375 366 347 347 341 326 324 314 305 298 294 291 288 288 278 271 294 265 280 278 279 276 290 302 297 294 284 272 270 272 274 272 269 274 275 281 286 283 282 282 282 282 256 244 238 238
315 248 177 324 217 358 396 376 369 359 346 338 339 335 322 310 299 296 296 294 287 291 273 274 267 281 270 289 283 277 287 277 270 268 282 299 304 296 287 275 275 272 273 276 277 281 285 288 285 283 280 280 277 273
320 120 115 355 364 360 398 377 359 363 342 333 324 324 320 306 295 294 296 288 284 277 281 280 275 289 271 256 279 271 275 273 272 284 285 280 276 264 258 255 316 325 317 305 286 280 274 275 279 287 288 285 284 279
332 340 354 360 368 359 391 377 347 377 345 338 329 332 319 304 293 295 290 288 285 282 278 279 272 275 266 262 289 271 271 280 278 272 267 260 265 267 272 280 285 290 287 275 263 270 288 323 321 293 279 273 274 278
363 363 368 374 360 394 377 361 354 354 362 336 333 330 314 301 294 287 285 285 283 277 275 276 273 266 283 283 291 293 277 262 261 265 271 270 275 274 271 267 271 274 265 280 285 290 293 297 299 290 296 305 309 305
380 381 377 369 387 381 376 365 369 345 381 340 339 328 315 298 288 285 286 282 278 278 274 278 274 268 296 287 290 283 288 281 273 271 263 268 267 274 274 273 260 260 272 278 268 272 275 274 274 278 287 290 297 305
378 372 381 389 391 381 376 374 371 355 384 344 339 338 309 299 285 285 285 280 277 275 277 281 273 297 297 281 291 267 289 288 287 282 278 280 264 264 271 265 267 272 275 272 278 286 282 285 284 270 301 294 296 303
380 389 400 404 395 388 379 370 353 417 359 341 336 336 309 293 283 284 280 283 277 274 278 277 272 274 274 286 287 274 272 277 285 291 293 275 267 269 274 278 281 282 285 280 282 274 279 280 285 293 303 300 304 306
387 380 387 380 375 374 410 399 390 380 342 339 336 334 308 296 284 284 279 282 280 276 278 277 274 272 270 268 289 293 274 264 270 267 270 279 279 274 277 280 280 273 282 279 269 284 282 283 289 290 288 298 306 315
395 399 401 382 386 402 390 385 380 355 339 334 334 339 305 295 287 280 281 282 279 277 275 274 275 272 269 264 267 266 269 266 268 272 275 268 269 265 277 311 330 311 301 293 282 295 295 286 291 302 308 318 324 339
406 411 410 409 394 384 375 371 371 359 340 335 333 334 332 293 293 282 278 283 279 277 276 273 270 274 276 269 276 286 279 286 280 284 289 272 272 311 311 330 322 310 301 291 293 293 295 310 316 304 313 294 300 298
376 367 377 381 380 373 366 360 374 361 350 334 325 337 332 296 292 282 280 283 281 276 274 268 270 271 278 263 274 287 286 274 278 278 300 339 334 331 320 310 302 302 300 301 305 309 311 307 303 296 296 298 307 302
356 363 364 369 377 363 377 354 373 372 281 340 331 328 327 305 293 284 280 286 286 282 276 271 265 266 265 269 274 282 279 275 278 330 321 314 305 303 303 302 304 290 314 314 291 290 292 296 310 380 370 350 337 325
329 354 343 369 365 273 392 350 371 381 372 357 335 333 330 304 290 285 283 286 287 277 275 276 274 271 271 273 274 275 279 282 293 326 313 282 309 310 296 282 290 288 292 302 297 369 400 328 306 300 294 293 291 290
382 388 384 383 376 382 383 373 384 389 373 369 345 334 323 302 283 287 282 280 281 282 285 279 277 279 276 275 279 287 287 303 288 305 318 302 282 282 287 292 300 293 344 393 314 292 286 284 287 293 305 353 383 533

GFSWCAN_2pvu_pres_033.txt.gz
Presure
118 145 175 234 125 138 175 133 224 248 258 250 287 321 143 285 107 133 355 352 331 315 249 265 284 285 273 274 274 277 273 277 282 282 293 281 263 250 261 253 253 253 254 260 271 268 242 251 260 263 259 254 257 241
149 123 140 131 137 193 225 148 259 259 154 125 162 123 373 275 122 131 113 349 333 295 297 303 289 282 277 271 266 272 277 272 267 275 271 274 294 273 249 256 252 248 251 250 252 259 267 269 245 248 253 253 254 250
140 143 105 139 164 185 155 218 254 258 288 230 105 122 376 313 123 346 360 257 311 316 305 301 290 287 281 273 273 268 265 280 278 257 254 253 265 276 293 255 255 250 244 247 249 251 251 257 266 271 249 245 246 249
141 120 145 187 124 152 226 100 128 217 103 168 166 298 272 128 273 353 359 348 331 123 301 298 295 289 285 272 263 279 270 274 279 270 278 259 283 260 266 273 276 253 250 245 241 242 247 255 249 254 268 264 252 242
145 146 93 180 158 135 177 155 119 136 293 279 195 153 126 211 387 120 402 180 316 180 304 312 289 287 279 284 268 272 270 278 275 279 291 287 270 276 273 263 265 270 246 250 245 244 242 240 250 247 247 258 267 265
151 141 165 196 173 214 134 276 101 275 107 164 305 131 397 206 125 117 342 313 321 123 324 306 293 289 282 287 292 275 279 271 290 289 280 273 269 277 281 278 268 267 276 250 253 243 244 241 243 247 239 246 248 261
105 203 149 133 211 144 176 153 257 118 281 130 145 335 372 142 361 194 134 299 313 136 299 290 279 288 286 289 284 271 280 284 293 301 296 281 276 280 282 278 271 285 278 273 248 251 240 235 230 228 241 241 224 218
157 95 220 174 145 146 135 120 227 178 123 195 286 238 132 120 287 326 304 310 298 301 290 247 290 288 292 284 273 283 298 300 336 645 478 374 294 298 295 269 269 278 289 276 274 259 248 238 234 268 288 230 235 225
190 154 198 153 194 223 114 188 274 131 270 250 409 280 300 366 350 251 317 312 309 307 292 287 283 286 291 278 284 288 316 353 490 612 588 551 472 370 312 285 277 283 284 273 278 271 277 246 237 265 280 291 244 232
171 197 212 138 145 139 253 146 137 227 130 377 134 144 173 357 232 150 317 298 307 295 301 291 287 287 292 292 296 294 318 357 355 390 559 485 395 362 377 320 284 280 279 274 297 283 275 254 240 263 279 286 282 254
204 218 116 174 215 206 178 229 251 247 283 275 349 429 327 151 169 326 315 310 211 300 293 287 289 300 303 291 287 304 329 339 325 321 328 340 360 341 334 349 316 305 300 267 273 280 267 287 248 254 276 285 284 274
158 243 197 152 259 260 189 141 191 197 315 202 289 475 373 350 254 326 317 307 298 286 292 291 284 285 285 280 290 292 327 324 321 319 321 313 309 316 317 315 306 297 288 270 278 281 286 280 256 249 276 247 233 226
187 202 247 239 260 140 144 309 123 302 323 329 391 241 475 302 327 328 314 193 300 299 294 287 290 292 279 277 285 280 315 320 316 316 311 307 300 306 308 299 292 285 283 280 271 277 289 254 289 249 267 248 228 218
262 243 258 250 266 261 133 126 141 342 312 333 116 387 403 465 333 324 312 303 299 293 285 282 289 293 270 278 274 272 284 306 309 308 295 308 307 304 298 289 297 290 292 292 285 286 291 290 266 276 248 263 233 228
236 252 255 265 290 224 183 324 336 151 337 342 352 362 383 387 454 330 313 303 295 301 290 285 284 284 287 290 273 276 274 294 301 302 302 302 300 302 297 297 305 305 306 297 294 292 289 289 310 269 283 249 242 243
250 267 254 255 264 310 262 294 314 239 262 308 356 246 354 362 379 445 327 309 298 294 294 291 287 282 284 288 271 279 274 265 286 308 299 298 297 296 295 296 298 300 305 312 320 329 333 272 340 289 312 284 256 240
250 280 312 300 299 302 293 320 213 167 330 194 334 344 346 357 356 350 424 331 311 298 289 293 290 285 284 289 269 273 271 270 263 290 279 289 280 284 288 286 287 289 292 307 316 325 316 320 293 274 321 267 284 263
329 306 290 184 297 323 333 317 309 308 313 325 331 327 339 347 356 360 349 398 353 309 299 289 291 287 290 284 271 269 275 289 266 263 282 281 282 280 276 270 277 283 281 287 292 300 299 303 314 278 265 296 266 274
303 296 309 310 302 310 311 297 309 300 314 320 325 327 210 249 350 126 380 398 375 343 315 298 295 289 287 286 285 270 282 273 270 258 271 279 281 283 283 281 282 269 274 277 267 289 293 292 294 301 296 277 291 280
290 307 308 301 308 311 309 304 300 318 311 310 323 322 323 331 346 360 377 414 369 355 342 334 306 295 288 283 283 274 279 273 265 279 259 271 279 294 284 283 276 274 267 266 274 279 281 283 286 287 288 290 294 293
306 319 154 311 323 306 311 323 302 310 315 315 308 324 337 327 347 356 406 409 367 352 344 333 335 346 300 290 295 291 274 274 277 273 259 271 270 272 292 290 279 285 275 274 283 278 262 259 259 286 287 290 292 291
288 314 313 315 307 313 306 300 306 312 298 322 326 340 352 348 357 379 398 394 370 351 346 338 336 335 330 326 288 282 287 276 279 268 283 268 271 277 278 282 272 294 295 293 286 286 282 297 311 299 283 274 276 275
292 306 309 317 310 310 330 314 305 312 316 346 355 347 352 373 414 407 391 375 373 353 343 335 331 326 321 315 291 291 285 279 279 266 274 263 273 280 282 291 273 278 276 276 278 284 284 283 283 280 275 270 271 273
295 311 314 318 317 312 318 320 316 322 338 370 363 375 401 409 411 396 380 365 372 358 338 333 329 325 319 301 290 289 283 281 280 265 273 279 269 279 275 275 273 270 265 263 271 262 256 252 252 254 280 270 268 277
305 314 307 315 319 315 313 323 339 383 390 397 402 399 404 399 394 388 372 359 368 363 335 325 325 316 304 292 288 286 288 277 280 272 310 279 268 270 275 265 262 260 254 262 268 270 272 273 270 263 263 264 264 266
311 250 315 321 333 338 349 375 410 403 402 392 387 398 394 394 396 388 370 368 364 370 334 323 316 307 293 289 286 285 283 279 276 273 290 281 274 271 276 276 272 270 273 276 276 269 267 265 265 265 268 285 281 285
326 343 374 389 383 384 386 388 385 381 376 377 382 394 390 405 402 398 378 369 372 370 332 321 313 298 294 287 285 284 282 279 274 276 267 275 285 285 275 273 278 284 284 285 284 284 286 285 289 280 277 279 284 275
464 468 403 418 419 407 392 388 398 405 404 406 405 408 414 411 399 399 387 374 379 355 328 318 308 294 290 286 284 284 280 278 274 280 273 273 289 285 277 281 284 284 286 286 282 278 283 285 282 281 279 280 284 289
450 426 405 389 390 390 388 364 363 371 375 387 395 389 401 395 386 382 376 375 359 339 327 314 303 294 289 286 284 279 282 275 277 280 276 282 296 296 292 293 285 283 286 275 275 275 275 270 286 285 285 276 274 287
381 377 376 367 365 369 376 391 396 399 409 416 413 395 396 391 378 380 372 358 345 336 329 314 301 290 287 285 282 280 277 276 282 277 273 273 272 271 278 264 268 291 303 299 293 290 281 280 285 280 279 299 342 363
363 367 369 366 369 376 385 389 390 395 404 407 405 393 399 399 387 372 359 347 341 332 325 311 299 289 287 285 285 279 275 274 275 273 273 273 274 272 271 272 270 275 284 282 281 281 280 281 287 359 348 341 290 294
366 235 150 372 368 369 372 371 378 384 394 400 265 403 402 396 369 357 349 346 341 329 325 308 299 289 285 284 281 279 278 274 274 275 276 276 277 283 281 268 274 275 277 278 281 283 288 288 303 345 342 341 341 343
148 154 366 373 380 373 373 380 384 384 387 398 408 402 398 399 365 353 349 348 343 330 319 308 298 289 286 285 280 279 279 276 276 273 270 273 273 273 271 272 280 283 283 288 295 289 292 303 307 333 309 304 301 305

GFSWCAN_2pvu_pres_036.txt.gz
Presure
125 141 134 119 152 132 124 124 130 145 136 159 184 152 137 233 112 289 397 125 118 272 339 319 162 292 281 277 271 266 271 275 274 285 286 299 278 266 260 265 265 266 274 278 253 247 253 268 264 251 253 253 253 256
141 136 143 147 141 129 96 138 133 170 154 168 122 238 130 143 283 308 121 129 376 127 349 227 316 301 292 273 269 267 263 269 264 264 274 281 279 285 269 254 259 255 258 259 268 268 257 245 253 264 268 248 254 245
135 136 127 109 131 146 175 208 151 112 136 190 181 144 143 247 296 123 115 126 123 127 361 336 312 300 295 287 272 275 266 265 264 270 266 254 266 271 279 272 256 253 253 251 253 252 262 268 260 245 254 265 264 247
140 159 150 124 142 135 141 144 152 165 203 237 279 191 214 159 152 294 266 203 215 346 341 319 213 306 297 283 279 277 271 268 265 272 272 273 260 264 259 268 276 261 254 256 249 248 248 252 256 265 262 247 252 258
157 150 139 142 115 210 237 170 195 156 126 156 244 210 185 159 315 123 359 124 210 360 338 326 309 301 167 289 280 276 284 273 270 263 267 261 271 265 252 253 251 267 271 257 255 251 242 243 248 250 249 263 269 252
130 134 131 145 159 136 125 204 136 130 105 164 101 282 297 243 311 134 155 144 130 311 155 226 296 297 301 301 281 282 279 270 281 275 272 259 276 276 270 271 277 269 266 274 275 255 252 237 241 245 243 253 246 257
134 158 148 143 168 149 188 123 177 187 221 126 114 163 273 256 248 251 141 158 348 150 170 314 324 301 292 226 294 277 275 274 277 280 281 290 275 281 291 294 272 283 273 269 264 275 265 246 240 236 244 240 247 248
150 147 189 225 207 230 141 186 155 217 178 250 223 127 273 212 335 215 360 142 237 327 308 298 175 295 284 282 276 271 277 278 276 282 275 291 297 306 313 299 278 269 267 287 268 267 270 280 247 248 237 242 243 249
202 223 229 196 209 239 231 184 159 149 203 142 184 134 163 156 242 321 372 259 322 328 285 296 295 291 289 273 275 279 277 268 282 303 323 466 597 616 644 465 303 289 279 277 279 266 266 271 287 251 249 237 237 226
226 221 181 218 135 230 230 103 241 248 132 155 277 102 136 134 351 152 365 351 221 325 309 306 303 302 293 284 282 282 276 290 310 334 368 404 384 464 520 461 454 306 286 282 276 282 275 258 280 277 252 246 241 236
221 213 213 223 188 186 164 238 225 243 213 148 160 229 272 201 326 130 352 359 328 325 320 303 248 292 284 284 284 293 291 296 298 339 343 339 349 337 340 376 395 366 277 281 280 280 278 286 286 277 285 255 248 244
209 177 202 219 183 221 215 176 170 123 265 137 136 251 268 311 411 436 225 301 347 326 319 256 304 295 292 287 285 289 278 287 286 333 326 318 317 324 328 327 348 376 322 275 271 276 275 276 273 271 290 285 258 250
174 224 220 208 187 139 236 227 131 108 116 122 243 254 246 301 152 400 408 352 343 328 324 310 304 301 291 291 289 291 273 284 278 311 308 308 307 306 306 308 326 316 327 311 297 294 270 271 294 297 281 282 281 256
198 209 224 228 226 208 229 252 224 243 257 266 262 141 323 361 310 327 387 379 333 322 318 322 303 299 298 287 283 293 273 278 277 277 306 301 300 287 287 298 304 303 301 300 298 297 293 292 297 278 282 296 281 277
236 232 210 115 221 238 182 257 259 242 256 257 257 294 331 354 283 340 351 351 381 326 310 276 304 299 295 287 283 281 290 270 277 275 293 301 298 293 295 296 293 289 288 285 287 287 287 291 291 284 275 286 271 275
229 229 233 177 232 242 225 253 272 261 177 210 326 333 338 327 337 332 352 361 328 376 287 307 300 294 292 298 289 280 282 281 271 278 273 302 299 299 296 293 296 300 300 298 296 297 297 296 301 302 303 306 294 258
220 228 221 240 251 251 254 255 138 139 311 329 310 321 344 329 331 331 340 348 343 338 388 334 307 296 293 285 291 280 284 275 271 278 269 267 297 285 290 289 293 296 294 296 299 302 313 320 330 332 329 333 283 300
241 253 250 254 266 256 255 251 316 298 303 297 322 322 327 314 308 321 140 349 310 342 382 397 373 308 295 291 288 285 281 278 278 268 280 269 269 283 283 279 283 282 277 277 286 285 288 306 310 304 313 309 316 311
278 263 277 225 274 287 280 275 294 297 293 319 329 335 321 311 317 317 331 331 324 309 377 379 429 358 308 296 291 289 283 282 283 275 273 279 262 264 281 281 283 275 272 264 268 277 277 282 293 299 307 299 292 301
259 254 263 249 286 300 321 324 303 297 297 292 323 332 309 309 311 319 315 323 336 357 372 373 417 392 364 308 296 295 286 283 281 284 267 273 277 263 269 272 276 276 280 278 272 280 276 278 276 283 289 290 297 296
249 280 304 320 321 301 303 302 295 328 299 292 314 307 313 315 314 320 322 322 325 385 376 386 407 382 370 368 315 298 293 290 282 294 280 272 270 272 262 270 263 277 278 281 280 275 267 271 275 275 277 277 285 289
299 312 309 311 303 302 290 307 293 292 300 307 305 310 316 315 319 323 327 343 405 387 388 400 395 377 360 357 358 327 302 295 290 285 271 275 277 268 274 268 269 263 275 288 289 278 284 283 287 275 270 268 265 269
309 294 296 290 301 310 305 306 286 303 305 310 316 315 319 326 328 330 376 417 404 396 413 406 387 375 353 350 352 349 346 311 299 298 295 281 278 279 279 269 268 275 278 280 275 295 296 298 278 271 263 265 270 278
307 309 306 295 301 284 306 297 291 314 319 313 314 323 326 333 350 400 437 408 390 411 414 394 378 368 353 345 344 344 335 338 348 346 312 299 281 283 270 276 265 278 283 280 278 274 276 275 277 281 284 284 279 277
315 305 285 316 305 303 304 306 312 310 315 322 325 332 335 401 403 444 422 384 406 405 394 373 374 364 351 345 339 340 333 329 333 332 325 291 284 285 268 276 265 281 281 277 282 279 274 265 264 268 265 263 264 273
275 283 311 315 301 300 305 307 312 318 325 332 338 350 412 408 411 407 380 405 412 388 379 370 366 363 348 338 335 331 324 319 315 314 302 294 283 285 276 277 281 280 279 281 277 278 278 276 274 264 271 273 271 272
306 323 313 304 304 306 311 317 328 344 360 373 421 435 405 404 397 395 393 407 403 383 380 373 365 361 346 335 332 330 318 310 304 295 293 291 289 286 278 277 281 283 276 278 272 271 271 271 273 274 278 276 278 283
318 311 307 312 232 326 335 363 429 445 444 415 436 417 436 422 416 391 410 408 401 397 391 376 363 360 342 328 325 321 310 299 297 291 287 290 282 281 280 279 278 287 285 272 275 281 279 282 285 284 287 284 280 281
309 320 329 354 462 448 440 424 418 427 422 423 417 408 379 379 371 382 390 402 407 383 404 378 365 373 337 325 322 309 301 296 292 288 288 285 284 282 283 280 269 273 289 287 279 279 282 284 285 285 283 281 277 275
432 425 417 412 408 413 413 410 409 405 399 390 388 405 406 404 402 412 382 391 393 392 381 372 362 362 330 323 319 309 300 292 290 290 286 285 282 278 281 281 277 278 280 290 293 291 289 280 269 301 294 287 289 295
401 399 401 397 394 392 385 387 389 390 390 395 405 406 404 409 405 391 386 380 376 376 364 357 356 348 329 324 315 304 293 288 288 286 286 285 279 280 280 277 276 278 294 290 285 266 270 273 277 289 298 277 277 281
388 376 379 377 377 372 379 375 386 395 391 396 394 372 390 414 392 383 150 377 377 366 355 352 351 340 327 319 312 303 292 289 288 285 283 281 283 285 281 278 277 276 277 277 277 279 283 278 276 281 288 288 287 292
371 368 370 369 370 370 373 378 391 404 380 329 376 378 380 387 400 382 373 368 395 365 354 354 348 337 327 318 306 295 290 285 282 286 284 282 282 281 280 280 279 278 279 283 285 277 274 276 283 287 287 305 301 298

GFSWCAN_2pvu_pres_039.txt.gz
Presure
128 144 142 122 121 130 113 112 119 131 131 120 158 141 143 149 142 274 256 303 217 309 138 106 125 102 299 304 287 280 272 272 277 277 274 286 278 285 275 266 258 266 274 282 259 256 267 271 268 278 276 283 255 255
149 150 136 147 122 131 101 104 131 153 125 134 134 129 141 158 256 259 273 145 120 196 120 138 116 329 141 290 291 280 272 266 264 264 272 264 276 285 293 274 263 258 262 262 281 269 259 255 271 266 269 267 267 268
138 142 149 128 155 151 104 125 121 113 158 130 139 177 129 156 228 157 138 126 176 144 158 241 146 134 237 307 286 289 276 267 266 265 263 260 263 263 275 282 279 263 250 257 254 260 275 270 254 253 272 261 257 259
141 137 129 139 153 123 146 152 169 118 185 135 134 167 206 200 151 181 106 123 222 419 410 227 104 348 128 315 292 286 287 274 272 270 261 257 271 265 258 258 268 274 270 257 252 251 249 252 263 269 259 250 267 264
145 131 136 154 143 118 122 128 136 151 135 159 251 108 222 180 258 180 136 125 131 384 331 173 134 127 320 308 300 289 294 280 272 268 263 263 268 258 266 272 263 256 265 272 263 254 255 248 253 252 254 265 268 256
130 143 112 119 117 96 163 159 135 114 84 121 240 231 110 253 178 131 260 285 271 371 183 244 136 315 315 303 294 290 289 290 283 278 271 274 288 269 261 267 267 271 257 254 253 269 261 252 252 247 242 248 252 258
151 144 178 123 138 141 134 131 130 216 240 102 197 188 219 215 280 133 269 294 239 272 301 136 292 316 304 300 315 299 288 287 289 280 275 275 280 287 288 271 255 250 263 266 252 253 258 269 257 252 249 245 239 248
184 135 140 133 150 170 203 214 209 234 196 225 213 157 198 250 266 180 266 125 118 122 258 334 319 233 322 324 301 294 282 283 279 284 278 275 273 288 288 290 293 285 268 266 266 276 262 260 266 269 260 249 250 236
138 174 136 152 184 151 208 201 204 216 217 235 245 241 227 210 169 244 153 288 260 368 135 337 323 142 310 293 292 289 283 277 277 267 267 269 275 297 324 424 570 321 310 274 269 281 284 275 263 257 262 269 266 251
189 157 161 147 210 214 185 214 204 187 227 237 193 232 252 237 251 274 259 190 262 304 357 345 332 316 308 295 285 282 277 274 271 266 269 275 310 331 370 410 590 448 387 304 299 275 271 278 260 259 264 256 266 294
166 176 173 212 196 195 169 220 167 231 209 214 227 160 165 238 252 228 246 275 208 126 374 136 334 318 316 301 298 293 289 288 287 284 288 288 297 343 341 340 375 409 353 353 295 291 280 277 276 266 269 258 259 265
159 176 192 196 177 178 217 185 237 223 102 236 227 235 229 217 139 127 236 196 170 372 306 358 346 327 315 304 294 289 286 284 284 283 285 292 310 328 323 334 332 362 381 399 385 294 284 284 278 271 264 273 265 275
160 198 216 217 220 212 215 233 219 234 226 236 222 194 211 198 230 322 225 263 342 319 364 432 350 342 321 311 301 296 283 282 285 290 277 284 291 311 309 309 322 314 328 330 363 365 283 277 278 278 264 265 261 270
213 213 207 191 232 208 211 226 148 226 246 236 235 219 139 247 290 270 335 303 323 347 313 355 444 345 333 319 301 299 288 280 287 277 289 280 281 306 298 294 296 309 302 314 321 337 309 266 269 274 274 272 260 277
230 210 188 224 222 226 208 231 222 228 149 244 231 204 182 248 252 301 265 347 344 376 335 350 348 395 336 324 314 294 276 274 281 280 284 283 280 297 306 291 285 287 291 302 306 304 308 294 275 274 273 275 266 284
226 199 225 212 188 210 229 235 240 198 127 179 246 256 252 264 272 291 323 355 327 360 324 356 351 336 382 325 317 305 286 287 276 282 277 286 285 276 299 301 295 291 284 285 286 287 290 294 296 296 297 298 296 299
241 135 208 209 182 241 230 213 229 234 220 223 239 283 273 294 284 342 325 325 344 338 342 324 355 347 336 374 314 312 303 293 292 281 276 283 278 276 286 300 292 294 294 299 297 292 290 289 288 290 293 297 296 306
242 197 223 218 222 228 229 222 241 256 259 259 287 259 287 287 312 317 313 323 319 303 346 332 338 337 349 307 431 313 312 304 292 288 283 276 283 276 266 284 280 285 287 288 290 292 291 294 296 297 339 329 331 325
238 242 215 225 231 240 266 236 274 271 236 255 246 281 311 280 313 315 307 301 308 329 303 332 333 331 344 385 420 427 319 310 303 292 278 280 282 276 274 270 276 280 275 282 282 279 276 283 278 290 289 302 311 313
227 235 243 250 240 234 242 255 254 250 291 273 299 321 295 310 312 307 306 300 317 309 199 318 323 339 399 404 402 405 417 321 309 297 284 284 278 283 272 276 269 281 285 284 275 272 267 267 267 274 273 276 286 291
243 251 229 231 263 258 257 253 280 278 273 336 312 285 295 312 307 306 310 307 332 316 315 316 332 354 408 406 399 395 406 385 315 305 294 286 292 282 272 272 282 269 268 280 286 284 285 282 272 282 272 272 274 277
252 249 244 249 242 269 277 284 272 275 286 292 129 325 179 305 304 320 316 326 317 305 315 338 380 414 419 408 405 402 397 381 368 313 300 295 287 285 280 272 271 276 272 268 270 273 276 282 285 282 272 268 277 267
287 281 270 270 275 289 289 289 292 315 323 311 313 314 318 315 316 315 325 320 308 320 354 413 414 421 423 409 407 395 383 372 364 352 309 298 294 292 293 288 268 274 276 277 262 271 275 275 278 281 287 285 286 272
301 294 289 290 281 274 290 332 328 297 314 311 303 325 325 324 320 328 332 317 332 421 426 408 410 413 406 416 390 383 370 361 358 355 352 308 299 296 296 288 298 271 281 280 275 273 276 275 279 275 283 290 298 290
282 278 298 283 314 312 305 312 302 307 314 318 303 331 337 325 333 333 331 350 450 432 398 392 399 432 406 383 374 371 363 357 352 350 354 355 326 307 303 297 293 277 279 285 285 275 276 291 281 277 273 275 276 279
281 293 281 282 309 304 309 319 297 295 304 312 325 330 323 339 341 340 455 448 434 419 398 392 429 405 387 374 370 367 363 354 345 341 344 344 350 357 330 311 311 310 286 286 285 283 269 291 278 277 285 288 281 266
288 329 325 296 298 309 303 296 306 182 311 315 333 336 343 370 465 443 443 434 423 425 422 402 416 389 381 375 369 364 361 348 337 334 334 334 335 337 343 347 350 346 323 292 280 273 279 261 280 282 282 279 283 282
289 315 315 281 295 308 110 272 312 318 324 339 343 358 472 451 424 424 420 415 405 390 382 413 411 390 384 378 369 364 358 341 331 331 329 324 323 322 317 311 300 297 290 287 281 274 280 281 282 285 276 274 274 277
311 293 305 311 314 317 318 322 330 342 348 358 454 457 441 419 403 397 392 385 380 380 382 401 404 411 394 384 366 362 352 335 327 326 322 316 313 303 298 296 293 290 292 286 281 278 278 279 286 272 278 281 285 284
313 307 311 316 327 334 329 346 378 403 439 430 421 419 405 395 393 401 408 414 408 409 396 399 399 393 419 386 366 361 347 326 324 316 312 304 300 297 292 290 292 290 283 281 280 283 284 278 278 280 289 290 288 284
313 312 325 340 348 352 424 429 422 415 406 399 402 397 397 389 382 382 389 399 397 396 393 395 394 391 378 362 362 358 337 320 318 309 305 297 295 293 290 290 287 288 285 280 284 288 282 278 279 280 299 301 300 280
364 414 435 428 419 405 401 392 391 391 393 389 388 394 402 414 383 366 366 375 390 389 396 386 379 371 358 359 358 349 333 320 313 306 295 294 292 291 290 285 285 282 279 282 284 283 279 281 284 284 281 276 277 274
392 387 390 389 391 384 380 380 383 346 377 391 376 376 381 424 464 372 366 378 388 385 407 380 376 361 355 358 353 340 331 319 308 301 295 290 291 289 287 285 281 281 284 287 287 285 283 284 283 283 285 287 288 281

GFSWCAN_2pvu_pres_042.txt.gz
Presure
154 152 171 134 144 137 128 135 131 132 159 130 132 135 131 125 156 198 194 137 177 136 301 123 420 375 118 194 250 221 292 285 279 273 276 277 288 281 282 281 268 262 262 267 284 270 262 268 273 276 301 268 276 270
167 171 144 131 177 178 134 139 113 140 95 118 113 118 226 118 97 227 138 177 257 251 327 250 426 160 366 107 175 292 284 285 276 273 270 266 278 275 282 299 281 272 262 260 262 272 271 254 261 271 271 288 274 264
168 168 183 177 158 142 121 112 124 141 103 120 148 145 121 158 171 144 129 200 232 154 279 165 394 121 229 131 320 304 291 281 271 267 266 267 269 267 267 269 278 289 266 259 256 261 262 273 266 254 264 266 276 278
171 173 162 132 145 142 147 145 135 150 104 156 120 126 135 116 220 195 232 177 154 142 262 233 120 262 223 284 328 310 295 286 273 274 264 260 262 261 264 263 264 263 269 277 257 258 251 254 257 267 266 252 267 262
162 147 142 152 145 141 141 112 143 115 103 130 117 163 204 241 239 239 250 124 272 132 259 163 253 370 193 273 326 192 302 288 280 274 267 274 265 268 260 257 257 262 257 264 268 273 252 252 252 252 251 260 267 256
152 161 148 153 150 144 146 105 117 124 174 126 135 139 210 220 232 204 151 123 131 127 254 272 116 109 334 328 318 300 308 296 291 277 271 276 267 262 267 266 261 262 259 261 261 256 266 263 249 246 248 246 251 251
161 157 160 150 134 120 146 126 167 145 165 177 143 217 226 249 237 245 240 258 160 151 258 267 345 181 351 126 319 306 295 288 292 281 280 276 272 273 269 268 266 266 281 270 268 267 261 255 262 268 261 248 249 246
152 153 139 139 113 114 151 168 144 165 144 167 210 208 239 204 243 241 239 223 185 129 191 240 231 138 348 338 346 236 299 302 290 284 280 284 277 278 284 288 283 286 290 284 282 269 263 265 264 248 252 261 267 253
164 120 147 125 117 149 162 150 160 147 159 203 180 179 176 235 240 252 253 234 174 150 125 234 377 307 345 328 325 318 323 305 296 290 287 283 286 282 277 274 278 299 308 306 299 285 282 266 255 262 262 258 256 261
120 160 125 128 121 168 141 190 159 156 166 214 216 226 135 224 216 224 242 233 246 272 236 120 404 382 368 343 317 313 297 301 291 287 283 280 276 278 275 278 293 335 420 432 443 366 291 283 275 261 264 263 273 257
174 123 154 125 126 199 168 149 159 218 212 231 183 232 247 227 211 157 261 236 237 102 332 282 250 350 350 359 339 322 300 287 282 273 276 272 275 279 291 294 310 304 359 367 377 370 320 293 280 275 273 259 270 274
138 154 122 162 156 165 156 135 194 213 218 159 247 222 241 233 241 250 240 157 174 122 183 275 296 216 461 394 361 329 313 307 289 289 287 287 287 288 293 297 292 344 336 341 327 340 356 298 286 276 273 265 260 272
133 143 168 109 163 160 165 139 204 214 141 227 205 236 230 226 221 237 237 263 189 267 285 265 310 359 381 373 406 355 323 306 296 285 282 281 285 288 290 289 288 335 318 321 325 345 346 372 293 280 278 272 265 260
154 149 179 146 160 216 120 218 239 227 204 240 227 203 241 235 238 250 247 246 260 247 282 286 308 348 362 366 402 377 341 314 301 293 294 282 280 283 283 286 284 306 321 305 311 317 327 342 343 288 267 271 268 267
210 201 185 201 203 211 193 190 159 171 209 227 247 224 237 191 212 241 258 261 254 262 255 328 319 336 315 349 348 389 349 322 307 296 295 291 284 282 274 283 279 288 296 300 300 299 301 313 323 336 296 277 270 267
207 217 220 223 233 135 228 208 156 155 220 253 233 230 245 210 243 242 249 249 257 263 270 292 300 323 326 319 337 342 345 360 316 307 305 298 290 279 282 278 278 297 290 288 292 293 302 296 300 309 320 285 284 264
207 233 212 217 187 190 183 218 247 207 221 227 235 226 227 247 242 264 231 199 229 259 296 295 278 315 334 350 355 360 358 339 383 317 313 308 294 283 284 275 280 273 296 294 286 288 288 288 290 295 298 300 301 279
233 235 230 238 245 222 225 230 217 219 242 237 179 221 236 242 236 101 147 253 285 304 300 324 331 318 336 326 185 347 357 365 324 431 323 319 300 287 287 281 273 278 275 297 303 297 295 287 286 285 285 286 289 292
223 217 223 225 216 218 232 241 215 162 227 225 237 235 242 247 247 261 254 246 268 299 333 324 323 336 335 322 323 327 349 368 408 329 384 327 320 300 288 286 281 271 276 273 290 293 290 291 294 294 294 291 293 291
226 227 228 219 228 227 225 224 230 234 230 228 233 241 248 245 262 241 253 279 293 295 317 306 329 336 321 329 317 337 349 403 416 433 421 368 331 318 296 287 281 276 273 275 268 284 275 293 288 283 283 283 285 286
228 222 230 220 214 227 235 230 235 215 231 237 248 237 246 256 259 251 301 302 317 311 332 310 337 337 331 323 339 344 428 427 434 435 420 409 353 328 309 289 288 279 275 272 274 274 283 283 276 279 276 276 276 275
228 218 226 230 220 226 239 224 235 246 248 237 253 263 255 269 233 286 305 296 321 315 314 325 330 326 330 339 390 442 431 445 439 421 408 413 384 339 319 304 288 282 276 276 272 278 266 282 287 277 273 274 275 278
229 239 234 232 235 243 240 237 242 250 259 246 260 267 262 250 300 307 292 298 314 217 301 302 333 344 370 447 451 419 409 426 420 409 402 403 385 375 326 311 304 287 282 281 276 274 278 274 266 284 289 287 285 278
239 236 233 231 236 241 241 241 250 253 257 256 257 268 302 301 292 317 323 317 314 319 308 349 355 454 465 450 411 399 403 404 411 396 400 388 375 365 364 315 309 297 287 282 284 274 275 279 273 262 271 275 276 284
231 239 245 241 244 244 259 260 268 277 255 265 300 311 300 294 346 314 308 322 323 312 356 357 446 459 449 418 399 402 419 415 396 385 384 374 368 363 359 340 313 304 299 287 288 282 278 274 281 280 280 278 279 276
256 246 252 242 253 253 261 277 293 290 296 319 305 326 312 318 335 312 295 344 343 354 416 461 451 441 423 399 404 408 396 392 373 372 365 362 358 356 356 358 336 307 300 296 295 297 293 296 278 284 284 273 276 280
255 259 263 284 291 301 306 304 301 304 300 317 326 322 313 309 326 327 336 342 361 453 443 437 431 427 426 403 415 408 396 377 368 368 362 356 352 348 347 353 358 349 306 303 301 297 297 298 300 284 283 285 288 272
287 287 289 295 297 298 289 293 309 341 327 313 313 331 329 327 340 339 350 448 439 435 422 412 414 413 394 423 425 398 386 378 368 365 359 352 349 339 338 340 344 352 361 335 307 307 304 308 290 290 291 294 275 260
292 288 287 283 291 290 280 290 304 312 327 322 132 328 335 345 350 378 430 415 418 423 427 414 396 397 403 394 432 405 387 378 367 364 357 346 340 331 330 333 336 337 338 342 350 359 348 332 324 322 298 277 275 282
284 298 305 326 324 313 306 313 319 320 333 337 341 394 401 431 413 406 398 394 395 398 404 424 422 413 401 404 410 414 398 377 365 363 351 337 332 328 323 322 321 322 322 322 323 319 301 295 291 289 286 279 276 277
304 307 311 299 288 314 324 317 325 333 330 326 411 426 409 406 405 385 384 381 386 388 405 410 412 404 386 400 400 404 398 374 364 353 342 332 327 323 320 318 317 309 304 300 295 294 292 290 288 287 286 285 282 281
289 310 327 327 322 330 329 348 354 369 323 306 307 390 399 391 406 388 367 376 386 470 405 406 424 400 401 398 388 378 375 365 357 344 330 329 322 318 310 303 299 298 296 291 287 286 287 286 282 280 282 287 288 286
323 336 333 333 341 340 346 371 408 328 327 310 334 384 380 391 408 381 389 403 426 467 424 379 408 446 400 390 370 366 368 359 349 337 324 321 315 306 295 292 290 289 289 288 288 287 285 284 284 286 289 288 287 285

GFSWCAN_2pvu_pres_045.txt.gz
Presure
166 135 137 141 154 149 160 149 132 136 127 108 133 133 111 142 146 124 125 128 197 203 96 106 172 156 345 114 182 141 310 293 287 282 287 282 281 291 290 288 275 272 266 262 264 276 281 264 260 258 277 276 304 322
149 142 145 157 150 176 141 166 171 163 109 135 131 125 146 116 133 117 121 137 145 235 191 219 150 123 362 265 326 165 312 225 168 283 279 276 272 275 272 284 273 282 274 265 258 263 270 281 268 260 264 271 296 306
144 149 153 147 138 153 163 208 149 149 142 124 138 116 138 147 142 138 130 141 165 248 228 193 236 148 254 269 147 332 275 303 290 279 275 270 274 272 269 270 270 279 288 279 272 267 264 261 279 269 256 250 271 284
143 150 163 159 160 152 178 159 142 155 130 134 137 111 126 113 135 153 137 137 154 246 160 123 202 135 401 303 266 376 333 303 298 282 273 265 267 265 267 268 269 270 268 271 274 279 261 258 257 259 269 269 260 257
220 153 154 153 159 176 169 154 149 141 125 130 122 143 149 123 101 175 235 151 231 154 184 178 116 267 271 216 337 138 340 317 296 186 283 273 261 265 257 262 267 264 259 257 265 267 262 275 258 253 254 252 266 263
198 220 163 172 150 152 161 128 127 162 158 162 168 139 158 126 141 226 227 237 240 162 250 136 216 113 267 266 116 338 327 310 315 300 295 283 275 268 262 262 267 260 263 262 264 267 259 256 259 267 258 254 253 249
171 139 169 173 159 162 128 155 144 125 152 120 136 121 173 147 143 126 189 162 225 229 247 191 131 255 205 287 339 368 275 322 307 297 295 285 283 275 269 268 266 267 273 273 272 266 267 257 259 261 258 265 251 249
152 156 167 185 165 168 168 158 132 140 95 139 151 134 143 125 167 219 250 243 169 274 203 250 125 117 263 259 113 354 343 355 316 295 292 290 284 281 277 271 271 271 275 279 278 279 273 267 270 267 262 261 257 267
175 180 198 179 120 157 136 124 158 122 109 119 122 156 137 191 199 237 238 180 256 252 258 224 260 252 135 250 229 371 348 333 344 334 307 306 312 284 280 280 278 278 285 298 307 305 289 292 280 270 270 262 263 257
155 161 163 161 160 161 123 175 147 184 127 115 138 157 218 201 189 236 242 101 254 244 258 190 276 123 219 267 272 409 368 340 321 312 314 312 303 295 293 281 284 288 289 289 299 313 398 439 275 278 284 267 257 264
169 137 157 133 171 169 172 121 174 133 134 183 127 156 170 202 231 238 178 218 139 247 220 267 253 155 260 245 109 258 367 375 341 317 308 298 293 291 284 279 278 279 283 296 328 313 366 378 467 353 297 273 271 260
126 162 132 171 157 116 136 140 167 130 166 185 163 200 122 183 199 185 222 221 201 253 243 240 189 186 250 242 255 284 340 393 363 341 324 311 298 291 283 277 280 290 292 302 312 296 341 351 362 357 284 288 272 274
118 128 170 166 114 155 166 156 156 171 205 142 178 218 236 226 148 179 147 244 242 245 215 247 251 298 259 258 274 278 367 417 382 354 337 322 311 303 297 287 282 284 285 297 293 325 324 341 330 346 369 287 280 275
165 161 155 150 152 154 153 170 190 147 223 226 222 226 215 161 198 217 211 239 234 113 235 237 245 261 260 259 300 341 312 390 385 364 346 330 321 307 298 292 284 282 286 284 287 302 309 301 334 336 333 307 282 273
222 170 185 181 158 172 201 217 192 200 220 218 234 222 220 216 220 181 233 231 243 201 239 160 210 238 253 259 265 269 309 334 338 330 350 339 331 323 310 300 295 284 286 279 282 275 310 301 302 306 322 345 341 285
201 146 184 200 172 171 163 184 213 213 211 205 229 225 229 204 178 250 244 243 241 246 249 242 247 246 263 260 281 297 335 189 354 358 340 329 326 338 325 312 297 287 284 281 281 276 290 292 307 306 312 318 321 328
210 212 215 214 223 189 225 221 221 205 179 221 234 195 223 237 249 237 241 245 239 215 246 234 247 258 224 263 268 292 315 323 321 309 355 333 339 357 375 332 310 294 284 279 276 277 275 287 294 300 301 310 308 307
221 204 198 210 205 212 213 223 221 179 231 205 212 211 239 223 234 264 217 240 82 243 239 242 217 247 276 243 318 327 326 329 331 319 308 362 376 360 414 368 333 306 287 284 278 277 275 291 286 283 290 297 298 294
203 200 208 221 225 216 206 186 194 192 240 244 219 249 235 231 246 239 229 157 246 181 244 247 246 257 262 309 313 311 312 317 316 339 337 377 399 414 439 429 357 318 299 285 284 275 277 278 296 291 285 278 282 287
216 221 210 196 205 201 144 212 211 224 214 232 255 243 234 244 241 235 244 249 244 245 239 262 251 285 296 308 321 313 315 324 308 350 399 423 429 442 443 436 379 336 306 290 286 281 277 277 287 275 291 295 293 291
221 215 217 241 234 245 246 218 221 239 245 233 246 248 235 234 234 249 250 241 222 249 235 255 237 266 318 312 321 330 325 325 312 429 445 441 438 439 431 442 437 353 316 298 285 286 277 282 272 276 272 291 291 288
238 224 229 239 237 236 251 238 245 255 257 251 244 234 237 238 245 245 246 238 253 114 267 277 265 307 312 321 320 326 315 360 469 447 435 430 430 427 417 419 414 364 328 309 297 287 284 278 275 266 270 270 277 284
240 242 235 241 242 250 237 240 241 238 237 241 244 249 241 242 250 248 246 259 248 273 253 267 301 323 329 341 336 307 485 462 444 433 409 417 414 417 404 399 405 407 345 313 304 291 288 279 281 279 272 269 277 290
245 241 252 249 243 228 227 229 238 240 241 243 242 247 246 243 251 255 257 235 258 256 268 298 325 330 331 312 320 473 458 440 425 404 399 396 409 405 400 391 396 395 381 331 308 300 293 285 277 278 273 274 264 261
243 252 252 231 225 223 236 242 240 247 250 246 249 240 254 245 270 245 251 288 262 294 311 311 308 347 363 456 465 456 435 444 419 405 398 412 415 390 389 390 378 365 379 342 323 303 296 291 282 277 276 271 271 271
241 239 235 230 233 238 242 249 248 245 248 260 251 242 240 253 275 272 312 304 306 303 320 362 354 458 466 447 445 439 427 430 434 398 402 399 388 391 377 368 366 365 347 372 331 321 303 294 289 280 277 278 275 278
237 241 232 233 235 244 240 259 260 253 238 276 256 260 260 282 293 293 308 307 299 341 366 359 365 453 442 431 422 421 413 431 410 413 385 370 373 384 364 349 352 361 365 359 366 327 315 305 300 288 280 279 277 274
241 246 250 251 243 244 241 239 259 259 253 278 278 151 267 298 308 309 316 330 332 332 378 443 342 434 443 426 413 399 393 383 435 410 375 366 367 373 358 345 347 349 349 355 359 367 326 314 314 302 290 293 287 285
250 276 244 269 247 243 253 262 278 289 295 254 308 305 297 298 311 315 335 364 360 376 433 376 340 427 419 420 431 400 398 390 423 423 376 365 368 372 353 344 339 337 339 344 348 352 364 337 318 315 310 302 304 298
280 285 284 291 288 288 290 285 281 308 301 307 307 303 299 307 311 352 357 361 387 415 364 387 401 405 402 406 411 415 405 401 419 433 382 367 368 365 346 338 337 335 336 338 339 343 349 361 371 338 324 320 317 314
284 287 289 288 282 282 298 309 302 303 290 298 321 322 321 305 352 391 410 406 398 406 405 413 413 396 395 423 414 404 392 408 416 412 379 367 368 360 342 333 334 334 333 332 332 333 334 337 342 352 373 378 378 369
300 301 302 302 303 304 298 292 291 294 307 317 316 308 358 374 421 417 404 402 397 400 413 413 400 422 463 468 413 409 397 407 392 383 370 367 364 350 338 329 326 329 323 320 321 319 316 315 304 299 296 292 292 290
295 297 299 298 291 290 296 306 327 326 317 313 360 397 427 416 396 402 405 402 403 412 410 398 401 406 413 389 404 414 404 389 376 369 364 360 351 338 330 325 325 322 316 306 304 301 296 293 291 291 291 292 291 288

GFSWCAN_2pvu_pres_048.txt.gz
Presure
153 160 138 168 150 128 147 144 131 153 150 150 202 188 152 128 110 135 139 125 122 135 138 179 116 211 224 270 225 314 303 338 310 188 291 284 284 276 278 271 278 274 273 269 268 269 263 283 279 268 262 255 273 278
248 135 238 129 153 126 128 134 135 161 153 136 170 162 151 130 142 129 137 120 125 135 119 133 130 153 140 222 178 398 401 357 323 302 292 283 279 281 279 278 281 285 285 278 274 270 268 259 268 288 272 262 255 277
205 247 232 145 251 165 128 141 145 152 161 167 167 151 129 128 150 91 125 107 132 143 137 135 163 240 132 265 249 238 127 381 336 308 290 284 282 275 269 270 273 275 284 274 271 276 268 262 256 257 277 271 260 253
193 203 143 139 220 133 136 146 148 136 156 168 133 137 127 127 139 159 123 121 162 122 130 127 188 246 108 176 143 272 204 125 352 322 298 286 281 275 270 271 274 272 267 266 271 286 284 274 271 264 262 268 274 263
198 204 136 130 160 152 147 161 180 146 162 208 174 125 126 143 145 119 136 152 137 133 196 161 144 250 126 262 260 262 259 317 353 312 315 296 281 273 274 270 264 265 253 250 258 256 264 272 277 277 259 258 261 264
191 195 151 150 159 143 146 154 156 160 223 126 133 163 119 145 113 148 118 142 130 135 133 95 246 117 250 261 262 262 98 278 386 315 318 305 296 279 274 276 272 266 261 262 261 261 261 265 261 267 264 274 263 252
185 131 199 161 154 147 191 196 198 203 187 125 170 125 157 156 119 152 162 129 221 124 249 235 201 251 221 244 142 255 265 178 274 378 339 314 301 295 280 278 274 272 267 268 264 261 261 261 258 267 258 257 253 262
178 175 179 185 182 195 181 150 157 164 213 169 198 122 132 162 125 118 118 131 125 230 237 112 248 164 169 250 260 254 140 271 246 229 338 357 304 304 292 286 282 273 272 277 274 268 271 263 265 264 270 265 258 254
179 177 185 180 182 193 168 152 170 187 126 180 150 160 156 175 160 117 126 120 125 253 130 241 252 222 223 263 265 238 157 266 266 307 348 331 328 326 330 312 285 281 278 274 273 276 277 270 270 275 271 270 269 266
175 175 175 176 157 160 163 177 181 216 142 134 126 219 172 148 165 210 131 172 225 221 172 196 254 96 218 105 94 268 263 266 270 273 378 350 328 313 304 312 305 300 303 295 297 300 298 294 294 302 304 302 297 305
171 170 160 159 162 189 169 190 157 125 126 182 170 124 149 139 142 149 128 211 209 223 206 236 251 257 182 261 257 277 261 153 260 263 366 382 352 327 314 306 298 292 287 283 284 280 284 286 293 312 363 459 567 309
163 163 168 171 169 178 173 168 145 135 185 158 124 157 155 126 207 189 229 197 225 185 235 222 225 230 246 257 259 247 261 259 224 248 296 392 375 363 341 322 309 298 291 288 283 279 278 286 300 305 366 467 372 363
171 171 170 155 135 169 171 167 156 135 139 156 117 161 179 213 163 207 133 227 206 221 210 210 244 238 261 167 261 265 243 273 257 240 274 311 370 377 301 351 337 321 307 293 286 283 286 288 293 287 343 344 343 338
160 158 168 169 168 150 122 133 132 160 144 177 115 181 173 206 210 235 215 215 224 206 221 219 214 242 256 170 260 251 244 244 228 257 111 305 333 306 317 297 347 315 329 312 299 289 285 283 286 285 295 329 330 342
171 172 156 164 142 146 167 154 167 176 149 166 226 226 195 198 215 213 217 209 172 223 220 232 234 244 268 259 252 262 248 258 295 225 206 308 312 323 310 291 317 344 340 324 309 298 290 278 286 276 276 318 316 325
182 180 168 182 139 140 178 191 196 186 202 215 204 220 215 231 212 146 216 209 237 235 222 251 141 248 261 253 250 257 256 257 264 302 302 312 326 322 308 340 307 371 336 335 323 307 298 290 286 276 279 297 312 315
221 176 173 219 175 167 138 206 190 226 217 166 214 208 228 206 226 211 212 221 230 100 229 241 139 264 210 244 247 249 228 231 252 287 308 313 322 330 343 320 341 381 383 386 331 314 306 297 277 282 277 281 301 304
176 200 136 202 182 218 128 178 196 224 219 202 180 221 216 221 223 211 224 200 233 242 236 227 118 128 253 261 257 235 263 269 275 304 290 303 323 336 342 356 387 388 400 411 401 355 314 302 281 281 275 274 288 294
199 200 204 210 201 189 207 216 205 202 217 216 211 224 215 237 224 219 216 236 241 235 234 247 251 165 141 259 269 255 269 279 307 294 307 324 329 339 367 408 431 452 447 436 415 373 320 305 285 285 279 274 277 285
198 202 212 220 214 220 216 202 212 212 217 220 209 219 241 218 230 224 237 235 242 241 251 264 256 148 235 241 265 272 259 309 299 328 326 348 339 391 443 471 469 455 449 445 460 400 322 308 295 287 279 278 276 284
220 218 216 213 209 212 217 205 206 222 221 221 239 222 222 228 228 237 250 237 241 246 265 262 248 89 248 261 258 265 299 308 318 327 347 422 399 487 467 450 433 432 442 430 417 409 320 311 299 289 282 277 276 276
210 225 221 217 213 210 216 211 220 219 222 217 221 221 223 230 232 237 243 255 258 263 130 256 227 232 261 268 264 317 315 312 312 309 440 440 472 462 451 420 438 424 422 420 426 424 326 312 301 292 286 281 277 279
215 215 215 225 225 217 224 222 217 213 218 227 235 243 243 243 248 261 260 254 261 240 257 229 239 261 248 267 310 305 308 332 398 489 478 473 457 431 412 405 411 423 413 407 407 407 333 311 294 299 291 287 276 274
222 225 221 221 234 220 219 236 234 235 244 247 261 258 246 245 246 250 250 251 257 250 257 251 249 259 280 301 322 318 323 311 473 470 456 458 443 415 416 405 419 400 402 392 394 395 342 314 307 298 291 288 286 274
224 229 253 251 233 223 232 238 244 256 251 261 253 247 258 99 242 248 252 263 251 246 256 252 265 276 299 325 310 329 316 478 467 445 432 432 429 408 417 416 397 386 391 386 387 391 392 326 312 301 297 294 291 282
243 250 247 249 242 242 250 259 260 252 229 234 238 245 261 258 239 238 251 255 248 260 251 274 302 298 318 318 343 323 444 451 445 441 414 431 425 418 408 385 376 375 383 370 373 376 376 335 318 311 296 297 292 293
246 247 235 231 229 239 239 244 243 239 241 238 247 253 244 241 239 249 255 254 267 297 304 302 303 332 319 335 321 435 429 433 451 433 413 406 424 418 388 373 369 364 359 359 355 365 366 379 332 313 307 301 295 294
235 234 251 259 251 249 246 235 239 239 244 252 245 251 240 257 256 271 283 273 292 307 299 316 326 321 348 327 439 429 429 414 435 428 407 383 381 410 376 367 361 355 350 350 352 358 367 354 373 348 317 308 305 303
243 249 256 242 241 239 239 241 248 250 248 244 246 252 250 281 254 265 300 303 303 310 330 323 335 193 369 432 411 418 415 415 404 425 415 392 421 403 376 363 363 350 347 351 347 347 350 353 335 365 371 327 315 308
245 243 241 244 251 241 251 250 252 259 261 276 272 260 268 261 293 302 307 312 321 327 332 346 190 435 428 437 451 419 408 416 405 436 416 397 416 406 376 365 365 356 352 346 339 338 341 347 351 359 361 363 344 326
247 249 248 252 253 255 248 262 270 257 267 287 297 286 299 297 303 309 315 319 327 337 343 322 399 421 416 439 430 414 422 456 465 436 419 408 417 402 378 364 365 355 346 336 334 334 338 348 347 346 346 350 361 367
282 279 277 286 303 295 294 284 286 279 268 287 307 312 309 311 315 306 314 333 338 329 151 416 420 429 425 429 435 391 414 415 425 428 427 413 403 387 370 364 353 344 337 333 331 332 333 332 334 334 341 345 347 366
291 289 289 290 294 295 294 300 294 289 296 312 315 316 305 305 319 330 326 328 355 418 407 359 416 419 413 400 384 385 404 395 421 429 406 400 385 373 366 358 344 333 330 329 324 321 320 319 318 318 315 312 311 310

GFSWCAN_2pvu_pres_054.txt.gz
Presure
194 194 191 196 194 176 138 197 251 144 234 148 227 163 169 132 155 139 151 157 165 132 140 133 118 138 153 164 109 173 197 218 276 288 279 168 329 312 299 287 285 283 278 274 269 266 261 261 262 265 262 258 265 279
209 198 189 196 195 196 198 133 131 123 217 242 226 141 226 134 155 138 145 157 196 150 161 136 105 153 136 147 241 146 110 252 263 277 285 198 350 325 301 294 287 284 282 277 276 272 268 271 267 266 263 263 260 258
199 194 187 198 198 156 156 231 242 244 245 235 193 154 173 148 137 157 150 153 164 160 144 138 129 112 142 142 149 157 160 196 207 226 287 384 364 341 319 301 289 279 277 277 281 278 276 280 278 272 269 267 265 259
202 201 190 197 194 148 193 189 251 247 153 168 233 138 156 215 154 145 152 142 165 131 150 141 129 126 159 154 212 227 146 197 197 239 274 181 227 359 327 306 290 279 277 276 273 272 271 271 271 274 274 268 267 266
199 191 193 194 191 167 142 180 227 239 230 232 148 188 204 207 167 154 157 153 156 161 200 152 118 156 124 123 156 178 145 207 145 253 254 269 279 392 365 324 303 282 273 271 266 267 269 272 268 266 271 274 270 269
201 191 198 194 191 197 140 195 201 198 195 179 144 155 143 183 158 164 158 114 200 152 172 142 147 137 134 196 211 160 226 227 236 211 273 273 254 265 380 371 332 308 286 273 266 267 264 265 259 257 261 261 259 259
194 193 196 195 195 203 194 140 144 193 194 197 185 147 145 179 201 146 201 143 150 184 113 132 134 141 134 177 133 196 134 220 97 235 251 260 263 254 242 336 371 361 328 294 273 266 265 263 261 261 251 251 254 252
195 186 153 193 192 191 195 195 194 149 191 188 168 190 205 194 146 155 154 159 161 163 135 173 155 133 199 151 137 151 172 178 225 110 154 250 252 243 225 251 339 352 347 357 326 288 272 266 265 260 260 260 259 253
195 187 188 176 190 191 195 191 192 193 192 193 159 191 172 143 134 204 192 142 174 141 153 131 123 170 150 221 177 209 104 234 217 225 256 258 241 259 179 247 289 352 375 348 332 335 332 288 277 272 268 263 263 262
193 199 194 196 194 192 185 193 137 184 193 192 197 165 206 157 187 184 160 154 120 158 149 148 125 119 135 222 165 232 166 241 237 231 231 243 251 244 241 172 233 185 321 321 360 351 323 313 315 317 277 277 275 276
189 195 199 153 192 187 185 183 182 148 195 189 192 162 184 190 193 150 173 143 156 150 133 215 201 173 169 143 223 139 222 213 233 244 241 261 243 134 229 262 151 325 337 325 322 321 302 316 325 317 310 304 297 285
167 182 189 188 187 185 189 180 163 184 178 152 188 185 178 179 151 161 136 175 164 144 147 168 179 128 135 165 181 226 228 234 228 224 252 260 268 181 241 250 263 283 326 336 321 333 314 302 313 310 322 339 309 302
192 171 188 188 190 184 188 191 189 184 189 190 174 171 186 172 166 150 159 134 173 170 153 153 125 201 214 155 152 207 227 221 237 236 227 253 253 241 246 254 270 284 317 322 318 322 319 317 295 319 309 314 347 322
186 189 192 192 190 191 193 191 186 185 183 167 189 189 168 163 143 140 164 177 138 129 125 129 235 213 131 230 230 213 231 211 211 233 249 265 255 257 238 258 231 263 311 311 310 309 318 320 322 318 350 294 303 324
185 184 183 176 184 185 187 186 178 188 185 189 155 161 176 172 179 183 170 146 132 169 179 232 194 217 228 180 220 226 85 225 239 223 251 247 243 248 264 262 253 273 311 307 304 309 312 318 336 368 370 376 374 302
171 180 162 172 183 189 174 186 179 177 163 186 150 172 174 149 137 166 179 196 126 164 220 219 229 190 227 134 159 226 233 223 245 236 262 242 237 241 246 250 267 300 315 312 318 314 328 370 406 419 437 426 379 387
159 169 176 177 174 155 166 154 154 168 153 187 165 176 155 137 179 146 140 210 200 225 224 209 215 226 230 183 216 231 234 221 235 220 237 246 281 258 263 264 284 309 317 323 324 337 474 485 473 473 461 452 440 425
169 164 170 165 164 177 152 156 162 156 143 173 168 141 170 149 185 167 213 133 230 224 190 228 220 230 222 206 218 227 220 234 223 246 261 282 259 247 264 295 313 317 324 329 355 499 484 476 471 465 466 474 475 424
172 166 165 170 164 168 171 154 177 190 191 179 155 198 186 205 201 211 166 208 218 223 230 218 232 221 219 220 232 214 227 218 240 259 262 246 266 271 254 323 321 331 334 354 491 476 470 447 444 435 438 446 460 468
170 167 161 161 173 139 165 167 176 184 196 169 172 107 216 213 207 217 214 196 203 225 215 223 228 223 222 230 220 224 233 236 257 252 166 259 262 292 331 322 341 337 342 481 474 463 437 428 430 426 421 416 427 457
185 172 206 171 180 125 170 178 205 206 179 218 209 212 186 221 192 209 217 210 222 222 225 225 219 227 232 230 226 222 240 237 250 263 259 261 264 333 332 354 340 347 481 471 472 442 421 428 425 412 413 429 435 407
195 180 180 178 194 172 200 185 207 201 191 214 188 213 203 208 204 213 210 220 222 232 151 210 223 216 235 227 225 233 236 255 255 268 265 273 333 344 287 338 343 467 453 443 442 426 411 414 418 410 416 422 415 392
213 201 185 186 206 171 194 222 220 203 213 178 221 212 181 212 223 215 214 223 225 226 231 227 232 234 220 225 241 239 252 275 263 260 232 305 341 341 349 358 454 462 445 441 427 414 413 428 419 414 416 409 390 377
172 192 214 213 207 201 173 214 181 193 205 200 207 157 207 232 232 220 221 231 227 233 229 228 235 219 230 237 246 245 266 264 262 146 251 332 340 341 357 450 436 450 434 446 430 415 410 413 404 407 413 395 391 379
214 195 209 204 198 199 224 218 209 216 220 221 225 209 220 220 225 228 218 230 230 224 234 244 225 223 248 242 264 272 264 250 278 212 324 331 337 341 451 447 424 429 426 442 427 411 397 398 393 392 392 395 399 378
198 208 206 200 205 216 210 213 204 217 216 211 213 221 222 226 222 227 228 235 232 233 245 217 230 235 254 285 255 261 209 287 334 285 329 313 341 366 450 467 440 415 407 412 428 392 384 385 387 386 386 387 389 381
207 207 207 209 214 214 216 218 218 221 216 209 223 221 229 230 219 234 233 237 239 236 234 241 244 269 150 251 264 277 296 334 277 338 333 342 348 433 429 449 423 427 402 439 391 395 374 374 372 376 376 377 379 377
216 211 216 211 212 226 216 223 217 218 218 217 220 229 226 232 245 234 231 237 244 247 236 250 252 266 253 266 277 292 322 281 232 332 346 324 432 416 424 455 428 441 432 421 377 393 372 363 362 367 372 361 368 375
212 210 213 217 220 222 221 226 224 220 220 222 224 224 227 231 240 237 235 233 250 241 251 293 270 264 276 280 332 337 346 339 329 345 414 442 435 413 410 406 419 477 447 405 377 389 368 362 354 353 358 361 367 366
217 223 224 226 224 220 223 229 232 234 226 227 230 221 239 246 255 241 240 242 255 289 268 263 265 275 287 334 345 154 330 335 349 409 445 451 443 416 411 408 421 470 444 400 378 367 377 363 352 348 350 350 360 366
228 224 225 229 223 223 224 228 228 234 226 235 242 244 240 239 247 250 264 285 285 276 264 271 282 319 201 341 340 334 341 360 473 450 457 410 419 412 443 427 428 435 440 398 380 367 365 375 359 354 347 346 346 356
236 231 235 235 232 236 231 228 234 241 236 240 235 246 245 254 287 290 252 262 277 285 287 307 335 331 341 353 339 351 475 474 460 403 398 411 415 407 441 421 429 433 441 407 380 372 375 374 362 345 340 341 345 346
230 231 234 233 233 233 238 238 232 241 266 244 253 279 292 285 261 273 276 280 284 300 314 332 339 344 341 351 406 503 495 489 457 461 463 458 453 431 424 423 441 434 415 385 378 376 369 349 341 338 339 341 343 347

GFSWCAN_2pvu_pres_057.txt.gz
Presure
206 190 142 167 202 254 127 171 202 226 196 233 166 220 127 192 200 172 195 159 150 152 148 158 132 145 134 148 160 153 168 118 153 207 186 261 267 357 288 309 295 290 284 280 275 267 265 264 263 259 260 258 256 255
217 179 210 198 235 196 193 186 162 205 212 227 201 241 151 231 151 158 165 158 137 148 140 160 151 124 129 129 116 137 212 187 127 157 234 123 167 311 241 330 310 298 290 285 280 278 275 272 266 265 262 263 261 261
173 177 201 200 209 193 194 138 204 201 120 124 128 159 224 210 197 140 146 159 155 150 115 155 139 158 117 113 112 139 123 110 125 142 150 232 282 230 176 323 338 315 293 286 282 277 274 273 272 269 267 262 266 266
165 170 201 204 203 193 196 195 201 202 240 243 230 233 228 220 230 138 187 144 157 151 127 158 166 134 114 173 171 150 150 172 181 225 178 173 265 258 282 268 281 299 316 296 287 279 277 277 278 273 269 269 272 274
169 204 200 232 199 195 185 178 202 186 209 236 236 236 226 170 198 204 149 158 189 208 152 142 123 139 126 130 146 141 159 205 152 231 182 162 245 173 264 251 262 305 347 313 298 288 279 278 272 263 262 268 265 269
193 216 203 209 202 196 199 195 207 204 241 242 241 231 224 147 200 151 187 149 165 192 142 146 189 134 180 166 141 144 160 148 137 151 156 201 223 249 266 113 307 112 266 282 330 311 292 283 274 271 261 260 263 263
164 189 188 198 198 204 194 197 194 201 236 227 202 224 200 201 185 156 158 195 180 147 150 150 150 135 137 149 144 129 143 147 215 144 176 187 101 244 262 215 258 269 253 251 257 243 324 300 285 277 273 265 259 259
172 221 176 201 196 189 192 195 193 198 163 137 160 193 202 197 196 200 185 190 138 150 178 186 150 182 157 157 136 141 172 156 98 179 188 168 222 107 237 229 268 211 234 267 196 283 345 344 329 294 285 279 272 265
173 195 186 202 205 193 196 198 185 200 192 198 199 142 190 190 184 183 145 136 129 179 183 156 157 175 162 147 128 139 160 190 227 106 137 204 219 109 164 233 258 241 264 274 265 301 344 359 343 325 316 288 282 278
187 202 207 194 201 189 194 200 191 196 195 197 202 182 197 143 203 202 202 172 163 160 142 160 180 158 147 176 174 156 179 190 217 218 227 236 219 243 186 228 232 247 255 265 266 329 239 305 321 310 336 334 312 310
202 198 192 195 195 189 188 199 196 196 175 193 193 196 195 196 186 170 198 185 187 194 150 180 156 147 110 135 143 137 114 232 176 210 229 235 245 237 149 235 223 210 242 278 253 302 326 331 297 291 287 305 315 325
182 189 189 191 195 162 193 194 192 198 198 195 192 190 171 149 204 197 202 165 147 149 175 153 160 122 127 171 220 224 140 164 231 187 237 222 217 229 232 234 246 225 257 260 268 279 310 305 320 329 315 290 287 285
172 190 200 198 193 156 183 195 191 137 190 186 149 188 184 191 191 193 201 160 171 157 119 134 132 167 205 145 200 191 156 227 234 228 238 234 221 228 249 226 229 272 255 261 247 306 311 311 312 311 316 323 318 322
180 194 184 201 194 191 194 192 193 188 185 183 188 192 188 189 191 185 182 175 154 150 157 138 166 183 218 207 218 217 218 221 232 233 240 234 216 235 235 252 230 261 256 237 282 312 310 303 311 312 324 327 324 332
170 200 181 193 194 199 182 192 193 192 189 181 184 187 191 192 187 153 179 178 156 144 208 141 133 146 183 167 210 168 227 231 224 232 216 216 218 226 220 237 228 261 256 277 283 320 312 314 325 328 336 348 403 443
176 182 190 197 201 199 190 187 187 186 186 187 189 191 192 189 156 135 151 166 151 159 147 184 175 216 205 179 211 219 233 223 234 222 221 228 236 215 230 235 249 259 269 313 322 326 328 328 338 356 473 513 501 492
169 187 191 194 176 193 186 190 175 186 187 180 178 189 193 147 192 178 150 168 160 117 124 214 186 159 192 229 184 228 233 222 222 221 222 214 224 219 244 247 255 253 290 345 328 322 332 333 431 499 497 472 457 453
160 163 175 195 164 169 173 171 176 169 177 177 163 156 145 169 171 143 156 158 145 188 198 194 191 217 224 219 224 232 218 238 231 241 220 217 223 237 232 258 260 257 311 330 328 329 440 505 480 492 460 440 432 430
157 161 159 152 180 170 163 169 168 178 169 179 136 156 174 173 170 153 167 163 190 172 181 176 195 221 230 219 222 228 218 237 173 230 233 228 215 221 251 272 260 287 332 339 341 490 481 479 460 455 433 429 424 420
160 161 171 165 167 164 162 161 169 171 152 135 177 177 157 193 163 162 180 203 193 205 158 216 213 214 222 225 213 230 230 231 230 227 225 197 227 240 240 256 266 319 356 352 363 471 462 456 444 430 432 428 422 405
155 162 165 164 163 161 169 159 176 199 180 159 175 153 186 177 201 187 184 149 191 187 155 212 230 216 225 231 229 237 244 231 222 227 207 242 241 207 261 266 309 360 348 358 450 454 448 444 433 421 411 425 422 411
184 207 175 196 189 146 177 172 176 187 184 174 173 177 115 190 181 206 218 197 218 212 230 220 223 229 228 212 240 222 229 236 241 237 231 212 249 267 261 269 359 344 352 447 444 440 437 439 429 417 414 429 412 418
189 189 196 158 153 185 173 195 173 196 197 198 211 210 189 211 219 166 196 203 221 212 226 216 225 224 214 236 232 245 227 226 239 211 241 249 263 291 267 346 348 350 379 445 450 433 433 435 428 416 418 408 407 411
158 200 201 209 211 180 159 186 192 216 215 197 166 207 148 212 210 159 200 210 216 220 226 227 230 229 244 237 222 224 217 234 219 268 237 271 265 289 349 352 353 380 452 427 458 432 430 455 415 408 403 395 403 400
198 203 161 128 154 213 210 166 218 197 205 189 133 206 213 197 220 200 220 221 206 224 223 236 236 237 243 229 252 229 252 216 250 255 272 232 290 279 356 355 354 452 447 429 442 427 421 440 407 401 393 389 391 403
208 201 207 208 203 207 179 164 197 188 213 200 210 214 212 203 220 203 212 219 218 225 227 232 247 237 231 221 241 242 200 236 227 260 263 294 317 352 361 355 460 436 445 433 429 424 422 435 400 396 388 383 381 392
211 203 202 209 211 212 216 214 216 217 209 213 216 223 220 211 212 218 220 224 225 226 241 230 235 223 231 235 226 230 245 227 282 266 259 313 338 355 361 446 459 445 459 444 409 425 447 436 394 394 376 376 383 385
208 202 210 204 208 211 208 212 216 216 209 210 212 219 220 221 227 217 219 230 233 213 225 240 238 229 233 251 228 213 200 292 271 246 313 344 354 363 454 466 442 451 404 426 420 447 476 417 390 384 374 372 371 369
213 204 212 211 211 212 219 217 215 222 222 210 221 227 221 212 230 232 223 223 223 238 239 229 236 247 213 217 211 252 277 292 308 317 345 365 359 449 484 447 450 394 396 426 432 464 450 402 388 373 366 360 358 365
211 216 208 204 212 213 217 224 221 224 224 225 226 222 223 225 233 239 238 239 237 237 240 226 219 232 233 220 273 289 299 314 321 353 375 417 495 500 483 472 404 410 406 427 428 455 429 386 390 367 361 356 351 349
220 221 221 220 222 222 223 215 220 219 215 224 225 226 235 231 227 238 237 234 229 231 212 218 231 228 245 291 305 302 313 322 370 377 493 512 504 480 457 436 444 427 424 430 420 453 419 389 384 378 360 359 358 353
230 230 229 211 220 222 225 224 224 228 224 228 213 222 231 235 241 242 233 241 223 214 216 247 242 251 299 294 309 313 341 373 518 508 477 464 464 476 464 514 478 435 426 428 427 450 415 388 378 374 382 369 360 351
226 227 229 228 227 227 224 222 228 223 229 230 233 234 235 241 246 215 215 215 232 249 241 249 287 296 308 312 320 363 408 503 484 477 492 524 439 529 536 527 447 438 444 438 433 436 405 390 382 377 369 348 345 344

GFSWCAN_2pvu_pres_060.txt.gz
Presure
257 200 270 218 178 174 189 167 209 208 173 215 179 219 175 242 200 173 223 229 157 182 218 149 138 143 160 144 160 132 191 179 224 139 150 138 235 236 262 265 214 328 323 211 298 290 285 281 278 273 267 264 257 253
257 250 246 240 224 167 173 222 217 217 249 205 119 237 144 127 225 228 215 227 159 178 210 159 115 152 137 160 132 106 160 107 164 163 201 157 175 236 247 243 263 261 294 288 327 310 299 291 282 279 273 271 268 264
252 258 146 254 173 207 191 210 214 214 206 151 229 239 218 134 231 219 216 221 160 138 156 165 145 130 145 123 122 106 162 128 141 152 138 208 121 249 227 233 240 265 280 294 349 342 322 306 293 283 276 278 278 278
258 263 264 216 182 182 214 238 155 212 126 216 191 233 228 237 183 222 224 226 180 154 161 169 129 167 149 132 166 142 133 165 178 164 158 141 187 167 232 228 233 252 247 276 272 263 357 336 157 292 283 274 272 272
260 248 233 170 171 194 179 195 223 136 205 200 212 231 242 222 225 220 225 202 147 174 154 155 151 179 163 133 154 124 129 176 170 148 144 170 150 182 238 235 237 115 205 240 273 260 304 354 154 312 291 279 273 272
243 263 227 183 177 214 182 204 209 209 193 206 173 238 227 225 224 229 201 142 159 145 203 174 159 194 140 141 177 135 145 148 165 219 169 143 152 239 225 226 127 145 174 241 255 273 266 336 345 318 320 298 281 272
249 162 182 176 182 217 213 200 128 207 192 206 232 219 236 230 235 230 204 201 193 191 190 199 168 156 134 199 159 136 125 173 158 149 157 125 137 101 245 222 218 203 188 243 254 273 261 300 341 312 348 330 306 288
239 215 208 187 185 183 212 191 209 197 203 211 168 249 237 232 231 202 198 199 192 164 156 183 132 187 182 153 148 144 162 140 180 118 231 231 197 168 225 194 185 231 226 199 246 269 266 246 308 334 339 352 344 336
223 177 160 198 184 184 232 191 209 192 206 204 141 244 236 208 202 192 202 195 198 125 204 146 176 186 169 137 146 157 125 226 134 149 103 143 205 220 229 222 229 243 184 185 242 224 185 257 302 312 225 307 299 302
162 212 186 174 183 199 182 199 211 198 202 196 203 198 208 206 134 208 203 170 181 197 196 186 191 168 172 143 135 156 194 135 151 144 150 190 230 224 242 211 113 242 215 226 228 205 197 257 273 321 315 309 303 292
189 205 194 166 169 217 180 182 207 198 193 197 198 199 193 205 210 203 198 200 185 177 200 188 175 159 144 169 157 138 148 159 145 105 182 146 229 232 237 213 237 216 210 222 218 176 255 254 276 317 326 313 309 320
174 177 163 164 166 212 186 201 208 185 200 201 193 202 195 199 204 194 205 201 151 201 189 183 164 178 170 152 128 184 165 181 156 199 219 223 224 226 223 237 172 243 242 186 221 260 254 250 262 308 324 328 319 302
171 188 187 164 173 207 181 192 214 201 202 198 190 195 197 135 139 190 149 170 192 190 193 175 173 156 149 150 149 130 168 210 215 232 224 184 213 234 223 224 210 222 226 249 234 250 264 273 272 310 331 320 322 319
170 187 208 208 177 202 182 181 200 191 141 200 196 126 191 198 191 193 189 189 194 195 181 179 181 155 133 151 148 145 151 155 212 216 216 228 231 222 232 218 233 207 210 247 254 266 265 328 329 328 336 327 328 333
173 184 160 207 177 203 183 201 188 176 191 191 189 141 188 196 180 193 192 189 187 204 152 137 148 147 150 142 196 137 209 183 137 225 209 228 238 237 228 221 222 228 220 223 239 279 256 334 340 340 329 327 371 408
193 161 176 191 172 201 183 201 189 195 159 190 189 188 191 189 199 197 189 189 186 181 150 145 162 156 125 163 164 163 167 131 175 181 213 233 229 222 237 236 197 233 245 235 260 275 275 343 337 334 342 427 506 495
170 164 166 172 184 199 198 172 190 189 178 185 188 186 188 188 191 193 194 159 191 152 180 150 146 149 150 172 183 229 211 217 234 214 236 220 245 227 223 201 237 209 225 263 248 281 330 342 337 414 498 500 476 464
164 171 167 165 170 164 160 182 194 199 165 191 182 188 195 198 189 160 154 174 147 163 167 143 157 199 145 159 161 153 222 224 223 234 222 226 251 216 232 208 232 234 236 246 271 290 349 352 450 486 472 463 449 439
164 162 161 159 160 175 196 194 179 185 186 188 193 185 179 182 187 159 156 157 156 149 161 182 167 164 149 156 232 201 236 227 224 235 244 221 230 214 219 240 222 226 226 266 281 341 347 417 485 460 456 440 435 423
217 183 165 165 170 166 174 191 179 184 194 182 173 168 178 175 143 128 154 156 156 133 178 190 175 214 173 210 212 223 233 225 234 226 212 252 213 232 234 220 229 247 244 259 293 350 397 464 461 449 437 438 425 418
187 163 199 168 159 166 168 163 151 165 169 163 166 170 133 177 151 174 135 147 153 176 175 207 133 203 214 232 204 235 211 235 236 223 252 204 223 210 237 246 233 263 269 263 355 361 475 446 464 443 432 442 421 418
166 161 171 170 152 154 153 159 167 168 169 174 161 141 176 142 132 143 202 124 197 176 215 156 196 220 222 202 228 219 218 222 238 228 243 221 202 237 238 228 260 267 269 312 361 450 470 443 433 443 419 445 420 411
144 165 176 155 156 160 160 167 168 183 156 166 182 189 199 151 197 190 149 199 182 176 154 194 170 226 209 227 231 220 230 236 225 234 227 241 230 241 227 254 263 260 313 363 379 461 457 448 433 444 444 424 411 400
178 175 203 193 182 181 150 191 181 183 168 176 199 205 188 179 205 213 185 160 193 203 223 209 219 208 221 233 219 235 227 231 204 207 245 217 222 225 251 268 250 283 360 381 455 465 454 452 432 423 450 419 401 396
195 196 181 177 178 180 187 184 166 193 197 182 189 161 198 213 195 204 198 185 220 227 220 218 225 228 231 220 209 222 240 237 205 249 223 248 232 251 259 257 265 283 391 465 457 466 452 443 409 417 448 413 394 392
209 212 215 207 179 192 196 205 213 193 206 164 173 196 119 146 208 210 207 160 200 215 214 229 217 228 226 233 237 242 227 213 228 228 241 233 249 256 262 270 276 407 470 474 467 454 442 406 410 421 461 413 389 387
201 217 216 208 202 208 213 207 209 211 214 210 208 211 211 214 222 187 216 224 217 221 222 213 234 225 235 231 237 231 221 211 231 242 241 248 253 262 271 276 450 487 488 475 478 461 409 407 429 467 460 406 383 380
193 210 211 211 214 216 218 214 215 207 214 209 201 199 217 187 212 212 225 212 221 221 225 234 239 214 241 234 226 215 212 217 245 242 258 249 260 274 278 500 506 503 498 496 495 481 421 425 439 470 413 397 376 374
201 206 214 210 218 219 219 219 211 213 214 224 225 221 214 227 225 215 221 214 227 228 230 227 214 236 242 226 235 234 214 250 242 256 248 268 330 293 540 524 474 461 453 447 462 443 427 437 452 442 403 387 373 366
205 216 215 212 214 218 222 224 227 215 215 227 225 224 221 211 221 226 221 224 237 224 222 232 241 237 245 227 236 231 251 233 256 254 265 291 391 503 491 488 489 487 427 452 459 447 437 432 451 411 401 379 368 363
221 213 214 218 219 220 224 223 217 216 217 225 212 224 227 222 227 227 224 212 223 219 236 238 245 230 232 242 245 229 243 259 254 258 278 382 506 502 523 532 534 532 532 541 476 438 436 427 454 406 397 384 371 363
224 225 222 221 222 224 225 225 225 224 223 222 219 204 224 223 217 233 237 232 233 238 235 231 233 244 247 248 238 247 254 265 270 301 412 482 547 556 558 478 462 457 455 447 444 445 440 448 451 412 389 398 375 370
230 199 219 226 224 228 223 226 225 223 227 225 226 231 228 241 237 223 233 237 224 229 237 246 248 247 249 246 260 263 254 316 340 416 484 484 473 476 468 445 428 420 414 412 409 409 415 432 442 406 399 390 390 392

GFSWCAN_2pvu_pres_066.txt.gz
Presure
474 506 350 272 266 245 243 233 269 247 239 252 193 170 174 217 221 186 126 135 135 132 229 201 205 143 197 129 201 158 170 149 196 132 136 162 142 159 131 145 213 233 201 235 225 182 241 153 261 255 212 268 320 299
492 368 188 271 262 263 251 250 255 250 240 166 232 177 237 147 129 141 152 126 127 214 160 212 205 142 143 186 181 159 150 145 182 230 132 157 148 158 161 118 97 225 214 167 224 222 257 207 246 238 273 276 315 325
404 352 283 249 271 239 244 233 249 238 247 203 214 179 172 209 132 155 213 131 218 138 224 210 215 218 143 175 157 142 194 184 145 171 119 157 124 137 151 160 158 123 219 231 229 223 227 145 120 259 262 287 270 343
433 305 248 272 247 267 217 243 245 151 211 226 213 207 181 198 238 183 224 224 218 221 224 207 205 201 184 177 192 187 167 128 159 163 143 157 168 134 150 148 157 156 212 219 217 238 237 251 246 234 250 261 252 270
361 298 255 266 234 246 218 254 242 207 248 208 189 202 197 224 225 216 163 218 174 166 223 205 164 202 144 206 188 201 137 163 170 164 121 111 214 175 144 107 230 202 244 245 133 222 209 214 234 252 256 248 261 217
327 273 253 243 254 241 255 241 164 230 215 169 232 217 183 237 129 127 135 133 216 224 218 178 203 142 159 197 213 176 190 178 122 169 133 164 169 105 174 141 126 241 219 234 234 218 223 206 228 250 248 244 260 278
304 280 260 152 239 193 238 243 230 200 206 176 204 178 231 204 240 233 162 222 225 223 215 142 198 192 199 152 144 205 142 174 161 169 164 108 151 224 151 208 161 226 214 235 228 221 219 218 221 246 248 249 261 268
303 252 250 271 217 242 205 245 206 198 188 169 169 184 248 222 214 225 126 125 211 220 215 187 197 194 194 161 130 192 166 197 130 127 148 135 170 170 151 157 160 226 238 236 227 221 208 205 225 252 195 278 257 259
250 265 257 259 255 235 218 210 173 193 221 190 196 195 251 234 227 233 227 134 225 227 197 206 194 198 198 194 137 193 186 152 138 165 140 171 166 122 174 170 191 171 221 211 215 212 220 211 251 251 239 254 249 268
262 237 246 239 158 213 243 235 210 215 213 230 209 229 240 224 194 230 224 225 228 215 200 196 203 193 196 197 182 203 198 180 158 156 142 171 146 220 143 155 213 183 230 226 221 218 201 245 241 229 247 255 252 271
270 221 205 160 254 236 187 206 177 141 199 168 222 227 225 207 233 234 224 187 192 212 203 194 190 192 194 189 203 185 199 150 153 186 151 160 155 148 167 156 210 223 225 220 222 213 223 225 243 255 250 258 268 242
258 257 265 212 256 235 235 234 184 125 194 214 178 206 205 185 237 131 227 232 236 169 179 187 203 189 189 186 195 178 181 161 153 167 140 181 141 223 205 173 135 228 224 217 223 231 218 203 246 252 256 256 269 277
269 241 250 248 237 242 165 180 216 197 184 147 212 197 138 242 241 234 228 138 205 206 193 202 191 190 157 183 182 175 168 142 149 132 147 163 206 170 149 220 195 224 231 218 228 228 219 237 249 245 255 261 277 320
215 253 246 183 208 223 230 184 180 171 169 175 191 187 178 214 239 240 240 200 201 190 191 189 188 188 179 189 169 168 156 148 144 138 147 190 200 152 171 214 200 224 214 231 205 214 232 226 243 259 249 261 313 344
227 265 163 252 177 238 226 190 172 177 194 220 200 191 201 219 227 235 198 197 197 194 192 192 181 179 192 184 176 157 154 150 140 154 172 137 161 214 215 211 228 219 234 223 240 214 237 247 247 250 262 250 316 357
214 159 163 170 209 229 189 171 214 187 214 218 207 209 196 199 207 194 200 199 195 193 175 191 178 189 179 168 157 150 149 191 185 183 139 168 178 149 220 214 226 232 231 211 237 238 243 250 231 253 265 280 354 365
261 260 169 256 189 237 186 173 214 207 196 207 203 206 195 185 200 198 181 188 200 188 191 175 193 165 157 165 165 151 142 132 155 150 142 201 212 200 221 214 233 228 222 210 250 230 250 256 252 265 267 306 363 382
217 160 231 241 166 214 209 184 186 169 200 184 180 211 187 184 169 206 200 197 196 198 188 181 175 155 155 164 159 182 142 137 158 147 162 208 223 201 225 226 223 232 243 210 232 249 251 238 271 271 288 360 382 438
254 197 216 235 166 205 171 168 174 210 188 165 182 183 185 184 202 183 189 187 193 175 196 167 185 154 147 172 170 146 136 191 172 207 203 154 225 223 229 241 231 233 220 245 226 248 246 250 263 269 357 375 455 460
247 254 230 182 168 185 204 180 176 171 187 162 192 175 194 175 185 188 178 163 172 198 186 167 155 163 152 176 139 168 165 173 144 219 154 209 225 221 236 228 238 241 236 233 251 250 263 246 264 315 370 473 468 469
255 241 248 183 179 174 205 170 206 181 181 162 171 174 181 171 197 198 196 166 130 159 162 162 177 156 181 162 132 144 190 140 211 205 226 183 231 219 234 245 227 226 234 255 259 240 264 274 260 375 488 488 477 472
253 235 162 228 220 167 174 174 177 169 201 195 175 197 198 184 175 173 169 166 156 153 167 162 140 193 135 151 164 154 171 214 211 173 209 221 221 235 233 231 227 246 255 252 251 263 271 266 388 505 497 488 487 479
250 236 209 221 200 162 174 178 188 179 194 178 184 200 188 196 167 167 174 157 165 144 186 165 183 158 182 142 176 157 209 217 204 229 227 232 224 236 244 235 250 235 256 235 254 256 275 324 501 499 487 470 471 449
239 239 230 160 173 177 167 176 179 171 174 170 180 199 178 205 167 181 170 181 177 178 182 148 156 134 155 151 146 197 219 209 227 222 225 233 240 239 239 249 248 239 249 263 272 256 254 530 519 510 498 485 469 469
236 240 235 167 186 215 174 169 181 168 167 175 180 190 193 188 164 178 169 179 171 182 164 171 130 162 209 144 201 228 212 228 213 232 229 239 237 234 249 235 257 256 248 238 258 279 411 561 549 539 524 506 478 490
235 233 189 158 204 208 197 187 178 166 186 172 190 182 177 177 182 168 191 182 152 147 151 152 154 194 172 208 222 214 227 236 226 229 245 226 244 234 231 249 250 233 250 274 286 248 461 415 368 500 532 495 461 432
237 231 222 203 158 195 193 194 194 196 175 180 191 175 192 176 184 185 197 145 143 160 159 160 196 191 152 207 223 213 244 218 230 249 232 251 236 226 251 247 255 258 247 244 271 451 420 378 351 336 460 467 438 464
240 232 219 222 211 154 195 201 204 201 193 191 179 179 192 197 196 181 181 208 148 153 162 179 211 220 212 227 218 229 229 232 241 240 250 223 223 247 233 244 255 266 266 282 435 429 435 440 423 441 375 441 452 473
231 219 211 211 212 210 208 206 205 210 222 214 181 177 209 208 177 215 154 199 191 214 210 214 225 228 215 227 228 230 229 240 246 237 218 240 250 249 251 251 245 271 280 428 441 457 460 460 445 420 398 362 471 470
222 214 211 216 216 207 197 203 150 216 202 219 218 200 191 210 214 212 209 212 197 186 172 214 227 216 227 225 213 235 243 238 239 242 234 249 235 249 240 231 268 276 378 453 441 394 370 355 352 464 439 408 364 427
221 216 211 211 216 218 205 208 192 205 219 213 206 207 203 207 209 203 205 213 204 209 226 223 226 228 222 222 236 244 243 226 236 230 252 245 251 240 234 267 273 274 461 428 383 365 351 341 329 321 356 453 420 392
221 221 219 218 220 220 217 218 218 213 216 220 215 213 213 208 214 218 215 216 215 207 207 226 225 222 226 242 241 248 223 234 248 251 237 249 228 263 266 270 283 459 443 382 367 356 342 329 318 311 328 317 524 428
217 217 218 221 221 219 218 220 216 212 215 211 211 212 216 215 211 211 205 202 220 233 225 223 235 247 241 246 225 238 239 252 241 235 246 254 255 265 268 285 457 459 382 368 355 344 329 317 311 339 340 329 453 505

GFSWCAN_2pvu_pres_072.txt.gz
Presure
426 447 490 387 355 308 277 253 272 235 273 266 189 246 168 218 232 212 202 205 194 223 150 150 168 139 188 206 200 176 198 156 153 170 182 180 178 140 164 167 156 177 126 163 218 174 207 215 226 237 237 235 241 231
443 463 508 427 247 282 258 268 253 234 269 206 257 241 223 215 177 183 214 210 216 150 135 207 205 137 202 200 198 190 146 197 149 196 171 178 178 163 163 205 152 124 125 178 155 130 186 223 117 228 219 226 224 243
450 480 527 407 275 278 261 260 243 179 262 153 242 176 183 228 215 180 192 190 174 223 139 142 191 204 204 212 147 151 160 176 176 188 179 176 182 179 198 148 193 118 173 208 137 178 194 202 210 214 223 227 230 223
453 492 546 329 241 270 249 251 256 222 257 215 244 221 207 184 213 185 189 222 132 131 179 126 163 212 153 213 205 196 166 168 166 171 172 157 146 162 165 137 159 159 130 138 143 161 217 148 219 217 214 223 234 220
458 506 428 271 240 254 224 222 212 154 208 241 210 218 225 196 199 156 217 215 177 133 183 134 219 210 206 212 205 200 200 195 188 177 169 168 177 182 162 144 167 118 149 152 165 147 202 221 215 217 223 215 233 201
470 517 346 287 242 250 212 242 161 243 249 163 203 226 176 234 204 153 219 219 194 136 135 132 132 216 217 206 196 156 173 189 185 182 194 198 183 184 147 183 215 148 161 140 221 210 221 225 218 221 211 221 231 227
297 521 331 318 261 205 269 229 257 190 241 241 174 231 172 192 217 216 196 228 140 216 224 132 218 223 219 201 214 153 200 187 182 167 150 153 170 166 176 158 145 150 189 147 202 167 214 220 219 222 219 203 223 218
348 482 329 296 281 237 277 248 225 259 246 236 213 194 171 181 172 153 212 123 209 224 130 181 217 212 206 220 214 193 196 196 203 190 179 162 184 161 145 163 153 164 197 153 206 161 214 210 221 217 214 213 227 238
265 412 347 289 291 257 231 241 244 203 237 224 226 180 145 179 201 140 214 141 213 136 145 144 229 219 215 210 216 191 192 188 178 153 133 175 168 156 133 140 194 157 151 147 204 162 207 218 211 215 215 230 212 213
262 519 338 329 283 276 265 213 253 171 232 178 226 170 172 213 198 229 137 213 213 133 126 175 167 224 209 226 158 186 158 189 183 168 171 151 175 184 133 128 202 115 153 154 149 222 197 219 215 219 213 228 233 232
253 358 399 309 304 284 197 206 171 224 173 159 228 227 213 201 176 232 162 213 217 217 219 214 220 226 220 191 169 197 195 177 183 166 196 163 188 158 184 142 172 125 146 201 155 211 218 216 218 216 224 233 223 208
255 266 409 302 298 255 263 238 247 220 152 196 158 229 171 184 203 213 218 175 224 207 229 224 223 229 219 217 206 196 193 178 187 179 174 180 189 172 166 130 161 151 178 201 201 210 222 221 221 209 213 214 212 237
243 251 527 338 273 282 269 239 185 154 162 160 220 158 161 172 178 216 210 229 225 221 217 215 230 227 134 212 214 195 186 189 190 166 160 165 167 143 107 125 202 169 177 163 223 210 212 230 214 203 233 231 217 260
247 294 508 399 309 232 245 198 267 156 172 171 155 166 217 184 151 193 234 168 204 239 228 224 221 220 225 223 199 195 178 185 167 159 161 162 148 140 148 128 209 183 155 206 224 208 225 222 218 215 221 244 249 226
245 254 481 397 309 288 224 263 266 245 168 203 173 224 178 182 216 203 164 234 229 218 221 219 229 222 224 204 225 190 178 172 164 150 164 181 153 110 141 160 196 181 157 159 222 208 218 208 227 234 236 226 238 237
260 350 458 426 346 292 216 270 235 252 237 161 197 229 174 202 200 208 190 218 220 217 197 221 220 225 221 226 187 189 182 180 162 160 163 120 137 177 155 145 162 144 216 201 224 208 224 206 233 231 237 213 255 292
261 452 441 671 361 294 237 215 266 249 168 245 200 179 165 177 199 212 230 240 194 232 220 228 229 228 210 177 182 189 193 184 157 174 170 189 156 141 151 145 160 205 221 226 220 206 215 211 211 247 255 265 255 311
263 459 427 683 393 296 246 243 272 265 155 185 194 186 204 190 188 201 165 199 197 227 198 217 233 228 187 191 189 185 168 168 164 164 135 183 143 149 169 208 195 192 224 206 219 220 237 231 236 237 210 231 295 298
270 441 366 664 380 286 282 171 279 239 187 212 225 196 209 178 159 187 207 205 195 211 210 216 212 189 186 184 192 197 196 157 164 168 168 168 127 149 150 203 184 224 207 225 207 214 216 224 243 215 251 233 308 332
429 426 370 538 380 314 282 271 264 267 247 176 195 224 159 185 165 194 193 194 202 198 219 187 188 188 193 180 188 197 165 151 197 173 162 142 127 184 205 212 220 184 202 223 216 233 222 239 234 215 248 263 321 438
500 418 367 539 388 302 285 270 246 260 246 227 234 178 170 180 168 175 207 192 190 192 184 212 200 186 183 168 123 164 159 146 142 208 197 125 159 200 208 217 154 216 199 224 213 236 247 239 241 254 247 260 348 431
468 469 386 498 382 337 297 260 175 253 253 199 208 164 182 208 167 177 190 180 179 185 180 175 166 166 184 184 166 175 157 141 170 175 197 150 146 146 167 159 182 227 223 224 233 238 244 251 220 274 265 332 443 415
453 419 469 481 376 368 293 260 259 192 250 236 185 176 189 174 207 158 204 197 214 199 184 191 190 199 194 165 181 169 165 146 171 174 158 171 189 180 160 172 231 207 226 211 237 241 246 257 238 263 312 408 426 399
408 391 478 399 362 353 297 252 233 252 254 184 186 233 185 214 155 209 158 185 203 180 176 181 176 167 182 172 150 154 148 183 193 149 163 171 161 198 228 215 212 233 212 246 252 251 251 262 271 275 352 437 413 387
375 449 445 423 355 341 296 245 230 257 157 165 242 155 233 204 169 197 185 174 169 175 188 171 186 131 193 147 144 153 151 193 164 138 151 198 167 231 193 225 225 218 203 254 248 251 251 248 270 278 441 419 399 376
373 429 429 422 348 334 298 215 229 240 250 170 166 190 188 175 163 182 186 182 205 205 177 165 181 186 189 172 162 168 176 181 159 181 195 170 232 194 226 199 243 230 244 248 234 224 261 272 271 409 437 409 388 364
429 427 427 404 332 323 286 204 228 235 248 167 170 235 184 168 166 178 194 179 179 183 189 163 152 192 132 167 199 196 180 170 171 195 209 192 199 229 196 236 225 221 245 250 205 242 250 262 311 470 416 398 375 349
421 419 406 354 311 312 262 251 241 235 239 239 240 231 218 170 195 200 187 147 149 186 178 165 145 139 197 172 190 176 197 203 199 223 213 226 222 200 242 230 216 252 254 234 261 265 257 255 390 423 403 381 357 333
408 396 382 321 295 302 230 235 244 244 235 239 225 219 224 201 182 174 179 183 176 176 131 143 160 189 198 182 205 211 161 200 169 215 227 215 201 251 232 217 219 253 251 257 236 247 280 267 430 407 388 362 334 328
377 385 344 290 302 280 230 233 235 238 234 235 194 203 209 205 156 172 168 182 184 153 170 180 160 168 196 195 184 192 167 224 218 226 225 215 242 238 250 222 261 241 239 245 274 247 282 313 415 395 369 340 333 385
318 295 298 295 277 242 203 225 235 237 242 235 238 227 167 208 155 146 143 201 200 201 195 188 189 200 163 158 177 221 210 217 227 232 217 239 244 252 236 261 250 234 259 233 264 280 303 417 397 377 351 332 378 370
300 298 294 276 253 220 211 222 227 232 234 206 154 216 220 216 202 199 209 206 203 200 192 203 192 170 180 200 222 210 229 228 238 222 243 243 222 239 255 238 263 253 232 263 285 263 421 402 382 358 334 385 369 341
282 280 212 199 216 231 211 222 221 219 221 225 222 222 216 213 211 204 204 208 211 209 219 174 184 212 216 213 226 229 239 234 215 244 241 228 216 253 240 257 236 238 264 272 266 392 407 388 373 337 341 371 347 327

GFSWCAN_2pvu_pres_075.txt.gz
Presure
248 457 530 577 263 236 260 260 232 239 144 253 227 248 230 183 218 205 141 204 227 223 226 216 203 143 192 139 141 200 166 204 132 177 172 175 146 184 204 170 143 141 141 145 150 172 157 187 192 212 208 224 227 221
238 305 552 554 282 278 253 249 234 232 225 224 202 244 224 215 213 198 180 193 223 160 221 213 203 136 136 139 137 168 161 178 142 142 192 183 218 220 224 170 146 150 149 122 168 181 169 102 213 221 223 227 226 215
231 274 576 291 284 257 267 234 239 209 249 230 173 234 206 231 196 153 216 225 210 215 219 157 140 137 204 198 152 198 193 150 144 188 150 149 191 182 175 199 151 194 129 134 150 144 180 224 197 220 213 217 213 217
237 284 596 311 253 232 233 221 220 253 253 174 197 196 210 230 199 182 191 211 194 216 213 212 133 133 169 198 201 193 191 199 189 178 197 188 166 189 179 191 182 172 137 143 129 202 170 109 211 207 223 217 216 214
225 264 578 418 282 282 224 147 241 254 173 235 227 239 214 189 207 199 147 214 216 166 194 220 135 138 139 132 208 195 192 191 189 176 186 186 169 175 174 189 173 210 170 166 156 172 143 166 218 216 214 216 216 186
221 243 256 355 309 215 290 248 242 239 236 202 157 232 212 226 185 224 208 222 187 224 206 135 130 133 205 209 130 201 190 190 188 196 195 188 206 166 194 169 160 145 111 133 113 186 180 180 196 216 217 213 207 216
235 242 256 338 288 273 194 263 221 242 217 230 191 221 215 171 203 182 173 211 195 223 132 218 120 131 131 128 204 207 192 189 192 188 180 184 201 182 175 157 146 172 164 147 143 175 208 202 205 217 214 223 218 210
206 240 246 290 285 285 204 180 251 210 248 223 235 168 203 182 200 194 202 222 214 218 210 135 175 217 216 205 203 204 176 194 192 187 185 174 167 184 189 151 173 158 123 160 155 138 159 168 223 205 198 222 214 215
225 220 240 252 313 282 274 206 229 243 205 231 190 158 225 211 230 210 202 214 227 141 212 130 218 224 221 181 205 204 191 188 191 179 177 195 186 181 172 176 132 156 208 143 198 201 176 215 206 208 199 207 212 214
194 238 228 258 330 305 279 260 185 232 252 229 218 163 224 178 195 192 204 213 206 219 129 228 218 220 135 229 230 208 155 186 189 180 179 181 184 193 171 164 140 147 183 150 166 219 212 201 215 210 203 199 199 230
233 220 241 252 277 336 299 260 252 151 238 221 216 212 184 201 203 200 175 216 187 166 220 228 225 222 197 219 226 227 206 203 186 176 178 183 178 170 166 139 179 162 144 177 143 197 167 225 212 213 207 207 218 201
218 201 236 230 265 410 311 289 254 219 253 225 226 200 146 217 187 223 201 206 239 183 218 210 211 222 223 208 224 197 218 218 187 185 192 153 192 171 175 164 126 149 181 181 150 156 211 205 220 194 206 219 230 198
201 210 232 243 246 256 368 310 188 219 154 220 244 225 221 167 166 165 179 181 213 220 220 224 223 223 222 228 229 228 228 228 183 213 183 183 172 167 161 165 140 180 156 144 191 211 218 203 216 215 201 193 213 233
193 239 219 217 237 240 261 285 297 264 151 241 256 217 159 205 178 209 210 193 202 223 211 213 228 236 225 224 238 230 218 200 176 186 175 181 175 127 164 173 195 148 161 206 184 218 220 207 218 208 214 232 203 243
197 203 216 224 237 252 251 332 325 297 274 269 269 122 228 204 178 183 162 201 186 182 228 208 220 216 220 231 239 230 214 209 202 172 198 178 167 152 152 162 161 156 155 160 202 168 207 216 213 209 223 242 199 244
210 215 238 233 254 246 257 264 417 317 291 141 244 185 165 226 230 220 193 220 201 207 203 207 237 229 223 221 220 220 223 210 182 182 191 182 165 101 176 157 134 168 155 155 210 199 188 209 214 204 238 216 231 248
227 233 200 234 247 241 265 259 291 346 309 295 195 212 231 203 225 227 174 198 184 159 208 219 223 207 219 228 216 230 223 185 176 187 189 175 132 135 152 132 125 148 175 190 207 221 199 220 217 212 199 214 264 245
198 252 238 234 247 240 256 266 578 387 327 231 199 262 228 176 176 200 159 171 208 164 143 215 206 217 216 218 193 229 187 180 188 199 132 179 157 192 159 159 126 163 182 188 209 199 211 206 223 213 239 245 270 270
215 224 266 245 248 246 258 272 588 452 324 293 280 237 256 234 169 203 222 179 187 197 163 210 226 201 212 227 226 234 203 199 179 207 166 169 161 160 167 131 163 171 168 198 224 214 212 237 220 192 220 254 244 245
247 256 228 221 240 257 273 266 555 574 402 291 270 181 251 248 221 159 178 168 189 166 197 178 189 190 204 205 220 199 196 206 185 202 180 166 156 157 144 132 181 157 178 173 215 224 199 188 204 249 248 247 256 259
210 261 236 239 239 243 264 279 444 577 405 299 266 198 159 248 189 183 170 224 183 169 189 156 215 191 185 197 203 229 208 203 181 191 139 199 162 159 160 141 176 178 162 228 217 212 231 231 215 248 255 226 238 255
225 255 214 240 256 273 284 291 438 562 414 299 262 267 171 249 242 242 181 181 185 175 190 180 190 190 190 203 190 219 114 171 199 185 131 193 157 145 147 158 157 167 175 219 245 215 181 231 198 248 210 252 242 275
225 240 234 265 263 261 298 435 453 545 403 354 270 258 264 259 245 241 223 217 198 174 173 215 165 226 201 182 193 200 175 191 161 141 159 183 193 150 160 158 160 217 203 230 212 221 236 210 258 246 259 244 262 377
225 240 259 249 261 263 431 478 455 510 398 354 283 251 260 254 253 246 230 220 219 155 161 174 181 192 177 189 200 180 182 177 173 195 167 151 173 195 192 165 211 217 193 225 201 223 230 204 250 222 241 283 259 428
223 248 277 278 319 456 460 463 416 497 419 311 288 252 260 259 236 240 155 183 209 211 175 190 179 168 194 198 198 204 147 165 180 197 173 207 205 190 175 210 231 175 204 217 243 224 236 251 221 262 237 242 338 423
285 304 383 459 432 440 442 443 453 488 397 338 284 255 259 265 259 234 236 164 177 227 171 199 181 193 179 182 170 134 182 195 156 167 176 214 197 177 176 212 191 232 214 230 238 236 261 254 213 261 280 251 440 409
355 454 447 437 431 428 431 395 465 389 362 335 276 252 256 263 261 246 208 224 167 163 202 195 182 205 160 193 198 158 187 150 168 200 204 196 178 169 219 204 227 227 215 241 250 249 234 251 258 235 243 318 421 397
440 428 423 418 412 420 392 392 452 356 349 323 275 251 246 151 245 179 232 223 158 176 222 190 208 190 153 151 195 203 150 166 177 141 204 182 159 213 201 189 226 242 237 244 227 264 237 217 257 279 267 421 408 387
419 413 409 398 402 376 364 467 364 340 327 300 275 252 241 163 238 239 237 237 229 172 170 182 155 162 154 164 195 148 209 179 183 168 165 165 209 166 226 227 243 216 241 245 251 250 238 261 227 289 292 421 395 362
400 392 390 385 361 361 451 455 335 311 306 291 264 250 239 235 207 241 191 160 162 202 167 156 153 150 174 183 156 177 205 198 184 179 162 215 194 224 226 234 225 240 250 235 244 253 263 232 243 290 352 410 386 348
389 375 377 355 384 438 450 340 309 302 295 273 246 237 228 229 234 199 238 206 232 175 144 160 161 163 151 161 179 203 190 192 202 178 204 189 237 216 233 242 236 245 230 249 257 240 267 239 290 276 418 396 358 335
396 367 354 432 432 430 323 301 300 282 271 263 242 234 205 202 231 237 229 235 167 224 231 182 214 213 215 180 221 219 223 208 215 179 172 236 217 235 241 210 242 237 249 243 254 272 258 285 290 376 407 378 344 329
383 411 426 414 333 301 295 291 276 266 263 259 235 236 218 224 228 228 233 235 237 226 221 219 215 212 216 224 199 224 198 190 203 230 224 230 239 236 224 242 240 238 247 231 278 271 276 289 284 408 396 354 333 352

GFSWCAN_2pvu_pres_078.txt.gz
Presure
198 233 571 276 316 237 247 212 243 241 244 178 240 235 162 197 214 219 224 225 225 219 213 212 211 188 214 139 138 179 144 170 199 144 148 172 192 156 177 188 211 163 179 138 128 110 158 141 110 166 157 218 228 224
209 212 227 289 277 180 143 202 263 259 244 142 203 245 205 172 182 203 225 223 226 214 198 209 213 139 156 134 146 143 196 181 158 151 154 151 198 155 224 163 214 190 144 132 136 162 130 185 118 212 104 210 223 213
194 211 249 312 276 293 262 232 248 248 250 178 230 177 232 216 177 181 202 223 227 211 210 147 198 135 136 145 201 144 200 186 166 191 181 156 160 172 176 162 176 185 166 117 109 143 136 115 164 192 216 141 212 200
183 197 224 247 310 210 190 186 240 246 212 226 143 218 203 224 203 204 224 203 223 215 209 199 209 177 134 131 193 171 194 147 192 173 178 193 201 182 202 178 211 195 175 162 143 134 170 207 148 182 163 209 207 212
224 195 218 213 268 303 238 260 222 245 239 235 155 215 218 184 186 200 200 205 204 213 214 200 189 134 126 130 135 144 193 179 188 196 192 134 204 188 150 162 163 179 198 163 156 140 144 190 196 144 196 211 220 217
188 200 215 203 241 286 304 235 275 228 250 163 176 150 169 165 193 214 152 171 185 218 215 210 146 130 131 124 198 188 140 189 188 198 133 186 187 131 181 180 171 177 162 143 144 179 130 188 128 209 210 204 193 203
218 187 197 218 222 238 294 251 201 187 240 164 209 222 208 201 215 190 197 212 219 187 211 205 212 121 130 157 182 198 188 182 192 143 180 182 180 179 187 184 191 194 170 148 131 128 134 143 147 194 215 211 196 191
181 180 194 184 211 221 296 293 213 176 208 228 217 222 189 189 201 169 176 188 214 208 214 176 169 222 120 180 133 128 203 181 195 164 185 181 186 175 180 174 188 167 162 136 209 140 171 138 173 208 206 205 209 199
203 201 177 195 194 209 245 281 297 213 205 251 221 219 180 163 159 214 217 191 155 227 187 213 226 124 229 222 216 201 205 211 173 184 189 189 185 190 183 176 177 183 178 131 177 135 142 205 162 210 213 192 207 206
169 195 197 192 185 215 207 246 293 283 238 194 214 231 171 227 162 162 168 210 205 195 203 195 232 215 167 224 229 231 233 230 197 141 186 189 177 192 176 180 130 189 151 124 180 161 158 156 187 196 206 216 224 182
194 220 226 201 189 209 210 208 245 327 308 268 247 227 169 174 218 172 197 194 192 202 210 147 210 208 227 156 234 232 237 229 212 232 187 186 176 188 196 191 178 153 165 171 156 150 156 148 186 199 213 205 219 200
180 222 186 187 184 195 216 209 217 279 342 317 198 193 241 205 149 185 195 175 168 195 182 193 203 217 181 149 220 227 216 216 219 209 214 185 208 190 210 188 175 188 170 159 150 156 153 167 180 189 214 202 209 208
175 215 194 215 203 199 211 229 214 242 257 296 267 253 240 209 144 169 171 200 178 222 215 203 202 219 226 224 218 237 227 223 231 224 221 186 221 181 197 180 193 153 149 126 159 149 166 160 163 219 212 193 202 203
203 198 222 234 204 189 253 209 199 224 203 250 296 321 200 236 224 179 203 208 227 203 207 202 186 205 213 225 222 225 226 218 214 220 220 187 221 182 172 191 167 150 146 161 168 144 177 171 168 224 201 224 205 210
205 229 181 190 195 198 238 204 204 219 229 243 257 313 308 175 225 226 193 154 204 159 164 189 193 194 205 215 221 218 226 231 229 224 226 217 223 190 210 190 173 148 138 157 153 199 170 185 168 182 214 217 236 206
220 197 211 189 235 189 209 200 254 216 223 236 274 427 301 237 255 220 227 218 155 175 201 197 197 173 203 214 215 219 222 219 231 222 216 228 216 227 184 212 184 179 163 146 151 164 178 183 201 184 218 225 195 229
169 231 238 230 243 213 220 212 229 210 219 236 269 276 404 298 224 209 232 211 178 209 187 174 174 162 194 169 212 213 215 216 224 221 224 227 225 183 196 193 181 159 164 148 162 177 163 155 203 203 183 210 224 239
209 211 214 199 195 207 242 197 220 214 215 232 239 255 278 369 290 262 254 245 198 166 160 155 221 201 185 174 196 211 213 218 212 222 228 221 219 209 152 181 179 138 179 150 151 171 177 207 190 205 219 202 246 247
219 228 167 239 198 190 240 224 213 211 222 225 233 244 258 373 314 275 266 223 248 236 156 156 190 168 158 203 212 200 218 203 199 223 217 212 207 205 168 192 179 140 146 151 160 179 157 205 185 237 210 263 242 236
225 179 231 196 247 201 255 214 221 229 230 222 237 237 253 285 384 296 271 254 260 236 226 150 162 186 217 168 202 171 198 204 192 184 207 163 206 127 168 187 134 163 151 187 177 161 189 197 194 214 226 243 220 245
219 235 219 245 246 189 204 266 226 249 225 217 224 239 241 279 396 362 289 259 248 168 228 232 227 163 198 189 167 197 180 183 200 200 184 206 168 169 200 179 140 163 187 197 210 173 183 207 201 206 224 247 238 245
215 215 235 249 202 246 218 202 203 249 210 222 224 250 270 291 461 369 322 296 263 256 223 227 233 227 174 185 191 163 203 201 174 188 202 186 203 192 163 183 176 201 168 208 186 189 211 218 180 226 211 238 222 248
249 189 256 231 256 236 227 219 221 224 219 226 235 264 279 295 619 386 328 303 252 259 243 225 223 208 207 168 179 175 173 179 197 215 208 171 168 196 169 142 189 152 163 185 189 187 172 223 187 232 242 248 240 245
205 197 242 234 260 241 216 239 225 248 233 221 254 287 313 285 625 405 360 308 277 192 254 250 226 228 202 221 205 195 164 186 168 219 206 159 207 195 173 172 202 215 197 176 214 190 215 212 218 244 249 235 258 246
194 205 251 255 260 249 240 219 229 251 270 281 284 309 327 407 601 398 361 297 282 244 199 225 223 229 190 226 182 174 191 191 175 190 133 186 193 150 153 194 195 227 195 194 178 176 220 180 237 248 257 239 225 245
251 196 262 257 217 260 262 223 238 291 293 248 307 395 466 457 567 385 345 293 273 264 245 248 223 205 229 218 206 190 196 175 192 152 199 184 166 162 188 193 155 201 210 185 198 201 210 239 245 241 238 228 242 265
253 245 249 227 229 250 222 238 281 295 297 299 461 466 458 475 493 367 329 311 271 202 247 235 235 205 232 215 195 164 149 183 200 152 168 197 189 148 200 153 198 201 174 215 175 216 205 244 196 253 222 228 274 281
280 284 293 222 220 252 283 284 303 311 465 474 462 460 448 479 388 345 325 304 266 262 252 238 238 238 227 225 179 213 223 165 155 187 195 193 202 205 170 188 200 174 212 182 208 223 248 244 246 215 264 255 278 271
252 269 276 281 275 285 299 313 324 469 460 446 452 429 444 432 342 329 325 294 254 258 250 242 222 242 226 155 235 161 162 158 149 146 158 201 143 187 157 205 215 208 200 189 227 243 244 237 244 259 227 271 270 280
282 284 285 292 308 314 377 447 432 427 403 427 402 419 432 356 331 322 310 282 250 246 250 244 191 172 216 227 183 165 159 153 219 163 221 144 179 187 200 211 190 205 181 225 239 247 242 248 229 238 270 279 273 276
292 302 306 320 317 429 423 417 405 408 415 374 399 420 389 332 318 303 295 281 253 245 214 119 232 237 235 228 227 227 165 212 171 176 147 171 184 218 215 223 193 178 224 240 241 244 240 209 259 264 277 269 279 414
336 424 425 431 423 405 405 392 392 372 362 378 413 387 335 318 299 290 285 279 108 248 247 251 247 230 240 248 228 229 228 234 179 146 211 185 223 224 223 203 175 225 241 240 242 236 212 254 230 274 280 298 318 409
353 429 408 402 391 388 366 378 356 347 412 396 365 326 309 300 287 285 284 279 262 221 247 253 149 171 192 229 236 222 189 243 160 236 160 221 217 216 200 206 230 241 241 241 240 233 237 231 275 277 296 292 404 391

GFSWCAN_2pvu_pres_084.txt.gz
Presure
177 197 163 193 194 199 232 283 207 180 221 181 145 178 209 204 222 224 216 224 224 213 192 204 178 204 167 152 142 177 196 159 189 175 167 196 149 158 180 204 173 181 197 164 185 152 193 164 140 125 140 170 187 163
187 189 202 182 187 209 183 270 273 243 220 159 195 194 184 210 193 208 205 205 194 197 213 214 203 136 193 201 168 195 195 201 203 164 196 195 195 196 176 192 198 179 203 185 154 165 175 176 143 136 146 150 129 173
191 168 200 192 194 180 206 207 288 261 223 214 166 184 207 201 193 199 205 205 200 140 203 195 200 134 132 136 175 136 162 197 193 192 196 190 203 186 189 179 198 198 185 193 189 157 181 163 164 174 155 159 139 198
163 198 164 175 171 192 182 200 221 294 226 224 203 173 178 186 210 183 198 197 208 203 200 197 195 197 175 130 155 145 135 192 193 196 196 195 192 196 191 188 184 183 199 185 204 199 154 146 106 168 136 145 164 151
201 172 189 188 200 168 208 188 192 210 268 258 229 229 154 146 147 204 186 201 194 197 199 198 196 194 128 128 160 150 133 190 189 187 188 203 196 198 196 173 201 192 183 195 190 188 159 167 143 142 169 153 203 157
177 173 190 198 204 200 167 188 171 200 182 226 248 274 243 161 181 217 182 181 190 194 147 207 203 202 133 126 196 192 153 157 143 144 191 191 191 190 196 192 194 195 195 149 194 113 168 152 152 121 155 162 160 160
170 181 205 185 189 188 190 169 193 181 209 187 225 241 279 209 201 175 169 161 187 191 190 204 208 199 171 145 148 207 134 180 186 190 188 189 189 188 176 190 188 192 192 197 189 174 191 202 158 154 167 146 171 161
178 196 201 185 172 205 213 202 188 184 189 193 212 218 235 281 249 234 210 184 147 167 162 190 190 209 192 194 219 126 225 196 217 183 172 218 219 218 209 228 216 216 195 190 190 192 192 166 188 140 141 125 214 156
160 184 210 191 191 175 197 212 185 191 201 181 180 204 227 262 260 248 195 221 173 161 163 206 134 194 206 211 230 228 125 232 205 224 216 210 209 222 224 218 219 219 219 223 218 231 220 190 225 132 181 212 144 146
169 173 208 168 189 224 161 212 209 172 205 201 182 192 191 228 283 292 256 237 180 224 203 223 174 133 156 190 178 194 161 203 224 154 225 208 209 210 218 217 136 224 219 223 224 190 219 221 194 191 133 136 180 178
179 189 197 206 193 214 178 183 205 185 171 184 202 186 211 209 231 256 319 241 255 206 177 221 161 226 158 162 210 131 193 182 199 215 206 216 221 212 214 212 227 218 213 214 219 216 193 219 148 139 147 188 179 192
205 174 171 180 197 202 209 181 206 183 194 185 190 185 200 190 203 217 226 246 241 254 189 247 238 178 157 230 190 201 193 157 193 187 216 204 230 219 216 222 221 231 225 218 213 176 222 216 214 141 145 208 145 158
184 161 171 146 207 172 183 209 186 196 178 178 192 205 180 186 206 199 215 213 228 219 230 250 273 258 245 234 222 154 209 188 163 172 183 218 203 213 211 212 218 217 214 229 228 219 167 216 152 219 138 201 178 156
143 201 163 188 192 211 204 202 200 188 203 189 194 207 179 199 180 183 189 208 208 221 212 234 241 304 175 260 150 221 229 198 169 179 157 196 212 195 186 150 212 220 215 213 215 214 173 146 212 140 182 180 178 170
185 198 180 185 190 195 183 191 208 188 198 209 176 206 194 189 188 187 194 206 199 205 211 211 229 243 279 297 286 257 188 211 211 195 156 208 210 167 166 195 205 203 212 210 219 214 215 211 180 160 171 205 212 163
201 206 194 179 203 195 212 189 182 185 183 203 213 184 212 243 193 204 193 202 223 204 206 208 210 218 251 262 367 283 249 242 181 224 184 191 203 175 204 168 181 178 176 212 210 199 207 212 149 199 144 187 199 157
198 181 161 182 199 172 214 195 194 185 209 181 206 208 222 240 207 189 186 201 196 213 195 204 210 242 270 270 416 371 282 220 163 239 236 156 224 211 201 161 211 179 192 176 208 212 201 206 197 154 191 228 176 157
176 197 209 202 222 211 148 164 167 157 166 206 192 210 217 190 227 222 196 200 192 199 199 213 219 208 209 241 283 391 345 285 265 241 195 237 232 222 223 154 210 219 174 203 181 191 169 157 192 162 146 211 173 200
143 210 192 177 198 189 197 196 223 199 221 203 177 208 212 207 196 209 212 205 203 199 204 195 217 224 227 247 259 279 392 388 282 268 257 238 178 233 196 198 217 219 188 173 220 206 162 198 187 134 159 202 211 165
200 198 164 212 198 209 172 183 215 242 235 224 178 211 227 204 218 231 170 183 197 197 189 229 222 225 213 243 221 253 277 280 410 335 273 263 255 237 235 232 230 224 226 215 226 214 215 178 203 185 170 214 164 178
180 182 224 153 226 143 192 182 235 240 260 252 184 214 209 221 222 227 220 232 211 229 197 197 191 210 210 222 212 243 230 259 272 302 372 281 267 253 236 210 205 230 227 213 226 170 165 215 214 152 186 180 177 232
190 196 226 219 228 202 228 194 253 212 271 190 234 193 219 216 218 211 212 223 212 218 216 227 234 235 213 228 219 248 221 243 258 279 282 364 291 270 242 241 212 170 162 189 220 164 225 209 226 160 185 221 193 225
240 237 232 177 227 227 196 268 192 216 231 267 249 224 227 229 220 207 226 228 217 206 238 216 239 246 213 225 224 223 266 261 245 265 267 288 349 298 271 250 172 237 196 233 233 169 181 224 190 163 209 203 225 235
208 245 191 240 237 215 256 196 222 261 271 282 252 237 243 243 226 189 229 238 210 202 212 236 250 231 223 218 218 227 202 214 257 263 275 294 286 328 282 259 252 252 243 229 232 199 142 209 177 192 226 169 232 235
250 244 253 247 260 223 167 258 180 261 275 203 232 236 252 247 253 248 237 216 231 223 213 238 260 242 214 248 224 219 225 225 256 263 283 272 294 324 296 270 259 231 244 244 232 160 159 163 158 175 214 168 230 232
246 224 248 152 241 222 251 195 268 282 211 261 210 231 192 242 255 262 265 259 256 254 207 212 249 266 249 249 250 260 246 250 263 278 294 382 360 318 298 274 260 249 242 243 241 157 180 196 160 232 173 226 225 242
262 200 213 192 255 253 269 282 235 256 204 252 252 246 257 263 269 272 264 267 265 259 198 260 261 258 249 241 249 252 253 259 270 289 352 413 342 311 292 279 262 251 249 243 242 158 160 232 159 209 240 224 233 230
264 230 241 254 243 265 275 261 266 265 273 203 225 228 247 266 264 238 283 278 255 244 237 245 226 274 274 239 241 249 268 283 301 450 456 390 327 301 281 274 264 254 243 241 241 216 197 165 211 230 238 242 230 236
263 263 266 262 262 273 264 225 267 274 276 255 212 248 272 263 275 262 291 294 270 258 265 254 264 286 258 249 281 282 303 309 447 447 404 345 312 288 275 269 262 255 248 241 238 238 238 208 229 231 233 215 246 249
276 274 269 268 272 240 266 254 259 255 248 286 275 281 286 266 270 265 264 270 268 266 261 280 258 251 281 279 291 310 332 449 429 395 359 317 296 280 274 266 259 255 250 242 240 237 224 226 232 229 237 243 250 259
279 280 268 275 269 256 273 258 265 271 280 286 278 200 277 267 272 253 240 263 261 276 284 257 280 276 280 314 313 404 430 411 379 352 329 305 287 278 245 261 255 193 181 242 239 235 235 237 242 227 239 238 256 257
286 278 275 266 272 271 277 269 274 277 252 251 259 308 299 283 253 236 283 285 291 270 287 279 286 305 314 396 434 412 401 379 352 336 317 293 272 266 262 256 253 143 251 247 244 243 241 223 249 242 233 251 239 242
326 291 282 259 263 267 272 279 288 320 317 297 282 286 285 280 289 294 260 281 276 281 298 319 313 327 433 422 407 380 362 349 302 313 296 167 275 264 255 255 144 250 249 246 244 243 240 249 244 253 266 240 243 242

GFSWCAN_2pvu_pres_087.txt.gz
Presure
169 178 173 197 176 174 182 195 203 214 217 188 170 147 196 205 202 198 187 188 178 186 129 191 180 210 135 134 133 179 172 206 182 203 168 196 198 205 184 203 193 172 179 189 169 163 173 151 156 178 162 186 188 152
169 184 165 174 176 197 171 188 186 198 210 249 159 163 166 193 201 196 198 203 204 188 196 136 198 149 138 198 161 203 204 199 194 209 204 198 194 192 196 187 201 190 205 202 204 193 156 184 183 174 149 119 158 164
193 180 177 181 168 188 171 170 185 180 205 204 226 156 242 201 208 212 201 205 202 201 197 194 198 151 168 149 140 124 204 194 201 199 204 198 194 202 201 193 204 199 169 149 172 194 176 172 160 181 153 149 166 164
162 164 175 179 193 172 180 176 181 183 188 192 201 206 269 257 150 211 162 206 200 199 196 194 193 189 131 132 133 171 142 198 197 194 199 198 196 196 199 174 193 192 195 199 202 193 196 198 194 150 150 132 169 140
166 153 171 184 177 170 163 183 179 184 180 201 193 188 211 233 238 232 182 224 136 207 201 202 202 194 128 186 129 174 131 132 127 196 195 196 200 196 195 195 193 203 197 197 191 194 203 201 196 197 190 123 164 146
176 183 163 191 170 195 193 163 181 175 182 192 214 199 196 224 204 271 240 155 201 213 219 151 205 212 136 205 127 201 127 137 136 211 186 183 212 216 226 225 219 158 217 237 220 216 222 225 230 202 232 225 145 142
174 179 161 193 176 173 198 174 185 187 191 170 199 197 210 203 201 204 274 230 222 173 177 174 158 160 196 168 212 217 213 218 218 135 234 230 216 217 214 216 226 216 220 223 224 228 229 229 211 217 222 213 215 221
157 176 189 158 176 201 181 187 175 192 173 184 178 182 191 197 197 217 200 294 267 219 168 225 184 170 215 210 210 164 209 192 132 228 215 166 211 213 213 212 215 212 219 223 144 220 190 219 224 223 226 228 227 225
147 178 182 174 184 178 203 191 169 182 196 198 177 181 179 189 192 210 184 212 272 279 252 213 236 225 214 180 212 190 177 182 175 126 194 188 202 194 215 208 212 214 226 215 198 218 220 220 222 218 223 228 158 224
184 170 150 187 171 164 201 168 199 177 205 197 195 173 196 188 190 183 194 189 209 205 240 278 263 200 245 243 173 145 183 192 173 167 164 177 211 220 215 206 216 218 219 219 220 216 213 211 213 230 221 219 221 220
180 163 185 188 163 171 191 179 188 182 184 218 201 173 197 185 183 181 196 186 191 205 204 227 234 231 240 249 191 249 249 244 224 192 151 216 212 191 179 174 181 196 205 202 211 214 213 217 215 215 219 163 215 215
196 139 190 190 175 160 180 177 187 175 207 198 201 206 175 186 181 213 196 200 190 207 189 193 190 199 220 245 244 260 253 252 250 122 234 197 165 171 169 199 164 173 194 150 171 177 191 210 198 210 212 164 179 171
184 167 135 152 193 191 166 204 184 173 196 185 175 179 212 214 209 195 180 186 188 215 193 202 196 198 206 216 226 222 224 276 284 183 171 214 225 172 156 217 188 182 199 210 182 190 229 215 199 189 210 184 187 189
201 190 193 199 182 180 204 185 144 199 169 179 205 192 192 212 214 185 220 195 220 187 181 205 189 185 208 200 198 207 216 215 247 262 297 295 152 248 234 151 231 204 169 169 217 194 190 214 195 202 189 158 197 212
191 189 186 191 158 184 196 186 188 212 180 202 190 216 180 197 200 200 214 190 187 221 209 199 200 189 196 196 207 222 203 217 233 212 285 375 354 287 273 248 161 230 230 180 150 169 207 213 197 181 213 219 149 196
222 206 204 138 185 201 193 206 194 177 213 181 193 177 180 218 186 224 212 189 208 204 191 206 197 193 197 199 196 195 198 204 226 234 229 249 374 345 250 271 195 249 157 226 232 231 222 222 202 220 175 170 210 168
209 225 222 210 202 204 198 204 199 182 197 204 179 206 190 228 185 219 194 206 200 220 211 235 230 203 193 200 205 214 206 201 211 220 213 232 241 313 353 291 275 255 260 249 179 235 228 169 225 199 230 223 222 225
140 158 222 203 193 210 209 214 203 151 204 200 193 208 191 181 215 201 196 207 219 195 189 219 218 197 188 203 189 238 219 209 207 208 205 226 220 230 255 282 310 280 272 261 260 249 243 173 237 206 220 225 227 227
189 177 247 223 203 157 207 144 209 216 198 178 207 201 218 205 191 185 237 216 211 221 218 210 227 233 223 225 209 204 217 220 212 194 225 233 235 226 227 262 266 258 356 237 212 257 254 246 247 240 209 213 215 160
238 223 185 177 221 188 214 188 224 193 214 193 208 229 187 222 212 189 200 230 232 227 229 221 196 197 232 222 222 228 222 224 223 221 213 216 193 223 227 223 267 251 278 287 345 201 260 255 250 249 243 175 132 186
236 217 251 245 232 195 236 229 242 159 222 231 230 225 227 217 188 189 189 212 226 235 233 238 224 235 231 219 230 203 201 220 210 206 254 247 213 229 240 209 234 215 271 290 271 330 281 264 184 251 244 245 166 161
231 159 231 182 199 194 255 246 177 220 206 234 238 237 233 176 190 209 195 218 189 227 242 201 239 244 232 229 213 230 197 215 222 222 219 198 209 238 223 245 225 268 260 276 276 326 311 276 266 257 248 247 244 175
262 213 184 201 200 210 201 225 182 211 223 224 179 231 238 197 203 210 188 243 222 237 245 247 253 250 238 232 248 195 227 219 223 217 214 219 227 226 253 217 243 260 246 267 291 305 310 298 276 262 254 251 237 196
280 250 240 231 245 257 252 205 190 230 203 192 208 227 233 209 200 204 198 209 239 251 244 236 245 255 242 245 248 255 239 261 219 221 245 226 220 240 236 241 245 261 270 263 293 347 316 298 278 265 254 250 244 203
254 253 270 208 198 256 174 196 227 207 216 219 217 250 244 205 212 197 242 195 224 249 255 257 265 244 239 232 235 253 254 259 275 245 225 198 226 243 219 248 267 254 270 287 301 348 318 289 278 265 256 249 248 200
271 240 273 277 270 261 258 204 250 240 244 251 249 230 249 182 178 197 229 228 252 222 238 228 256 247 234 242 254 266 258 262 258 270 239 237 227 224 275 276 274 276 286 294 375 343 312 285 277 267 251 249 249 246
278 261 264 149 159 261 250 253 223 251 214 218 176 185 183 243 247 264 224 201 199 260 247 221 255 251 222 233 243 251 249 254 260 275 258 231 254 259 256 271 271 282 296 407 360 331 305 283 272 266 253 248 249 247
275 275 273 264 104 85 256 261 256 247 240 247 243 256 238 250 253 259 239 260 264 264 264 262 252 250 253 249 247 252 257 261 278 274 240 239 250 252 266 274 279 301 407 376 339 317 293 274 264 192 256 235 252 250
269 268 282 267 102 194 186 227 248 252 244 206 250 190 259 249 272 257 257 258 265 262 266 258 269 270 234 253 264 279 284 260 308 264 262 294 281 257 273 298 309 412 381 347 322 297 281 264 159 262 161 256 252 247
267 274 269 262 248 260 259 225 231 253 255 168 257 238 268 260 269 266 267 262 253 262 257 274 270 256 274 278 195 275 274 314 262 249 307 264 293 279 318 352 411 374 347 324 299 285 242 141 263 153 253 254 247 243
286 273 264 264 255 258 255 177 231 253 266 268 268 271 274 271 278 277 266 263 268 272 265 255 270 266 254 171 281 275 274 248 256 291 289 277 307 316 419 383 354 341 323 299 287 272 263 259 242 253 253 253 252 256
305 284 279 274 264 258 274 269 271 269 266 270 274 277 276 280 283 283 274 274 274 258 277 268 282 256 268 291 305 245 252 303 288 286 308 394 412 396 372 354 336 321 299 289 273 265 258 254 254 254 249 254 252 248
322 300 295 278 285 279 281 283 282 283 289 280 282 285 280 280 275 267 269 277 289 277 276 285 276 290 270 273 267 307 284 285 310 357 421 407 386 360 167 325 314 294 286 278 268 261 253 259 260 252 242 253 228 248

GFSWCAN_2pvu_pres_090.txt.gz
Presure
176 161 168 173 180 180 202 182 183 201 192 207 196 156 185 253 229 208 204 206 184 186 128 123 142 189 135 165 127 205 155 213 205 199 193 193 189 199 195 201 202 199 191 199 162 199 188 160 159 180 168 150 151 165
180 169 155 179 171 163 188 179 182 192 186 192 207 200 202 180 227 187 215 212 202 202 201 141 211 201 132 125 187 209 204 167 208 207 198 195 200 188 198 202 204 202 191 196 192 201 194 190 173 164 194 199 156 182
173 182 172 190 169 176 177 169 191 176 172 184 191 196 208 215 203 219 253 232 221 203 199 199 200 185 131 147 208 134 190 192 203 194 202 203 204 201 204 201 202 197 197 199 232 237 158 200 199 207 232 217 154 119
172 185 189 181 161 159 188 169 189 184 183 186 172 187 194 203 199 203 219 254 191 203 214 205 203 214 194 203 128 162 126 199 179 226 228 227 224 222 228 223 233 235 226 228 227 233 231 232 233 215 230 214 227 229
172 176 194 169 179 170 176 174 184 171 178 192 180 173 185 195 207 188 212 229 225 165 172 221 215 171 172 161 130 132 133 207 139 133 171 153 236 225 225 228 224 225 233 223 221 221 227 230 227 224 195 234 231 225
175 179 173 184 154 168 175 197 191 181 165 175 185 189 167 184 201 203 208 198 204 216 271 206 224 222 216 202 133 131 138 165 125 136 127 228 219 138 217 219 211 216 216 211 221 221 233 216 151 219 196 231 227 232
171 174 166 181 187 187 179 190 169 190 178 187 175 181 191 180 189 178 192 202 207 216 202 222 266 226 210 227 217 152 147 153 128 132 144 143 118 169 195 196 203 220 191 215 218 225 221 222 221 217 214 140 219 216
169 168 172 166 155 175 183 168 169 180 178 186 194 188 185 190 178 191 191 189 198 183 219 203 179 215 268 246 234 180 227 223 218 167 207 160 159 185 186 167 192 177 188 194 204 217 210 197 209 203 190 207 202 209
176 178 171 174 158 183 184 163 178 175 169 178 184 176 174 168 190 170 192 194 183 198 183 214 229 219 193 195 199 255 229 180 242 155 215 222 224 217 133 220 222 221 197 209 170 196 209 201 199 204 210 208 209 206
184 156 181 182 187 183 182 183 163 174 177 161 186 172 208 191 168 191 183 177 179 206 183 189 199 181 204 209 195 227 207 229 210 209 235 252 261 259 168 252 241 235 198 230 223 201 212 218 219 191 205 182 184 197
147 180 182 190 186 192 189 182 177 163 185 175 178 189 186 178 210 193 204 186 187 189 200 197 185 196 208 198 205 215 223 203 205 192 219 199 116 195 183 154 163 247 249 259 187 209 210 193 216 213 213 224 214 183
151 172 187 194 194 163 188 188 187 169 192 189 177 189 175 187 193 186 208 178 183 191 191 183 192 204 196 208 209 204 212 216 204 194 202 199 206 221 222 158 226 207 201 208 159 257 240 174 194 173 166 223 221 185
189 194 189 186 149 189 190 189 188 162 181 158 192 175 171 188 180 185 187 211 205 205 209 207 185 192 199 191 190 213 224 206 197 204 198 206 200 227 236 207 212 215 363 335 260 257 212 248 236 155 221 167 226 169
172 146 157 196 202 175 202 208 192 170 166 185 178 182 186 166 178 195 182 168 199 177 213 200 215 199 183 189 220 213 207 207 204 215 206 203 230 205 230 201 227 234 240 230 312 289 275 269 263 219 247 237 159 244
133 192 143 197 194 197 200 196 193 193 182 168 187 178 159 186 175 185 202 198 178 216 187 196 193 184 211 195 208 192 218 226 214 202 214 199 210 231 200 206 264 256 210 227 247 280 291 278 273 269 261 253 250 247
154 209 154 205 178 196 195 202 206 203 177 191 192 191 181 188 183 175 203 197 187 213 195 196 203 193 204 199 233 199 223 229 230 243 220 210 201 200 213 214 237 248 243 251 248 223 218 230 279 298 277 271 265 259
135 192 143 200 134 207 202 182 206 162 214 171 183 191 194 195 186 181 206 209 198 187 174 184 196 208 230 222 208 215 235 222 192 229 216 220 224 230 192 196 213 207 228 249 211 238 237 243 246 260 273 372 171 276
226 234 172 140 150 187 221 240 202 156 178 172 198 226 202 198 183 214 202 204 187 213 187 201 195 179 191 205 205 233 200 231 236 230 233 220 242 220 238 194 202 233 223 229 217 240 204 246 254 263 275 264 278 346
224 233 234 170 231 209 215 194 237 213 142 194 206 215 229 194 161 215 228 199 211 217 216 214 187 192 216 217 210 195 237 227 235 232 248 242 224 228 211 200 214 216 215 207 225 214 228 247 242 246 263 270 292 284
247 218 222 250 225 218 234 159 214 231 223 222 191 221 221 219 211 208 218 221 202 217 201 206 216 194 178 217 202 191 207 205 230 228 242 258 255 215 226 236 244 219 248 206 223 226 228 250 249 262 259 274 280 291
263 219 237 234 238 229 189 236 234 240 231 254 181 228 242 252 224 232 198 221 221 220 190 236 235 231 236 206 201 198 266 227 232 226 239 239 253 237 250 247 243 246 198 235 252 242 223 249 246 249 277 265 284 286
255 245 235 233 204 222 202 249 246 195 249 248 211 191 216 245 228 235 205 234 220 201 235 229 234 235 231 192 203 227 197 241 237 242 244 242 254 242 233 244 248 221 240 255 267 265 208 233 250 267 277 275 291 314
293 293 235 268 252 216 223 249 193 250 261 256 213 215 247 213 197 244 190 237 225 234 239 209 226 227 238 211 215 226 207 219 247 236 241 253 259 242 232 243 221 247 260 230 255 264 257 233 248 273 274 276 301 337
230 267 266 207 215 295 264 243 242 291 279 234 222 185 190 232 253 192 205 179 218 234 222 177 231 244 208 207 207 215 210 243 241 239 225 232 249 259 244 237 246 248 259 255 258 282 238 251 273 280 268 283 368 347
323 207 281 274 299 277 264 249 273 264 286 275 267 254 236 221 229 247 211 152 235 195 218 233 237 250 241 226 211 213 247 242 233 252 240 248 238 249 256 266 246 249 254 262 243 292 254 252 314 265 285 309 365 250
330 299 307 291 299 275 273 274 265 293 287 295 254 244 224 226 227 216 212 188 247 227 231 210 163 241 227 166 213 182 186 211 246 248 255 253 255 253 250 244 252 241 269 278 297 270 261 266 266 293 295 381 352 311
357 323 318 295 294 299 280 270 264 257 268 262 261 230 251 238 273 216 235 229 252 211 224 235 244 241 240 214 242 198 232 241 245 248 250 247 245 238 252 238 251 268 279 285 285 289 253 276 303 296 391 360 203 293
351 330 302 293 205 125 281 284 295 289 277 267 264 262 268 241 252 240 250 175 225 250 257 257 249 246 241 236 234 245 253 235 244 250 251 224 238 252 252 260 263 254 281 295 258 266 274 310 316 393 361 317 294 232
366 368 310 274 271 319 278 274 274 141 279 206 119 269 270 238 261 257 257 260 173 260 241 250 258 252 254 247 247 248 252 255 256 257 254 273 252 272 255 260 245 261 283 299 308 270 308 434 393 359 318 295 285 266
375 372 374 289 284 220 165 269 277 258 271 273 284 291 286 273 266 271 273 276 169 271 267 259 258 252 254 256 254 258 263 252 256 226 281 278 271 286 258 243 274 299 317 298 288 363 428 384 353 312 183 281 274 272
417 364 359 290 284 309 282 270 229 273 289 283 284 291 250 199 267 270 272 277 276 274 270 268 263 262 258 260 260 263 269 273 273 284 286 277 280 254 255 280 320 309 279 312 424 410 372 324 310 292 280 274 268 272
394 387 394 368 341 296 275 259 257 314 303 294 290 292 281 271 277 274 272 265 267 261 258 270 270 262 264 267 269 266 267 273 275 285 274 264 263 316 328 324 291 298 415 387 394 362 330 307 286 277 271 269 268 265
393 387 383 361 336 284 272 313 260 261 307 304 292 194 270 295 280 277 260 275 191 293 291 276 272 274 278 284 287 272 272 285 294 300 264 292 322 308 293 284 341 408 393 368 338 313 297 283 277 268 264 265 265 259

GFSWCAN_2pvu_pres_093.txt.gz
Presure
156 179 179 180 178 185 152 192 166 193 175 185 192 199 206 198 203 220 243 259 160 196 178 127 132 176 195 179 129 129 197 209 199 191 189 194 191 192 184 185 202 191 185 189 190 212 189 192 215 183 200 172 184 170
161 179 163 170 176 174 190 151 172 165 178 171 164 194 175 193 216 185 204 225 142 250 233 179 148 142 188 212 130 217 220 227 232 233 232 234 228 237 234 247 243 243 223 232 193 237 238 235 252 251 244 242 224 194
169 148 173 160 176 174 181 181 150 188 159 184 175 164 196 177 192 199 213 204 213 225 266 247 226 204 138 208 138 139 225 214 144 226 231 180 242 235 226 219 228 225 229 229 220 224 234 242 227 228 233 162 238 238
167 180 177 171 184 182 190 184 176 171 169 165 196 175 188 186 175 210 192 206 188 234 215 274 259 237 130 203 217 210 174 190 145 140 231 129 205 160 197 206 203 188 214 218 224 227 228 227 231 239 232 226 222 226
164 179 164 175 163 174 172 173 170 169 170 197 190 193 177 178 175 196 182 193 219 199 197 204 234 247 254 225 200 223 223 158 131 135 165 205 126 204 125 136 199 205 196 202 214 207 206 212 217 208 210 214 215 182
171 176 174 171 177 174 169 185 179 174 184 185 170 167 175 185 171 161 193 181 196 188 197 215 221 211 223 270 214 235 231 131 133 134 232 236 236 130 124 132 124 137 133 134 215 208 206 188 206 183 214 212 209 204
180 182 175 173 152 172 179 172 182 182 164 183 178 168 190 174 174 171 163 193 189 175 193 200 178 192 193 210 199 202 210 208 244 242 130 145 126 132 233 240 129 244 204 125 244 243 233 181 210 196 225 209 209 211
170 157 175 179 172 165 173 181 175 172 172 164 183 179 177 168 175 187 182 192 174 186 178 196 207 202 218 191 191 213 191 215 196 212 197 204 169 171 216 182 216 208 219 220 220 234 249 246 209 248 217 219 207 214
175 142 160 170 180 143 180 180 171 180 181 178 184 180 174 178 169 178 178 187 173 202 194 185 169 190 193 200 206 207 201 222 218 195 217 225 203 196 223 168 222 212 201 213 173 211 176 182 235 241 181 182 178 200
133 163 145 193 182 142 176 184 179 165 184 184 184 181 186 173 179 169 172 169 200 169 180 197 189 174 169 213 197 187 203 198 190 210 214 213 224 200 223 245 115 174 199 165 166 224 198 164 307 277 268 263 264 172
181 202 194 160 143 191 172 176 167 162 189 190 183 193 181 195 187 190 197 173 180 178 180 191 188 214 187 207 213 191 198 196 185 219 218 211 216 216 193 198 211 203 221 190 216 161 233 233 223 290 330 306 280 271
189 212 167 200 191 185 175 171 181 170 180 190 191 183 192 191 176 192 186 183 170 183 186 192 185 179 209 184 179 197 207 183 218 198 182 223 225 223 222 219 214 213 204 192 219 227 221 282 233 233 226 272 267 247
149 175 214 136 182 169 186 189 181 191 189 190 192 197 199 194 196 166 170 186 197 177 171 197 179 198 194 187 201 200 172 214 213 189 186 219 186 229 211 196 193 233 225 219 231 205 223 223 236 239 258 255 236 253
191 195 233 154 198 196 151 191 197 196 199 197 187 190 196 184 207 183 175 188 184 206 179 168 202 185 199 213 195 186 205 188 200 229 209 210 219 249 239 227 220 204 229 186 233 214 202 227 214 224 206 241 231 244
219 175 156 203 212 157 189 171 174 206 199 195 197 176 197 200 203 206 204 198 179 195 186 192 192 183 183 206 209 184 184 186 191 205 204 206 197 219 241 233 238 215 237 207 251 201 238 225 203 231 264 220 238 233
205 214 213 242 213 214 203 174 188 203 203 178 179 191 201 197 198 197 198 209 196 172 195 183 181 179 179 189 195 205 205 184 186 222 214 182 229 197 213 236 234 205 240 239 252 226 233 214 251 247 220 238 242 259
269 175 231 212 217 214 141 215 222 210 130 208 190 210 198 203 200 203 206 200 210 187 203 205 188 187 204 181 193 208 204 209 199 198 219 235 222 214 200 247 243 225 233 227 236 243 250 251 246 198 254 240 249 258
278 234 200 162 208 227 131 218 233 156 173 231 190 199 157 179 214 213 170 211 178 211 179 205 195 205 177 194 210 202 206 213 210 188 224 186 199 221 215 256 230 231 237 233 251 255 259 241 247 241 236 261 262 250
315 278 202 285 184 231 137 161 179 131 258 221 189 149 180 218 168 209 215 215 216 222 202 189 209 197 202 218 222 218 213 206 214 192 222 231 230 203 204 209 215 231 245 234 237 243 242 256 261 248 243 258 255 257
305 257 217 240 267 242 221 238 169 224 240 165 228 209 235 225 219 181 238 241 191 226 208 225 186 216 213 205 213 220 212 218 226 212 220 235 208 231 204 221 215 247 251 236 239 222 240 241 249 258 270 236 263 261
419 313 304 296 277 264 257 223 230 248 249 228 223 247 149 231 242 249 248 238 208 212 206 203 224 217 237 160 232 240 190 230 226 223 218 222 220 211 196 221 220 240 229 218 232 238 252 237 244 257 256 252 262 289
314 365 330 241 275 278 253 259 271 243 271 263 261 166 232 232 239 240 231 194 243 160 221 220 249 230 233 221 262 204 233 232 234 227 201 221 229 200 210 219 213 240 224 230 242 236 247 249 246 233 248 258 270 286
385 365 305 292 290 283 261 275 276 265 267 250 251 247 251 221 205 238 249 206 241 229 235 227 226 240 206 212 255 224 220 240 224 197 232 222 211 214 201 209 195 195 220 223 236 239 254 237 238 239 255 271 263 287
342 344 385 321 268 296 291 270 257 276 287 270 249 257 172 224 223 237 239 250 251 230 234 240 250 178 224 240 241 208 253 237 228 225 220 235 203 225 232 188 196 237 245 236 236 230 253 232 245 245 252 269 281 309
339 381 366 368 291 341 297 277 297 288 285 266 259 253 156 249 192 255 243 198 191 231 247 239 203 259 165 209 229 240 249 243 227 224 231 223 222 223 230 202 203 237 246 234 258 249 248 258 270 242 259 293 258 310
344 345 324 371 365 315 322 286 269 266 283 293 287 266 256 284 247 253 233 232 231 235 241 243 261 263 224 241 251 231 239 229 212 234 239 223 225 234 245 244 228 252 244 245 244 250 232 264 238 268 276 279 311 305
333 362 357 406 467 362 358 281 255 269 275 274 272 267 272 208 219 250 145 245 216 252 243 241 269 243 249 251 236 219 231 219 241 234 245 236 236 251 248 241 255 248 235 253 261 265 260 237 262 285 312 309 309 293
332 342 348 406 375 371 155 276 303 314 305 268 280 279 282 300 301 270 255 257 168 262 253 187 275 266 258 172 228 226 218 251 240 229 251 239 244 248 256 246 247 256 251 246 265 266 256 259 285 295 317 309 293 357
361 357 343 402 391 458 401 195 384 293 282 308 285 281 273 267 270 287 303 275 268 272 270 267 291 279 259 241 235 230 248 258 257 238 244 253 245 255 249 251 252 251 255 270 272 279 281 321 329 311 310 291 401 385
392 367 368 360 420 457 405 387 377 382 327 262 295 283 295 279 273 283 273 266 269 271 268 278 260 254 277 217 206 263 259 242 248 252 246 253 264 268 259 265 255 261 275 277 276 292 307 332 325 302 334 421 375 336
378 365 388 390 379 437 403 372 374 378 178 87 292 276 292 284 284 291 293 279 269 270 270 265 270 274 274 275 273 261 252 266 272 193 258 271 257 259 262 262 269 261 285 293 345 335 324 316 291 411 407 359 324 303
387 380 364 391 375 408 405 427 376 373 366 358 239 287 294 307 303 300 329 314 273 273 274 303 302 291 168 270 266 265 267 260 254 260 267 274 297 261 269 248 289 276 332 332 320 322 294 298 421 382 336 307 293 292
387 371 375 414 412 418 410 407 406 391 362 342 322 321 321 309 289 268 266 291 260 260 265 268 279 286 280 278 262 259 257 275 262 257 269 264 274 270 292 270 349 313 303 311 312 295 388 396 345 324 304 291 290 280

GFSWCAN_2pvu_pres_096.txt.gz
Presure
168 165 173 149 166 175 173 174 168 190 166 176 182 200 173 189 189 186 187 191 215 216 255 234 134 128 177 149 178 131 140 222 248 243 248 241 231 229 221 219 224 218 220 206 207 224 233 236 206 243 241 215 206 224
174 167 173 174 171 180 159 175 172 162 181 181 179 175 203 182 185 182 187 207 193 215 189 233 256 256 158 178 127 219 124 201 209 215 169 135 213 144 210 148 218 201 216 216 224 221 233 221 231 232 238 224 235 230
178 157 163 152 175 168 175 178 174 176 177 180 186 187 186 198 177 182 189 177 194 185 205 203 200 247 272 259 183 235 189 151 135 148 143 130 134 184 222 151 130 131 141 217 187 223 215 216 208 215 219 219 224 219
170 182 184 149 156 176 163 156 172 181 166 182 182 178 185 173 179 182 196 181 166 188 189 188 195 219 207 204 180 141 224 224 244 241 243 133 138 175 206 239 239 129 163 205 196 135 134 196 203 232 213 224 218 216
138 169 151 172 152 178 181 165 170 173 182 173 182 183 176 165 188 177 181 178 180 181 190 199 187 176 214 180 178 193 210 205 208 212 219 211 157 218 160 130 132 123 202 221 220 221 231 230 233 235 206 250 249 239
150 129 173 165 177 182 170 166 174 177 169 179 178 184 180 173 173 168 172 179 193 172 181 162 178 192 197 163 192 182 209 212 205 219 195 217 210 199 207 233 181 121 219 224 207 224 221 226 213 214 232 158 279 157
181 138 141 134 175 179 181 183 181 187 175 177 172 173 184 166 182 171 184 160 175 181 167 177 188 176 201 181 190 175 176 215 160 155 166 200 229 203 185 229 198 198 219 202 222 197 210 226 248 273 227 222 227 308
160 186 161 150 175 168 184 180 183 181 175 175 173 172 187 186 173 185 179 186 172 172 185 193 166 180 179 192 177 194 203 182 185 162 202 222 213 215 227 209 235 193 212 219 159 217 173 234 228 200 160 168 157 161
184 169 189 185 182 181 172 182 164 165 171 167 181 170 170 191 185 179 193 191 187 184 194 188 195 179 165 204 185 172 169 200 197 184 181 206 214 206 221 244 205 200 215 214 222 218 208 236 224 241 204 244 193 265
151 172 124 183 168 183 172 169 177 160 165 144 179 198 204 199 195 184 184 190 169 186 191 173 198 177 179 201 186 199 183 177 186 207 199 192 198 233 212 218 221 232 242 191 195 237 245 241 209 234 214 237 214 286
162 185 202 152 174 153 180 182 178 176 157 169 176 191 184 158 192 193 185 183 196 177 192 178 176 207 178 199 181 183 194 191 194 204 210 191 186 197 193 224 214 196 209 222 255 223 243 245 243 261 256 248 210 254
181 195 149 132 151 172 176 167 187 183 197 209 144 182 192 181 192 192 192 183 190 188 187 199 204 181 218 169 193 177 180 178 181 181 194 205 208 200 185 204 205 213 213 230 208 210 234 228 244 221 248 261 193 249
180 159 178 194 198 127 175 175 193 166 183 203 197 206 187 191 158 195 193 194 198 187 195 205 177 176 195 195 194 187 174 191 205 186 180 201 193 227 197 182 183 217 199 209 238 198 258 240 238 252 249 250 258 260
285 214 234 177 206 178 200 155 174 201 208 197 199 151 209 139 207 209 203 192 186 208 207 189 191 201 201 193 178 203 184 181 166 183 171 178 191 224 203 224 179 210 225 186 234 235 212 217 250 235 238 239 247 248
270 240 245 226 207 254 201 174 176 186 156 196 189 186 202 185 206 185 210 192 204 206 201 206 202 199 193 202 203 178 188 205 199 193 181 181 188 208 206 201 222 204 222 228 210 201 221 227 212 243 241 231 243 244
261 230 297 249 237 214 223 216 193 183 213 212 184 191 193 197 187 196 201 216 208 202 199 188 205 197 198 210 188 197 180 180 206 202 198 197 207 212 210 208 202 215 211 230 212 200 213 214 216 229 245 222 240 236
264 262 312 320 276 269 205 223 223 170 231 227 229 201 187 203 196 198 220 222 208 199 214 222 225 199 197 198 190 178 206 196 206 189 189 201 207 211 208 180 201 224 197 224 224 217 193 216 212 214 237 225 231 240
375 277 312 237 256 213 259 255 213 209 191 217 211 217 225 229 218 179 211 207 208 208 211 193 213 224 206 200 205 178 198 227 212 192 205 192 216 210 211 226 197 219 221 220 221 221 224 214 214 211 230 233 225 226
302 380 348 330 244 251 280 264 245 298 299 249 224 245 227 210 195 221 223 218 189 139 198 212 222 200 191 150 209 213 208 207 239 235 220 205 206 225 204 229 224 220 221 215 210 221 228 203 217 197 210 233 217 230
347 354 362 361 322 310 360 353 295 304 253 236 218 131 227 262 263 239 217 207 148 219 225 219 206 208 226 229 213 214 215 222 213 222 212 208 216 234 218 217 242 225 224 211 205 218 218 204 202 194 238 214 226 226
330 327 338 350 362 358 356 322 299 291 292 285 246 263 149 322 122 135 142 222 237 242 223 249 149 232 231 225 215 221 238 228 238 203 197 235 225 231 153 222 251 246 229 215 203 219 230 201 226 214 232 212 241 243
304 310 320 289 342 349 363 378 350 328 309 256 277 293 283 183 194 223 272 231 234 220 203 222 231 234 240 240 233 222 230 249 243 240 224 233 201 233 201 225 215 224 245 231 223 209 235 223 205 223 236 234 221 252
282 297 304 315 323 333 321 368 381 358 313 316 279 289 273 251 296 263 238 266 231 273 257 239 258 237 234 204 207 219 224 237 234 134 234 229 234 240 214 210 232 235 249 220 227 241 234 233 227 237 246 253 231 257
297 294 291 301 311 316 324 335 372 403 406 263 255 293 294 240 265 263 268 236 185 262 244 190 224 237 239 230 227 235 227 209 222 235 190 243 244 222 233 233 216 240 236 238 227 235 218 244 243 246 246 221 248 253
340 297 321 295 304 301 311 318 354 384 377 398 297 301 298 299 277 298 241 224 258 245 234 187 230 259 249 170 240 240 233 236 225 225 239 245 244 235 248 266 239 243 227 213 237 224 230 236 245 217 249 249 255 235
368 317 315 296 295 291 299 297 322 345 361 398 402 414 281 288 296 308 287 258 243 241 245 138 250 263 247 247 243 244 233 247 213 213 232 233 223 232 256 256 264 250 210 234 234 243 239 244 254 250 259 221 242 248
370 363 346 334 289 346 385 349 331 364 377 371 370 385 271 322 155 293 282 286 248 246 251 233 260 258 255 259 257 230 243 252 232 233 227 239 237 230 256 255 248 244 221 228 235 247 245 203 256 261 242 253 272 260
371 387 370 386 363 384 366 354 346 365 357 356 383 416 378 334 258 261 268 271 207 300 252 283 264 132 266 261 248 253 259 236 241 174 243 243 242 233 250 258 254 237 224 233 238 247 204 256 229 270 275 252 265 306
379 383 387 372 344 361 388 343 308 320 351 358 391 382 372 398 293 279 294 301 277 295 306 302 262 276 270 269 278 250 160 238 248 251 170 156 236 257 270 281 265 220 240 250 240 259 229 264 225 268 250 274 341 150
381 376 382 375 384 394 393 333 286 323 352 366 369 389 386 384 326 293 276 291 254 275 267 284 291 282 265 257 256 258 261 218 198 267 216 214 220 254 254 269 177 256 246 254 272 200 236 267 262 254 284 303 297 334
366 364 368 367 375 371 357 383 299 309 339 425 394 397 419 322 376 272 343 224 310 275 185 273 274 273 269 269 282 283 266 271 265 271 272 257 259 253 190 261 275 266 244 223 284 263 247 263 299 286 309 347 312 297
369 374 370 362 374 364 381 372 362 320 324 340 391 371 139 413 121 342 411 341 340 281 297 240 300 299 304 281 263 259 227 248 249 253 253 259 262 281 282 254 276 256 269 271 275 250 297 297 298 302 297 296 296 388
368 363 372 384 389 360 385 376 373 375 323 380 371 437 429 411 398 377 390 399 328 319 282 278 290 338 310 273 245 265 258 265 287 300 271 267 259 257 283 219 300 212 303 320 264 286 292 315 300 337 310 313 373 330

GFSWCAN_2pvu_pres_099.txt.gz
Presure
167 182 152 180 178 162 162 174 174 170 183 165 186 165 196 178 175 190 208 180 206 187 183 201 134 159 190 133 172 136 178 174 233 147 239 227 132 222 207 218 225 180 213 214 226 220 221 183 216 215 221 227 231 229
145 170 174 154 142 164 171 160 173 175 182 181 178 190 162 193 189 184 160 202 193 178 196 180 196 136 189 191 196 201 214 219 244 143 140 142 233 241 133 129 242 243 116 142 249 183 250 245 243 248 249 154 255 241
160 137 165 165 162 174 184 180 167 170 173 172 184 183 183 168 163 177 176 177 181 198 184 173 193 195 194 192 183 177 213 213 189 242 211 209 217 225 222 126 126 135 196 192 125 202 223 219 222 220 221 221 211 214
136 161 168 155 174 172 170 150 177 171 149 164 175 164 166 185 188 164 190 170 188 175 165 182 193 199 186 206 180 181 184 210 197 185 217 206 217 212 195 222 191 177 221 231 165 207 233 220 215 242 212 203 229 243
176 154 147 165 171 162 178 157 165 183 190 170 166 175 170 185 181 182 174 168 187 159 175 189 181 152 193 180 176 198 183 203 198 207 193 231 184 241 233 197 196 186 129 176 153 204 218 227 210 237 211 196 188 183
161 153 180 188 125 166 168 141 176 167 181 181 185 174 158 177 187 165 175 184 169 191 200 202 176 197 177 178 191 177 161 198 179 189 210 194 210 196 200 204 218 250 250 201 251 161 176 158 165 154 208 254 264 210
133 176 126 139 146 157 130 175 127 179 171 176 176 188 186 157 179 185 164 177 183 181 186 173 208 180 191 187 172 202 201 178 192 181 176 193 200 158 191 197 197 207 235 214 216 213 221 222 228 247 235 251 248 266
167 185 157 168 125 167 191 168 175 161 186 168 178 179 189 189 176 170 182 166 185 180 176 201 214 178 199 163 180 192 183 208 191 182 202 187 174 188 185 180 191 202 200 191 202 238 227 242 216 260 243 251 253 254
184 187 177 171 133 138 143 151 144 132 179 188 174 186 178 189 190 170 173 170 188 183 176 198 198 202 199 170 201 184 176 201 191 187 182 173 190 185 191 190 193 198 213 184 211 185 216 179 223 230 209 222 262 246
204 177 183 190 180 168 192 190 185 168 130 185 183 171 181 175 170 188 183 185 188 190 168 187 191 203 195 187 178 196 208 179 205 199 192 187 194 203 206 183 203 202 183 230 184 211 217 190 225 208 232 222 231 223
193 182 193 165 202 199 128 141 211 170 202 167 192 199 187 193 165 185 193 162 168 178 176 188 190 193 202 213 202 202 192 189 200 216 212 177 196 188 176 189 216 185 219 205 203 198 206 204 203 213 215 212 227 213
209 201 178 191 192 143 186 158 179 165 164 194 201 201 183 155 142 207 204 174 199 186 165 173 208 202 180 202 219 195 213 174 189 188 181 199 178 189 212 192 185 198 196 192 215 223 206 221 211 230 222 199 231 212
193 201 198 203 199 199 205 172 190 187 147 161 179 140 196 190 186 176 204 202 193 198 189 182 193 208 189 209 207 213 206 191 200 186 199 212 182 201 193 203 187 198 198 184 211 207 219 203 215 223 224 212 215 230
207 208 192 242 220 173 186 206 191 174 208 186 206 218 218 196 197 198 174 203 180 192 204 181 179 188 190 195 221 186 198 172 194 199 198 191 194 207 178 193 218 191 204 203 169 192 213 218 212 217 220 213 209 218
226 265 252 237 236 221 192 195 217 190 165 139 200 225 210 212 207 216 212 203 204 200 194 168 194 192 224 182 198 203 216 187 202 207 207 219 190 199 204 205 199 216 212 220 205 202 167 215 222 221 218 213 212 215
263 259 293 223 218 267 300 204 224 217 203 258 251 221 213 248 133 193 199 208 210 216 215 202 188 203 209 201 191 185 201 196 203 204 219 225 201 213 203 201 199 203 205 212 207 213 217 217 232 222 221 224 216 214
287 280 241 254 293 245 283 237 214 295 215 230 249 204 133 280 236 207 213 209 204 160 217 222 162 213 191 210 177 182 187 199 211 228 219 209 222 220 224 202 195 210 222 237 204 208 221 234 213 233 227 225 225 213
331 304 286 291 270 337 295 283 293 325 328 228 255 286 245 219 216 271 236 236 229 216 223 229 229 209 218 213 209 174 201 187 216 209 216 229 197 209 223 217 215 219 225 232 206 228 219 230 210 204 230 238 232 235
360 273 313 364 352 305 366 348 316 295 305 340 334 323 288 290 305 260 241 135 240 217 219 239 232 163 193 209 194 202 134 204 216 224 209 224 227 201 224 216 210 212 225 232 227 220 200 226 202 226 225 235 240 244
329 337 344 320 351 328 312 369 188 359 317 297 280 319 339 245 271 284 253 227 237 255 248 240 231 224 162 204 199 220 153 208 217 229 231 204 221 205 207 226 222 214 232 218 216 218 222 229 224 215 212 223 229 236
317 311 319 326 332 334 340 352 356 349 359 287 295 345 265 268 307 311 252 237 300 266 209 185 103 243 234 210 222 230 214 223 221 240 241 227 229 199 230 221 231 215 219 221 231 220 226 234 217 213 240 216 235 237
309 312 314 309 310 321 330 334 332 340 229 359 365 353 261 277 335 300 164 234 267 253 308 263 237 212 222 255 212 224 240 244 244 201 252 231 212 214 228 236 213 220 209 220 232 231 228 233 227 242 243 278 246 246
340 322 305 308 308 312 316 308 316 324 336 339 348 352 368 375 364 357 330 294 297 287 229 295 259 250 296 265 277 236 231 227 244 242 229 234 233 220 188 240 217 227 224 221 223 227 241 238 236 226 258 250 239 243
409 406 388 336 309 309 311 309 298 312 317 327 326 338 350 360 380 373 318 355 339 317 290 280 279 287 283 270 254 261 242 266 246 237 244 237 268 230 245 239 229 232 232 232 219 213 230 222 223 235 246 252 256 246
386 389 381 399 401 346 306 314 314 286 305 306 316 329 332 342 353 377 379 372 358 283 281 279 274 261 266 262 304 123 286 285 258 252 227 277 265 233 240 238 232 234 235 225 235 238 223 240 241 236 243 247 254 224
383 386 391 403 402 404 405 387 299 300 288 286 303 313 324 333 342 378 297 435 363 317 309 286 240 255 264 296 273 273 276 270 246 291 271 268 255 252 235 247 244 170 230 233 236 232 240 245 217 237 220 256 283 233
387 397 393 398 397 394 401 400 327 294 299 289 287 303 312 319 325 227 335 190 405 426 333 316 214 309 279 258 275 267 131 250 280 261 263 262 238 239 222 198 235 248 241 240 235 235 199 238 245 247 250 244 234 281
394 396 391 387 390 387 394 402 402 390 288 298 303 295 186 304 299 292 187 125 406 410 345 320 264 267 104 266 289 289 285 306 269 261 259 246 232 247 259 247 245 254 159 245 237 250 247 246 179 200 256 283 283 278
401 393 400 391 389 393 401 403 392 396 369 300 305 357 307 282 286 291 202 400 398 363 360 335 334 294 304 296 278 183 276 285 274 170 247 157 241 238 251 181 164 248 255 269 236 177 258 198 257 251 274 279 282 232
392 413 394 388 388 390 386 383 384 379 364 326 325 291 286 321 370 386 294 456 386 399 277 349 335 313 295 284 288 281 268 256 147 256 177 259 202 270 264 187 253 262 267 186 257 264 258 284 269 206 223 285 295 250
366 379 383 384 382 377 365 375 366 365 356 364 371 367 371 171 358 341 311 328 361 313 401 400 329 291 297 301 306 303 217 273 279 278 283 287 196 288 268 276 255 228 241 264 273 266 251 248 274 287 284 310 296 316
359 372 376 379 369 366 364 367 359 355 381 368 347 338 379 401 401 296 320 356 247 161 434 391 366 343 328 310 288 278 289 278 285 262 266 231 184 267 264 263 270 239 187 262 255 222 195 263 291 308 308 308 275 339
359 233 385 384 374 360 358 356 363 366 364 368 360 368 396 404 346 281 300 337 220 143 211 417 386 157 332 315 205 289 205 285 262 195 198 271 289 309 291 276 175 275 265 219 277 259 270 285 287 301 304 282 335 328

GFSWCAN_2pvu_pres_102.txt.gz
Presure
146 155 175 156 168 177 174 171 188 158 163 185 179 161 183 166 178 193 195 177 190 185 196 199 196 217 179 180 207 155 216 181 219 192 209 132 207 174 198 136 136 218 224 197 180 151 224 217 232 225 236 228 236 212
169 166 164 164 126 157 164 151 171 175 186 151 183 182 188 166 191 173 177 191 168 196 183 202 182 174 192 183 182 174 204 183 201 196 229 193 231 223 200 190 149 137 173 230 135 217 209 211 211 207 225 243 271 232
169 159 149 136 156 128 175 186 176 175 153 183 154 171 190 171 186 183 186 171 192 191 193 189 160 180 195 223 187 203 179 186 215 187 216 208 206 208 209 232 238 212 247 249 192 214 210 189 253 240 242 198 254 212
167 157 156 168 146 175 188 166 173 162 187 166 180 183 151 178 187 172 181 185 181 173 183 177 177 172 197 201 187 176 208 211 188 205 190 201 180 200 193 189 206 190 202 169 123 205 237 232 213 195 257 244 234 151
163 187 177 183 180 154 156 182 139 162 168 161 161 182 183 159 180 186 184 171 190 173 192 173 187 164 179 184 203 185 181 200 206 184 192 192 200 194 187 196 208 197 204 207 196 166 168 159 233 217 240 240 222 225
181 168 175 143 152 177 161 187 176 127 149 179 146 174 148 180 192 194 151 188 182 183 168 185 191 189 199 191 185 181 216 195 186 209 202 184 197 169 185 197 190 200 198 207 209 197 201 215 219 188 230 172 221 233
159 183 168 174 172 171 190 139 170 182 144 138 159 140 188 182 182 193 166 197 179 188 177 163 190 206 189 188 188 199 158 172 188 211 201 189 175 191 189 185 187 184 172 186 192 209 197 209 211 221 200 212 215 218
177 176 191 182 175 153 169 181 155 156 182 175 132 141 165 149 183 192 185 180 182 180 174 174 166 183 186 194 196 176 184 175 220 180 181 182 212 173 171 202 189 202 195 191 201 204 193 206 180 199 207 227 218 190
196 169 161 173 194 169 171 157 168 175 184 195 179 177 124 182 177 189 191 187 173 184 187 176 177 163 194 203 192 198 191 190 171 209 214 213 183 200 193 178 189 187 196 179 213 195 201 197 202 199 215 188 212 220
196 183 177 152 177 186 179 174 187 176 159 138 171 177 137 145 190 183 175 184 194 192 197 186 185 174 175 197 191 188 191 171 169 197 206 207 181 210 186 192 181 205 186 184 205 175 201 205 189 209 208 220 220 221
214 193 204 182 190 200 185 193 188 194 144 193 134 191 180 179 175 205 170 170 179 180 190 185 188 191 186 182 185 190 173 199 184 196 190 188 199 170 192 212 185 191 205 198 186 197 189 209 209 214 208 218 212 220
208 205 195 195 191 193 198 184 190 193 199 190 181 180 201 174 206 188 191 198 168 193 147 186 194 195 195 192 187 189 201 206 201 179 174 198 210 199 202 216 208 210 220 207 215 187 199 195 199 186 219 204 189 187
193 207 171 204 202 202 195 184 181 202 179 185 204 124 208 212 186 220 156 192 204 182 171 141 153 198 193 191 176 188 194 196 194 184 187 184 202 195 207 194 197 206 217 191 215 221 201 198 195 208 221 217 213 222
227 218 213 216 213 201 205 204 212 192 215 215 216 215 202 197 204 202 173 212 200 184 190 178 204 176 191 197 195 212 195 206 201 178 180 195 179 190 193 212 195 195 214 204 213 218 231 197 205 207 220 207 215 216
219 229 227 225 227 223 225 221 222 174 212 193 199 212 188 190 199 231 193 189 181 185 239 233 190 218 201 208 210 207 205 211 209 210 204 219 183 183 203 213 208 221 201 220 209 198 216 223 211 210 211 222 226 219
243 225 237 243 230 219 246 236 220 211 213 228 243 209 163 193 197 203 200 206 205 254 212 212 225 223 210 205 195 216 166 201 200 199 208 209 209 212 194 189 196 206 211 199 204 213 205 218 228 215 214 220 230 219
228 264 307 267 244 226 250 264 238 342 294 222 209 212 213 238 217 256 210 280 275 242 243 216 196 204 175 216 248 230 202 207 219 208 217 223 212 216 195 215 210 211 208 202 216 214 193 193 221 223 206 208 227 225
238 297 307 253 273 268 245 301 237 353 302 292 235 232 261 182 296 232 237 265 272 283 254 241 211 246 230 167 248 233 200 224 162 227 206 138 200 217 213 217 214 215 214 224 199 204 203 209 212 214 225 218 220 222
305 298 312 276 316 366 345 308 287 316 294 298 369 356 321 315 294 308 271 261 294 273 307 139 225 280 252 239 152 130 228 236 242 172 231 232 231 225 219 212 215 203 217 221 210 211 208 219 204 217 227 234 212 216
330 336 306 339 282 294 289 373 366 357 388 366 402 302 340 311 371 354 279 311 285 325 315 260 292 332 240 283 280 286 136 153 272 246 227 236 233 229 218 220 210 213 214 215 220 214 219 226 211 214 222 220 220 220
304 297 319 323 323 320 314 296 350 356 363 322 369 371 330 383 383 376 347 384 375 359 345 316 287 300 116 121 294 136 286 300 258 261 277 238 223 168 230 226 220 219 210 218 226 223 206 223 220 229 223 237 241 230
334 336 291 295 301 312 322 323 320 317 326 341 340 338 349 356 258 364 370 368 369 181 389 358 333 284 285 308 282 292 293 298 292 152 194 165 187 181 228 226 226 222 220 223 220 225 219 236 229 221 226 238 239 236
324 325 331 333 333 340 339 321 314 318 323 323 316 313 317 332 335 339 353 359 264 351 232 337 286 351 312 328 287 300 233 255 278 263 189 196 252 263 271 235 223 227 240 181 229 223 235 214 207 224 221 263 251 223
420 430 400 311 322 336 347 350 351 339 328 319 314 310 307 305 318 328 335 337 329 338 355 357 329 347 340 280 238 288 295 300 263 248 261 272 177 329 320 238 240 237 241 238 245 255 251 230 226 235 258 245 255 209
395 422 430 424 433 438 425 333 330 375 348 348 306 308 312 309 309 315 321 314 313 313 323 344 367 338 311 349 289 343 247 288 290 231 145 263 194 280 276 278 241 280 277 274 248 226 247 249 234 269 264 242 194 233
393 411 432 430 409 413 407 411 409 416 425 418 397 360 311 311 308 311 291 284 289 304 104 338 355 374 372 338 368 341 326 331 287 293 282 284 289 287 273 267 268 265 284 273 265 264 246 272 270 263 248 247 252 249
393 394 399 406 411 411 409 400 393 405 417 416 413 403 402 392 311 294 266 190 228 305 318 329 342 358 363 367 364 330 331 341 328 309 184 288 285 286 277 264 273 273 270 197 264 237 237 261 210 241 248 253 249 209
376 376 378 388 404 422 416 414 410 401 404 410 406 403 403 399 388 280 297 297 293 292 308 313 325 351 359 397 385 354 355 321 310 294 287 280 279 267 250 249 266 159 253 262 240 266 263 258 240 240 250 241 195 268
361 361 368 381 388 399 415 409 398 403 398 394 395 394 389 387 384 375 296 302 297 272 295 305 311 180 308 121 367 403 363 394 333 313 253 296 289 289 158 266 262 258 249 252 273 239 193 179 189 258 259 278 216 265
344 349 360 369 376 389 406 405 399 380 371 380 381 382 389 391 381 382 297 250 196 298 289 298 299 300 305 393 294 388 392 361 319 300 204 291 278 276 231 277 281 276 201 268 278 261 259 258 260 277 298 247 261 282
401 352 348 352 363 370 367 381 381 371 369 369 378 384 395 396 381 381 379 352 298 301 334 291 277 235 292 213 340 348 316 341 337 341 254 156 274 289 284 280 217 181 273 275 244 281 234 276 285 279 282 273 281 239
440 445 354 358 356 351 357 370 379 369 368 371 374 378 399 391 397 375 363 361 360 299 293 287 166 155 363 321 160 399 175 359 352 324 319 259 309 294 171 183 282 173 263 151 266 283 176 270 269 298 305 275 224 321
413 424 348 345 358 358 365 367 382 387 378 379 379 387 386 389 418 212 364 352 359 359 154 133 99 105 326 318 379 334 323 393 364 337 349 326 214 207 251 308 289 281 196 282 178 263 266 200 303 303 219 306 315 289

GFSWCAN_2pvu_pres_108.txt.gz
Presure
168 159 165 155 153 166 176 144 162 147 178 177 151 184 191 181 166 168 181 187 182 163 199 200 179 172 197 208 193 185 185 191 202 202 210 153 135 186 195 189 208 218 214 199 174 208 186 159 141 208 213 230 228 230
162 178 137 161 168 157 164 172 159 181 135 154 165 158 199 183 183 162 178 161 169 178 181 196 176 193 190 195 179 197 198 181 187 200 207 199 222 207 180 181 139 202 196 196 171 149 157 186 179 214 214 218 218 201
156 164 140 151 156 156 167 168 180 177 173 131 141 175 156 184 174 185 172 185 158 161 179 178 205 185 195 196 201 178 180 211 209 191 198 201 195 189 207 189 194 190 190 187 193 204 205 207 217 211 210 203 207 200
143 155 139 163 156 176 177 168 167 147 123 161 125 170 165 170 167 174 180 170 182 184 170 175 191 177 194 187 173 172 194 195 175 178 202 181 189 211 194 198 210 219 199 189 166 165 133 192 191 197 197 158 139 209
157 161 169 150 163 166 149 164 163 169 171 169 172 153 172 145 191 180 166 181 176 185 172 194 207 183 167 181 188 192 170 185 187 197 181 175 183 175 194 181 189 190 195 204 210 191 207 185 187 194 210 204 211 206
159 151 166 164 171 157 171 170 158 176 170 174 180 168 170 174 141 170 142 189 177 147 172 173 151 203 171 190 184 156 188 181 181 165 166 187 184 199 188 171 194 183 185 191 203 186 217 153 188 215 204 198 193 203
192 127 142 155 151 150 152 169 179 174 183 181 178 178 172 164 150 140 168 162 166 155 149 193 172 196 179 183 166 194 199 183 195 190 188 172 166 189 172 209 171 196 188 193 197 192 191 195 183 198 194 196 194 212
195 164 194 170 149 179 180 153 169 176 167 173 179 184 170 170 175 182 136 161 131 163 164 149 170 173 177 171 183 199 173 181 192 195 181 188 188 178 182 193 192 209 166 171 192 194 199 181 179 181 204 194 194 205
215 198 195 186 195 177 181 184 184 192 187 172 183 181 165 180 179 182 176 154 173 141 149 181 180 149 181 194 196 189 195 186 194 201 181 192 189 199 175 177 203 201 199 206 204 177 206 193 193 185 190 211 197 183
232 205 195 195 193 203 194 184 178 189 154 183 154 160 189 185 177 180 177 181 178 178 173 176 184 137 141 162 187 179 164 189 186 193 191 188 180 194 170 178 185 219 209 165 198 194 196 175 180 199 198 209 194 187
216 223 214 208 202 191 205 185 192 193 197 192 194 185 211 171 183 182 185 191 154 179 186 173 171 191 192 149 188 185 141 188 196 197 199 191 186 191 196 203 212 222 204 216 200 197 190 202 190 187 179 205 190 188
213 220 217 220 206 204 205 204 201 205 204 180 197 188 190 192 190 204 193 179 179 185 182 170 191 134 168 164 184 188 193 191 202 204 206 195 189 187 191 200 203 195 191 187 200 192 205 189 201 204 185 196 172 182
201 205 243 204 220 216 219 220 189 204 207 200 190 195 186 204 208 202 190 192 202 206 203 171 197 193 206 168 185 181 208 200 210 198 195 196 196 157 188 190 206 212 211 225 211 223 221 186 206 226 201 196 212 200
231 212 236 211 235 220 226 210 217 212 204 203 215 214 199 198 187 174 192 201 198 200 186 199 198 204 193 201 202 216 184 200 173 196 207 206 194 216 211 182 200 220 222 220 225 213 204 196 201 193 223 245 210 194
229 236 239 247 211 242 204 217 217 212 217 217 227 201 200 204 198 204 203 208 200 201 202 201 207 193 195 206 202 208 214 189 207 189 205 209 209 211 212 219 221 220 207 234 230 237 216 220 231 242 229 218 220 209
230 241 254 239 253 237 236 258 225 233 243 241 232 214 223 219 226 199 218 216 226 221 218 208 212 218 224 220 217 226 226 216 211 209 165 187 222 195 186 201 237 254 257 241 177 186 226 228 212 208 261 238 236 232
237 261 230 235 245 250 231 241 263 232 260 212 243 219 224 232 251 248 221 222 215 223 226 237 200 236 235 227 221 211 212 227 225 229 247 233 232 243 194 253 253 243 247 297 287 244 265 239 239 238 270 242 217 226
264 268 302 218 224 266 248 259 240 247 281 258 242 239 222 222 101 129 146 218 232 231 228 244 232 229 256 255 224 240 238 187 160 223 144 277 146 122 213 294 286 261 161 298 285 281 294 272 239 253 265 259 241 228
324 294 292 291 253 261 270 268 316 290 285 247 310 323 267 246 283 236 252 244 186 255 247 283 253 245 242 238 256 255 82 205 105 117 160 174 129 289 297 180 337 262 234 297 285 265 270 262 238 205 268 260 175 259
297 303 309 279 309 315 322 326 271 376 224 306 331 253 268 311 251 87 112 222 254 238 281 344 358 241 268 402 272 391 382 375 290 409 285 259 330 169 321 312 342 331 313 319 296 277 286 277 238 243 255 252 185 258
290 292 298 308 327 300 302 347 314 316 338 355 335 338 333 336 87 85 345 328 347 345 373 370 236 369 365 256 372 383 392 392 386 355 379 373 355 380 390 277 347 302 288 330 337 315 295 284 275 254 279 275 271 270
292 296 299 290 302 303 300 315 318 312 331 277 323 319 272 313 329 321 299 285 257 324 318 305 314 335 334 306 293 346 364 371 375 382 383 382 377 372 292 351 347 337 350 338 319 304 306 318 295 287 277 277 277 277
303 293 289 295 295 295 304 311 312 307 309 306 307 305 313 307 312 311 321 326 324 311 308 306 309 314 327 324 326 328 333 218 357 212 287 361 365 368 366 321 250 135 365 341 335 338 298 292 292 295 295 284 218 274
302 302 310 318 318 279 91 233 87 304 305 308 311 309 312 312 323 324 334 334 282 319 322 328 321 318 341 331 314 314 312 321 330 334 332 340 351 351 361 357 268 367 351 340 332 333 318 286 274 298 306 280 282 285
367 426 436 439 312 309 320 321 309 375 322 313 313 333 332 337 337 336 343 341 333 331 333 333 344 329 336 357 352 341 295 314 325 306 310 329 336 342 351 349 360 353 376 365 395 352 289 277 292 299 287 169 272 273
355 359 421 424 424 429 425 433 433 432 323 344 432 434 295 292 390 329 375 321 368 324 336 333 336 343 339 339 341 347 348 325 309 320 300 314 323 328 333 344 351 356 364 371 339 315 293 270 323 293 274 270 274 281
355 360 374 376 374 378 389 398 406 401 405 406 412 411 407 413 394 427 447 448 353 438 428 419 416 425 426 413 338 270 350 259 331 318 307 305 314 322 325 325 332 349 357 333 271 278 330 337 289 280 268 296 292 273
344 370 383 390 66 379 394 395 401 401 399 402 377 330 385 399 414 421 398 425 439 428 413 410 409 416 422 414 244 327 343 163 350 316 317 307 279 306 316 329 334 340 356 410 368 237 337 314 269 263 270 270 262 206
371 369 363 378 379 380 385 387 389 396 389 384 386 391 392 402 407 403 406 408 134 408 407 405 407 401 409 395 416 405 183 190 195 389 194 303 304 163 305 319 322 331 346 360 345 295 354 304 281 283 274 268 274 213
351 354 360 360 364 365 373 373 376 378 375 381 388 395 405 407 387 380 390 397 420 425 415 401 402 397 401 151 401 399 400 402 409 352 257 212 288 294 303 314 321 331 280 400 364 365 334 348 216 302 305 291 292 278
110 349 395 396 411 427 443 446 442 443 445 425 378 383 390 374 370 375 387 398 414 420 355 309 407 397 395 360 218 405 246 242 413 311 286 267 298 281 304 262 308 323 341 311 155 400 375 340 326 336 318 288 261 277
417 418 420 423 298 427 422 420 412 409 433 454 474 488 379 381 383 372 372 397 405 419 409 398 216 402 387 258 154 414 394 406 355 402 298 299 151 288 303 305 293 273 330 380 371 371 149 322 305 318 310 279 276 276
410 211 426 436 425 406 385 391 405 421 436 450 454 462 362 378 391 387 365 377 390 391 391 399 405 351 350 415 418 192 411 410 399 389 305 280 302 285 292 302 294 289 155 215 158 380 291 335 342 297 294 267 290 252

GFSWCAN_2pvu_pres_111.txt.gz
Presure
166 172 168 166 153 134 174 179 157 161 176 164 165 149 174 164 164 178 177 175 177 184 181 180 197 168 206 172 191 179 179 200 180 188 190 176 191 158 219 167 195 196 193 172 191 195 193 193 198 194 197 174 182 202
161 148 170 167 172 159 158 170 168 138 128 166 163 178 139 172 177 156 176 171 184 191 157 161 180 200 186 192 189 190 205 171 196 184 181 182 200 179 194 205 204 210 126 174 199 126 188 133 141 199 192 147 197 144
184 124 146 154 152 171 135 158 139 152 158 169 171 165 176 173 135 175 156 173 183 166 181 177 185 191 195 174 191 181 190 176 200 187 182 185 186 171 173 176 181 201 192 211 196 201 193 193 190 182 143 182 195 188
126 156 185 170 165 170 160 153 152 156 162 176 165 163 127 175 167 147 170 166 178 166 168 181 183 177 190 186 198 180 172 173 186 177 167 164 185 195 187 193 172 168 175 174 184 186 204 174 197 194 164 177 158 195
206 162 174 152 137 169 147 127 170 156 158 134 177 173 168 161 170 174 176 167 164 176 166 170 176 168 182 156 177 197 183 170 180 193 183 177 191 180 167 195 192 201 190 175 197 170 168 168 183 190 200 192 185 188
193 140 210 154 172 185 175 160 165 163 169 172 176 182 161 178 170 179 174 183 176 142 178 182 187 188 174 182 183 166 167 174 183 192 194 191 179 172 196 195 161 189 202 186 192 163 199 214 173 172 197 178 184 188
175 159 157 159 161 185 184 185 160 159 180 156 141 166 148 144 171 174 181 161 169 171 176 141 176 186 186 188 184 160 184 182 174 166 180 189 191 193 200 174 194 207 208 181 201 195 186 208 208 200 195 203 176 187
219 184 190 214 185 188 199 215 184 177 165 179 162 154 147 170 180 180 161 177 177 158 174 178 161 140 186 190 162 187 190 180 174 173 172 179 187 193 185 196 188 193 198 201 207 205 210 199 182 202 202 197 197 193
187 204 214 190 206 207 216 192 186 193 186 186 174 181 182 162 178 154 177 182 176 183 146 181 180 184 143 188 153 186 166 186 170 184 179 181 178 195 192 188 188 189 193 195 202 202 195 210 200 216 189 187 178 197
216 211 177 176 188 230 196 232 244 175 203 201 180 160 178 198 189 182 135 175 176 175 177 142 179 183 179 194 178 185 158 179 143 134 177 180 154 180 189 200 199 190 182 207 194 213 201 195 188 210 211 196 222 187
209 215 214 190 183 182 227 197 244 201 221 197 204 199 195 200 199 197 189 187 185 184 188 186 161 187 188 187 148 198 142 198 194 185 179 189 191 188 157 187 198 193 193 199 202 195 208 214 213 209 207 220 222 222
224 212 224 205 238 217 221 220 252 211 216 231 226 203 190 200 197 199 186 195 195 200 204 201 201 193 195 196 191 167 191 188 202 198 201 194 197 199 139 161 191 201 206 208 204 181 206 204 210 212 219 219 213 200
226 222 221 219 232 215 208 216 238 242 211 214 223 230 224 207 203 205 200 201 206 208 208 205 203 216 204 198 191 197 212 217 210 203 199 202 186 196 197 197 191 200 170 197 212 204 212 215 209 232 151 232 216 237
238 237 214 232 242 232 220 258 253 251 236 215 222 210 233 216 196 208 197 205 215 206 214 211 227 209 208 204 207 214 198 192 193 208 202 207 205 204 161 212 207 212 132 160 141 135 156 165 238 244 219 171 149 238
223 230 230 238 238 240 250 234 245 263 258 247 223 260 224 229 214 213 208 211 224 223 225 225 228 226 225 214 215 226 208 210 213 212 217 208 163 186 231 240 226 223 234 167 195 231 239 242 230 239 236 141 221 244
225 230 236 245 241 248 252 250 256 254 259 258 240 240 245 188 228 206 215 236 227 265 254 204 219 215 213 202 229 222 232 220 225 213 218 206 139 246 237 244 237 238 213 229 234 234 239 262 254 169 235 244 217 249
290 254 255 262 265 252 245 248 253 253 258 266 264 259 250 241 230 213 216 219 243 238 247 253 229 248 238 245 221 243 244 235 218 224 247 197 234 253 277 237 253 249 258 259 243 254 246 266 251 364 226 269 260 298
274 280 290 257 245 260 259 252 248 258 245 257 115 112 253 245 100 127 100 97 97 249 254 244 248 261 268 249 240 167 244 255 269 268 263 248 256 253 260 256 260 125 154 236 199 277 273 281 279 351 301 316 202 322
320 285 349 259 259 262 249 285 303 292 289 225 264 265 274 258 250 243 234 267 272 263 255 287 88 247 242 246 250 251 297 262 260 220 310 216 276 268 230 259 256 256 125 139 390 247 279 380 261 262 330 355 307 275
295 316 290 281 322 303 310 314 316 320 304 312 281 289 295 277 234 286 299 311 335 237 252 237 335 360 346 296 319 343 268 262 391 342 214 261 265 127 120 386 315 399 353 391 382 375 382 371 354 348 303 286 254 324
298 293 294 292 322 372 308 280 300 340 277 303 300 294 345 338 382 367 310 314 293 317 300 291 319 244 354 346 261 344 349 350 344 301 314 291 340 329 336 334 332 379 384 127 386 384 380 277 363 351 354 351 162 301
307 307 297 300 298 292 297 305 303 305 305 307 316 300 311 304 299 301 302 318 81 307 335 334 335 324 325 304 295 324 333 324 323 324 326 287 357 339 278 148 123 324 356 357 358 377 370 358 347 347 315 330 318 321
290 285 282 279 281 291 194 200 152 292 314 310 300 299 293 288 295 303 315 312 314 304 296 297 303 309 315 313 317 316 311 313 320 326 318 327 328 309 331 311 320 317 322 335 353 357 366 359 379 371 315 352 356 325
344 338 330 319 300 148 302 94 98 291 298 313 311 301 318 316 314 308 313 311 306 294 294 291 304 309 310 311 310 311 314 309 301 328 310 333 339 333 323 305 303 314 318 323 328 344 354 362 311 380 340 338 313 281
358 407 389 394 394 392 343 99 334 322 314 280 285 302 310 301 319 321 326 347 330 323 332 334 333 324 326 331 327 326 327 324 342 357 343 329 361 326 347 345 293 291 314 314 322 335 345 353 360 346 163 344 166 326
381 399 404 405 398 392 379 373 378 387 385 393 430 433 409 403 443 445 458 218 182 349 309 313 421 258 368 316 367 347 329 332 267 342 345 344 352 342 339 348 337 302 319 186 317 328 337 346 358 374 367 387 344 337
393 401 407 398 393 381 361 357 362 369 375 373 372 396 395 409 424 435 435 420 408 417 417 414 322 416 426 437 290 320 433 429 390 390 405 435 344 351 333 338 340 298 307 305 315 331 326 336 358 419 372 342 204 313
384 377 382 384 271 375 380 375 367 363 364 357 354 362 370 373 403 408 397 237 409 403 364 412 407 405 418 420 436 434 430 426 424 196 429 431 425 431 327 340 341 324 311 302 312 313 326 337 347 358 324 288 282 308
356 368 364 377 380 380 389 388 370 374 348 372 394 404 416 422 417 410 412 404 401 405 409 407 403 401 413 428 434 424 417 418 414 415 426 432 430 164 172 340 347 307 315 304 300 316 322 331 359 416 384 356 333 341
358 357 369 375 379 382 383 378 384 383 382 389 395 393 393 394 412 398 398 396 397 400 402 407 406 402 401 354 302 257 412 415 258 264 421 427 310 429 226 236 141 304 302 237 298 141 319 322 349 360 345 358 348 325
351 352 351 354 358 350 347 350 356 396 376 409 440 457 472 457 451 455 464 457 386 387 391 388 390 389 390 401 417 424 425 375 223 414 418 365 423 415 224 396 342 221 133 156 296 303 254 331 371 364 370 234 335 327
337 340 337 351 441 441 423 422 428 89 446 442 422 426 423 431 444 450 442 426 439 379 378 376 376 363 128 276 418 422 224 419 403 405 390 426 399 152 405 383 392 299 171 289 295 302 231 144 392 352 338 381 152 323
394 397 409 424 414 126 354 425 425 439 425 417 407 402 410 411 427 439 432 377 408 372 376 379 378 380 385 394 407 426 427 273 357 408 129 129 409 146 127 382 160 317 299 288 298 301 301 306 192 381 383 358 355 329

GFSWCAN_2pvu_pres_114.txt.gz
Presure
178 144 163 171 171 161 172 165 157 135 172 172 154 173 156 176 161 154 183 166 182 187 180 168 174 184 188 186 197 200 171 196 184 169 174 180 196 175 177 179 173 199 197 189 208 191 193 191 181 185 192 187 137 200
159 180 154 149 158 169 170 154 156 163 135 179 166 123 171 170 171 179 144 155 175 177 181 181 171 188 165 192 182 200 179 174 173 184 172 186 176 176 188 179 194 177 177 174 178 179 191 193 207 182 191 207 180 195
147 172 133 155 152 151 174 172 170 171 159 151 163 179 181 157 166 144 184 180 175 173 161 181 172 185 185 182 173 188 157 157 196 179 180 192 180 173 200 179 184 212 189 161 198 177 193 193 173 172 185 177 188 189
192 161 142 125 180 143 178 183 174 176 180 134 171 174 161 181 163 162 162 151 178 172 157 169 182 160 186 179 156 159 169 183 187 182 182 192 178 206 182 183 168 183 175 186 197 187 165 179 209 177 193 181 219 202
178 192 157 183 159 185 171 175 204 142 168 159 174 187 175 160 166 167 174 172 184 170 181 168 145 182 176 178 163 182 177 182 155 192 168 191 195 195 186 210 177 193 180 191 193 183 182 200 197 204 199 206 196 191
214 176 164 183 179 179 158 190 193 170 163 183 171 177 182 183 181 172 174 179 158 161 171 174 171 176 168 163 187 180 165 166 183 179 181 168 158 184 192 195 209 197 183 200 185 178 200 198 197 201 192 181 205 169
206 199 216 180 160 224 180 156 139 164 201 154 183 188 154 171 180 180 172 154 137 160 178 179 175 152 153 177 188 175 186 184 183 174 193 187 184 184 172 186 196 191 191 194 188 186 197 204 199 204 188 194 187 189
196 178 214 185 183 203 190 179 192 152 192 201 187 195 208 174 174 180 159 151 179 142 181 173 179 180 184 155 185 182 176 137 188 186 167 164 180 184 193 188 182 184 185 191 191 193 195 199 203 185 188 201 201 203
197 210 212 188 208 185 199 200 208 185 215 164 178 227 213 201 222 196 185 193 183 178 153 174 177 186 190 195 173 130 181 187 185 180 181 169 176 184 179 189 141 166 193 194 151 196 195 202 194 198 199 182 188 200
173 166 217 183 195 206 215 173 201 184 208 201 180 179 170 198 206 199 221 188 199 189 180 186 188 182 171 178 193 186 174 187 182 182 186 190 184 193 171 185 190 189 193 194 162 200 202 206 200 208 213 203 203 203
208 213 217 222 180 199 174 206 188 180 202 209 202 187 207 186 201 199 249 217 215 188 197 201 202 198 193 191 184 184 191 193 192 195 196 198 189 185 194 195 189 173 149 198 217 209 191 201 183 189 210 202 206 213
204 216 221 224 215 202 187 193 212 185 196 201 215 190 182 179 180 185 182 210 220 226 222 204 204 205 208 210 207 210 204 190 184 191 188 189 197 197 185 179 204 146 140 210 205 171 216 162 205 216 170 139 151 147
208 225 219 205 221 208 207 215 181 212 219 233 233 218 189 224 188 188 181 182 190 216 229 232 234 222 209 210 195 212 203 207 207 205 195 175 196 189 188 199 211 207 211 210 123 219 209 148 173 230 227 238 242 216
230 224 207 204 214 211 198 212 217 226 233 218 193 189 177 240 237 189 232 194 235 226 260 217 213 229 241 248 228 222 228 219 211 209 164 200 208 193 237 248 243 192 221 213 225 221 236 242 215 194 235 180 271 233
218 234 232 223 224 200 217 212 213 221 237 233 244 235 220 201 240 239 239 238 206 261 261 261 260 225 216 222 224 232 232 235 229 211 198 218 223 227 227 222 256 247 235 227 212 231 131 224 249 192 247 233 241 258
235 243 250 239 235 229 231 229 237 240 251 190 245 236 230 226 207 213 244 244 243 236 253 258 234 231 273 233 225 256 244 234 230 221 228 239 246 247 202 258 245 253 269 259 218 259 259 249 270 252 262 211 269 264
239 234 235 232 253 259 247 264 248 247 253 241 90 192 203 223 232 226 270 264 245 267 261 267 267 268 276 263 232 229 225 237 245 258 248 234 233 248 243 256 279 262 263 255 240 240 254 257 273 219 252 264 273 265
255 256 242 243 246 257 259 248 255 252 248 249 246 230 235 93 93 109 250 278 269 262 267 269 271 279 262 249 257 259 261 274 265 272 284 272 252 247 259 318 262 180 265 283 278 263 263 246 285 182 234 293 388 401
282 254 251 295 294 312 281 308 301 285 254 251 125 85 193 242 238 288 265 257 223 179 270 266 264 266 257 270 294 294 290 338 268 271 283 261 260 307 362 406 236 338 268 318 327 320 273 265 126 129 309 396 394 386
287 284 287 301 308 291 294 295 298 304 328 246 318 301 353 153 285 314 310 285 293 327 265 261 286 313 328 317 320 314 295 373 378 364 323 392 382 337 329 263 256 253 309 346 342 319 177 124 271 261 257 197 387 287
295 288 288 289 291 288 300 293 297 297 285 318 310 296 304 107 327 310 291 274 175 334 315 319 314 301 272 311 312 308 314 313 364 369 373 370 354 353 337 326 321 303 242 311 302 315 118 316 316 317 332 370 373 377
300 303 301 305 307 305 307 309 309 264 307 248 129 246 293 296 287 281 282 266 364 366 310 293 308 310 305 316 316 305 321 317 313 310 314 325 318 307 315 304 310 314 312 309 308 295 205 316 316 321 319 317 363 372
279 294 295 304 295 295 304 313 210 325 326 319 318 310 312 306 303 295 313 309 304 296 206 304 272 299 307 313 315 318 312 313 317 314 310 319 285 318 311 305 217 303 302 315 326 321 325 306 312 301 310 324 336 368
326 312 311 299 298 301 309 266 295 304 307 292 288 245 287 277 271 127 291 278 272 274 284 291 314 317 95 330 330 329 328 328 335 330 332 331 333 291 321 325 319 319 309 334 349 334 326 343 344 301 307 313 335 357
343 332 335 350 347 349 346 345 344 349 351 358 364 374 384 363 323 334 315 235 282 282 302 307 92 305 310 305 305 308 310 312 326 332 331 339 346 302 220 325 334 337 334 331 350 339 320 344 344 298 310 318 335 352
348 358 358 378 373 364 377 375 372 368 374 377 205 416 413 412 414 410 400 210 361 413 433 439 447 464 464 372 449 459 451 456 461 467 451 398 310 319 435 354 320 317 351 337 341 342 334 345 346 319 307 311 333 347
353 364 378 376 400 454 440 417 403 261 406 406 404 401 399 408 414 300 273 376 369 372 206 373 375 423 432 435 440 438 438 439 435 434 440 438 436 436 440 364 313 393 447 347 335 341 321 341 327 304 304 317 321 342
405 423 458 447 408 388 380 382 384 390 385 381 391 402 401 417 428 405 402 343 373 369 329 326 364 381 411 412 415 405 413 409 419 414 423 426 414 434 437 419 432 442 441 421 194 390 340 344 315 310 302 317 327 337
436 438 385 379 367 369 376 334 377 378 376 383 395 405 412 424 413 411 404 381 395 396 399 402 404 400 402 406 411 410 412 411 414 412 418 431 200 426 420 415 423 390 389 429 411 328 337 343 322 306 303 308 323 341
376 360 374 381 377 376 370 356 374 372 374 375 380 388 382 383 371 369 381 419 413 408 409 412 403 397 399 400 406 398 413 368 406 230 313 317 440 434 414 411 412 387 364 414 410 334 348 324 316 303 300 315 320 308
361 364 363 360 352 347 349 352 358 365 357 350 352 401 403 461 221 443 421 334 415 419 424 432 442 446 452 447 405 408 417 405 212 396 411 294 445 436 330 265 132 223 410 404 409 386 345 309 308 235 298 309 316 292
337 340 342 347 347 338 342 344 345 438 440 435 402 404 397 394 395 383 373 376 387 403 421 431 444 458 471 470 484 399 405 402 392 400 406 319 439 133 251 398 415 408 400 392 374 390 334 147 307 301 302 310 319 366
340 335 331 350 348 343 406 414 395 380 371 373 368 366 367 328 377 378 382 393 402 405 425 440 439 467 482 476 471 390 394 385 384 384 396 418 427 427 400 213 415 405 372 342 387 377 314 311 252 298 302 302 139 366

GFSWCAN_2pvu_pres_117.txt.gz
Presure
164 143 163 165 165 183 175 151 177 176 166 172 142 172 169 180 147 167 175 170 149 150 188 184 185 186 183 190 184 176 184 184 194 182 190 177 187 190 200 202 190 183 187 197 193 182 183 191 190 158 162 193 191 182
161 173 200 170 126 169 172 173 161 170 186 151 173 139 155 157 160 185 157 154 181 174 168 183 172 183 183 169 190 191 187 164 174 172 189 195 161 199 188 189 182 193 223 188 186 194 182 211 193 189 195 203 201 188
189 179 163 154 174 135 116 157 178 168 155 163 161 147 173 144 182 170 181 185 151 180 166 168 191 151 185 167 186 187 162 178 187 189 187 186 169 197 199 172 166 188 196 204 183 177 206 192 183 195 190 178 198 186
168 175 182 173 171 172 168 153 149 171 171 156 163 149 170 183 179 176 157 195 178 168 164 194 175 182 166 174 189 170 181 181 181 186 152 175 175 199 192 190 172 178 184 179 203 195 185 202 176 200 201 172 190 198
190 164 187 195 200 183 155 168 162 121 160 169 161 191 182 173 164 190 188 174 190 188 160 173 182 163 172 172 178 172 171 182 186 185 187 192 191 188 193 184 190 166 189 189 188 201 178 186 194 177 174 203 202 185
170 183 198 193 183 199 187 155 169 184 179 171 156 183 143 179 171 182 168 177 176 184 183 187 159 189 180 200 191 180 186 177 167 177 186 170 178 179 188 193 188 180 159 178 189 190 197 192 197 188 170 191 195 196
154 182 197 194 172 194 201 185 153 187 173 192 174 138 182 189 195 169 139 159 171 168 182 196 185 183 176 189 188 192 184 165 170 175 187 185 181 161 192 186 177 189 188 192 184 194 195 198 192 194 198 191 193 193
161 178 202 169 197 198 183 180 203 199 199 197 212 176 188 178 196 135 171 146 202 174 202 174 146 187 194 194 143 185 196 190 190 187 184 132 164 188 186 186 190 189 183 171 198 199 204 191 141 161 190 188 200 203
201 209 218 208 179 193 170 203 204 198 185 211 190 184 212 184 188 179 177 183 184 180 195 171 206 176 199 179 141 149 187 179 195 194 194 186 187 182 176 180 188 189 187 184 196 194 191 195 196 190 193 193 198 195
160 226 237 220 221 203 186 192 209 189 223 194 209 220 192 157 176 200 190 197 188 190 187 180 182 179 196 215 223 183 181 198 200 203 189 195 195 198 197 198 197 130 196 205 198 133 192 203 198 188 190 201 140 148
225 179 185 234 180 208 200 211 189 185 164 169 219 196 188 192 180 187 194 200 195 198 190 188 190 184 183 196 188 216 216 212 215 207 211 202 198 193 192 202 206 208 211 162 208 195 208 130 188 210 193 186 170 224
229 201 206 238 222 212 229 198 210 176 187 224 169 198 200 197 209 191 187 183 210 198 194 184 177 207 192 208 189 190 194 197 187 186 198 206 211 211 201 208 217 223 198 114 216 153 194 217 217 124 201 228 180 220
209 153 223 216 217 207 204 229 222 221 206 236 202 218 199 207 176 174 182 210 166 186 199 219 207 224 243 230 183 195 194 234 232 202 192 212 213 220 221 222 233 225 224 220 109 220 217 228 147 187 226 225 223 230
225 216 226 221 214 224 149 208 214 220 211 215 218 230 212 200 212 217 180 182 185 216 219 230 211 191 218 247 224 230 208 206 204 194 266 207 202 283 236 238 227 229 246 244 244 234 235 233 135 246 248 257 240 255
245 216 226 226 224 238 221 230 235 216 244 214 194 228 221 230 215 219 220 212 207 190 187 192 192 204 234 250 246 251 193 207 237 222 208 206 250 212 249 246 257 248 219 251 248 248 255 254 254 253 260 258 256 282
254 232 240 211 235 238 229 226 206 217 230 233 211 224 229 224 233 206 227 219 223 214 201 192 242 251 263 239 219 246 221 226 216 222 235 255 290 286 283 273 266 260 279 265 246 238 239 242 250 261 267 267 289 276
267 274 241 281 229 241 232 240 237 243 213 239 237 219 225 236 236 212 197 265 266 206 255 266 269 263 258 264 228 233 247 236 229 241 269 282 283 279 281 285 278 276 269 270 263 263 313 303 381 274 245 270 385 292
255 255 254 251 244 244 249 282 243 277 261 267 251 196 118 257 254 257 243 247 259 268 270 249 253 258 238 279 264 245 250 291 292 294 292 294 284 278 282 282 270 272 284 332 350 331 303 358 391 373 361 315 354 312
271 278 244 290 294 292 274 272 268 263 260 253 248 263 270 280 137 269 267 258 269 272 284 292 292 291 171 302 295 268 272 258 301 303 299 295 297 288 286 307 290 337 317 322 311 313 358 338 341 353 347 217 344 234
264 263 265 280 268 269 276 270 279 321 315 277 260 253 138 148 240 314 305 258 278 274 313 308 296 298 313 268 332 322 308 379 372 329 332 291 364 353 334 328 360 333 313 314 312 310 179 316 331 322 324 320 315 303
291 279 283 274 272 272 263 267 263 270 278 291 269 83 79 266 325 330 315 307 313 95 85 176 291 291 309 316 325 316 314 299 299 342 312 358 361 368 327 300 302 302 309 305 311 212 305 305 299 309 310 322 316 312
297 301 297 295 295 296 244 294 293 293 242 288 257 79 291 303 211 286 289 296 292 140 129 299 302 310 311 304 302 307 312 310 313 312 321 322 304 304 310 311 307 309 307 300 298 113 207 263 313 318 315 316 316 327
293 293 296 300 302 304 81 303 300 300 300 122 203 302 311 306 185 295 305 310 312 304 306 309 310 311 316 311 319 322 327 101 312 331 255 305 301 303 315 316 316 323 323 324 331 215 326 315 313 318 317 320 329 348
297 299 308 307 305 300 286 167 293 296 295 250 179 304 298 294 299 297 89 83 307 301 302 298 293 299 244 134 258 139 142 298 306 306 305 306 310 313 316 317 322 307 307 268 320 337 347 346 319 332 346 335 333 185
295 299 308 303 298 300 301 300 296 296 295 297 302 95 311 305 315 319 323 316 302 279 291 303 305 108 329 312 332 329 336 371 377 372 369 364 366 391 482 470 474 475 482 479 472 471 325 329 339 331 135 341 342 340
335 332 344 360 339 340 337 335 334 336 333 334 306 92 357 356 372 401 398 379 388 397 391 390 394 409 415 408 408 411 409 407 405 411 402 402 443 458 457 450 449 438 446 455 449 462 353 432 445 330 333 334 343 334
350 356 363 219 364 377 384 379 364 358 359 359 245 336 209 419 447 424 449 440 434 419 419 163 414 414 414 414 411 407 209 396 392 392 239 393 395 409 408 425 438 437 431 429 440 447 442 435 303 316 392 331 336 333
342 345 343 349 343 341 338 334 337 373 454 347 290 424 432 434 443 424 408 406 395 396 400 130 113 363 407 415 408 404 404 395 396 392 391 381 380 432 416 422 417 431 437 432 432 413 403 422 420 417 425 342 327 332
331 329 331 347 358 361 377 406 437 429 415 411 409 414 404 399 388 384 174 390 307 100 398 402 409 404 404 406 411 412 408 410 415 417 425 431 429 219 416 413 413 423 434 175 435 259 421 416 417 410 410 351 334 343
369 374 385 409 418 427 431 417 413 402 394 383 383 382 380 373 361 362 367 369 372 403 409 443 469 469 471 466 466 464 462 469 425 486 474 452 309 418 426 412 302 409 363 447 432 421 416 413 416 409 402 328 335 334
394 389 386 391 406 409 405 388 373 366 364 364 361 362 369 361 370 364 398 394 196 420 421 417 412 406 404 404 412 426 429 433 443 463 481 491 405 358 414 414 227 316 423 432 426 420 411 410 409 406 370 335 336 318
377 393 408 400 351 347 355 357 357 358 349 346 344 390 383 295 400 374 369 381 395 406 379 382 402 394 385 394 406 419 442 452 445 450 470 400 399 402 141 386 389 119 134 423 421 422 405 404 401 397 332 127 325 308
370 356 351 351 341 338 337 344 358 353 394 381 373 371 371 338 384 368 95 96 378 376 378 374 294 388 400 369 373 451 438 476 457 442 394 394 390 390 395 397 411 431 425 420 125 411 410 396 394 389 412 343 308 303

GFSWCAN_2pvu_pres_120.txt.gz
Presure
170 167 152 174 138 156 141 182 164 157 151 169 172 168 174 158 152 176 146 154 174 180 180 157 187 169 189 191 159 189 198 169 188 168 179 183 188 177 191 191 210 184 189 188 180 203 215 206 181 198 184 190 183 209
155 164 134 181 182 182 126 175 153 195 165 170 178 178 165 160 170 140 163 169 182 158 172 191 171 193 150 189 180 173 192 174 186 175 174 198 164 184 172 186 193 183 183 201 176 172 198 193 179 197 195 181 184 183
146 166 158 182 158 198 185 146 158 126 174 170 182 177 173 178 165 168 156 166 200 179 181 149 193 176 191 174 155 149 191 183 198 167 178 182 193 192 169 196 176 187 190 179 175 179 171 199 193 176 195 198 191 184
155 176 183 160 158 174 165 172 176 156 163 125 167 161 176 142 166 173 149 169 138 139 170 200 183 165 185 190 190 169 176 179 184 187 196 194 196 184 179 194 179 169 172 186 194 180 196 174 176 193 201 187 171 189
183 165 161 140 167 150 172 165 189 193 160 167 176 137 187 166 184 151 181 186 166 148 201 179 174 201 188 166 193 194 193 192 194 188 195 188 193 178 187 196 168 192 163 177 169 169 168 195 198 178 187 198 191 185
177 173 182 130 179 178 183 155 184 144 195 185 195 195 133 125 175 175 178 161 183 176 190 149 184 156 192 185 198 197 197 200 151 190 198 191 204 189 190 191 193 135 187 181 190 188 187 162 193 163 192 200 201 189
168 183 201 186 188 190 178 177 157 179 178 190 188 198 191 186 174 177 159 175 187 181 178 184 195 160 148 198 172 171 168 149 181 192 178 186 180 187 189 192 193 179 200 200 204 200 198 130 197 196 194 181 193 193
201 208 195 167 184 186 191 168 162 184 181 174 203 196 194 187 199 186 170 172 177 188 187 185 170 138 184 188 177 184 171 178 191 180 164 139 167 203 203 203 206 203 208 210 205 209 207 202 194 195 199 201 201 172
188 211 191 198 185 195 184 178 192 206 164 169 193 187 180 184 172 202 181 203 191 221 179 191 185 187 171 181 184 190 180 195 175 193 191 201 185 141 191 200 181 177 215 212 142 193 201 209 214 212 211 205 205 207
210 210 172 213 183 184 209 213 162 201 205 144 187 195 196 179 193 164 176 187 197 179 204 202 182 178 197 178 185 190 190 188 176 189 169 195 179 187 176 191 200 196 197 120 147 198 197 186 189 127 222 222 223 220
223 218 212 208 197 208 207 192 203 178 180 150 201 179 193 186 195 174 190 178 188 171 195 178 200 205 200 185 184 190 187 195 194 173 193 190 194 194 189 199 211 193 206 238 177 130 203 145 211 211 156 125 228 227
227 224 225 218 222 223 202 206 210 171 215 229 210 196 194 178 197 186 174 176 174 202 191 193 173 213 200 196 198 190 183 191 186 199 192 212 205 182 190 212 206 219 225 212 214 232 242 172 269 264 224 241 183 192
228 236 218 229 226 220 220 223 230 206 226 197 222 164 232 217 163 215 177 197 186 203 201 185 179 180 198 211 179 204 196 203 205 214 191 186 189 192 213 224 210 198 182 252 245 221 249 226 217 216 237 212 257 262
229 228 220 204 216 217 214 220 232 208 206 237 240 229 210 220 234 171 199 213 187 210 200 201 204 216 193 214 211 200 197 193 178 182 184 211 221 229 221 206 214 262 258 248 232 211 248 225 276 250 264 221 276 275
240 243 240 219 223 236 212 217 229 238 222 250 248 237 234 192 225 231 217 206 224 214 227 214 192 214 222 211 229 229 203 185 190 187 199 108 216 219 201 226 257 270 270 261 270 226 269 278 280 290 223 271 267 254
237 215 235 222 231 224 209 244 244 240 244 214 228 235 251 229 242 230 216 210 203 231 217 225 218 227 205 213 212 226 212 218 208 279 226 240 218 215 275 256 267 240 245 309 256 272 268 264 267 224 299 287 300 308
251 234 233 244 232 233 236 241 240 237 247 243 245 227 238 238 226 225 218 221 249 240 236 252 245 241 236 164 208 214 190 203 223 228 216 239 258 288 227 296 302 301 292 281 310 306 287 304 307 311 204 345 348 327
298 297 289 257 251 257 232 250 278 242 246 263 250 221 245 248 249 257 241 279 247 268 258 257 242 281 263 230 275 208 285 254 297 302 306 275 270 274 285 295 308 308 310 314 326 329 303 348 324 309 280 346 339 161
305 304 283 292 297 284 269 270 299 247 196 212 249 251 261 88 287 285 275 259 263 236 275 201 286 285 276 277 278 283 289 298 205 286 307 322 305 300 313 325 328 310 284 293 280 286 284 288 297 362 336 243 306 221
290 287 290 298 287 294 292 294 293 284 253 260 288 95 224 275 281 264 267 282 291 287 261 282 291 283 312 327 310 318 296 271 294 168 358 297 308 323 323 288 291 295 293 295 294 301 305 296 315 303 311 188 317 310
302 282 285 287 282 281 275 274 278 283 270 311 308 278 277 279 181 296 291 273 301 315 281 298 138 280 284 290 298 324 299 303 333 345 313 310 290 292 305 314 314 306 315 317 328 328 323 306 323 337 331 330 332 130
286 296 286 277 279 283 283 283 284 276 274 276 279 279 280 268 221 270 269 271 277 279 285 283 145 292 296 300 302 305 320 319 315 316 325 321 315 320 294 325 321 322 328 313 307 305 316 279 275 285 305 305 317 324
293 283 288 288 297 292 294 293 288 290 291 281 282 276 277 120 188 283 276 294 302 296 297 303 307 308 310 311 307 309 312 307 310 319 321 328 336 229 226 325 318 314 319 315 318 323 327 326 314 319 319 222 318 313
293 292 289 282 299 303 299 302 298 300 297 136 295 294 97 290 133 263 314 298 85 291 303 298 299 299 300 302 325 309 304 310 318 322 286 287 278 350 398 419 423 409 408 425 433 490 487 478 472 180 478 450 461 471
291 281 300 299 296 301 281 300 198 296 294 297 306 309 306 234 305 311 322 317 306 303 304 213 102 301 297 189 96 326 398 396 398 407 415 416 421 428 439 145 426 419 395 398 383 402 402 466 479 467 456 450 433 446
308 302 301 303 226 294 294 297 300 299 301 305 308 289 304 302 280 323 305 298 296 307 79 327 377 395 402 395 417 444 425 435 431 449 435 436 442 440 437 433 421 403 381 401 406 406 418 446 457 449 416 440 438 442
318 323 326 338 267 318 313 321 248 311 308 331 323 315 317 307 288 363 377 361 361 369 372 395 317 448 441 444 444 239 304 442 438 439 439 437 436 443 357 439 436 419 389 394 396 403 425 431 431 433 433 438 424 433
357 360 352 375 375 386 371 400 390 380 378 384 381 373 373 380 204 357 448 433 428 428 429 406 425 417 408 417 419 146 417 392 410 412 414 419 391 145 410 408 407 402 421 425 422 423 420 420 423 414 443 425 423 433
348 349 342 348 115 354 360 358 355 357 355 178 333 349 371 498 489 419 409 409 407 406 409 405 404 405 375 386 382 422 304 420 429 444 450 452 456 443 411 470 485 472 411 412 417 427 412 412 414 431 435 421 417 422
318 316 320 324 327 329 330 332 326 334 332 358 416 456 463 429 392 385 386 384 387 388 406 430 438 98 403 397 396 399 396 404 410 419 426 428 432 438 381 446 459 462 452 417 419 307 405 406 417 453 426 410 415 424
321 321 323 326 332 334 338 357 383 399 419 432 420 407 393 387 373 361 363 374 398 404 84 399 394 395 395 386 389 398 396 385 400 398 398 410 407 424 439 440 440 456 474 419 243 298 401 253 448 437 421 413 413 421
385 373 378 385 384 395 402 413 421 429 420 374 368 365 363 360 354 396 379 383 397 392 381 387 384 365 381 378 377 378 383 390 373 410 413 426 427 481 458 455 459 382 126 410 415 131 416 140 367 426 420 414 418 413
398 395 395 410 408 404 393 401 399 373 354 352 343 351 382 376 376 377 381 375 374 157 368 372 356 366 378 367 372 360 379 380 359 386 350 356 368 478 480 464 398 185 410 409 412 413 425 131 130 422 416 408 408 418

GFSWCAN_2pvu_pres_126.txt.gz
Presure
160 178 179 177 162 160 160 183 157 151 172 149 157 155 173 196 186 193 169 174 180 179 168 159 155 152 176 171 162 189 180 175 207 171 201 192 192 168 179 191 170 203 182 186 178 192 183 189 180 178 189 199 190 196
178 187 162 173 167 171 184 141 174 183 189 173 189 186 173 178 174 157 144 146 180 195 194 183 186 181 159 155 186 187 178 195 187 201 188 176 185 201 193 188 201 177 193 190 166 178 162 164 209 167 188 173 186 180
168 172 188 163 176 170 152 178 165 137 138 174 196 163 153 160 188 163 180 169 191 188 169 182 159 192 169 190 187 155 193 184 167 161 175 190 187 197 197 183 198 166 200 187 214 173 203 202 205 205 201 179 182 201
175 165 190 155 188 188 157 141 181 179 160 151 170 185 180 125 159 169 135 176 170 187 154 194 191 175 182 190 188 156 182 196 176 167 195 184 181 193 199 190 182 186 188 189 204 189 206 183 197 191 195 192 203 201
169 158 181 178 164 190 181 170 156 172 179 185 171 192 188 159 174 141 177 152 171 141 172 176 183 150 176 186 145 149 159 181 184 174 171 172 194 184 183 184 183 182 195 193 201 174 187 206 185 199 201 185 185 189
197 187 162 180 184 179 155 188 166 170 163 171 180 164 144 184 185 176 184 183 180 144 161 174 134 172 184 177 186 174 194 179 142 175 181 185 182 181 182 167 181 189 195 195 200 187 206 197 181 192 195 191 203 185
188 181 185 174 178 184 186 191 186 138 187 159 179 178 183 182 162 149 187 155 168 161 164 187 185 168 174 164 172 175 184 192 181 188 179 187 179 136 146 150 190 196 189 196 197 194 193 202 191 194 195 198 200 202
182 192 202 182 171 198 173 187 178 181 183 166 153 177 167 174 171 177 166 176 160 177 177 174 175 180 189 189 178 166 195 183 181 196 180 186 197 188 167 186 158 188 194 200 208 201 202 204 204 196 209 214 216 212
211 211 196 185 179 180 197 192 188 191 162 192 173 158 182 181 168 180 183 180 168 181 159 164 182 175 167 176 192 185 185 178 183 203 208 207 188 180 172 181 181 190 189 203 186 217 219 218 218 204 194 203 201 212
231 241 204 210 196 195 191 188 188 189 187 185 190 188 170 177 189 159 168 135 184 182 170 158 180 144 183 187 186 182 179 187 190 175 185 204 204 164 188 191 200 204 92 190 193 199 199 194 201 213 217 212 210 203
215 209 215 203 208 195 192 183 181 183 202 198 191 192 191 188 173 173 184 185 180 179 176 187 193 171 181 183 188 184 185 180 168 194 177 194 205 207 193 169 201 199 204 207 207 208 207 202 212 202 216 200 220 215
236 237 235 214 209 174 195 180 211 200 197 183 191 192 196 192 185 190 188 192 190 188 194 185 193 192 190 198 203 194 196 173 184 201 193 185 177 191 121 204 224 158 205 206 218 217 217 205 187 208 214 214 219 211
275 258 249 247 206 214 206 198 181 217 207 198 195 198 207 202 204 200 201 180 192 200 207 202 197 198 208 196 213 182 207 195 200 205 195 200 193 202 204 209 238 234 232 220 210 199 226 231 229 223 224 224 224 237
283 220 234 232 229 235 221 224 204 197 209 207 163 205 205 200 211 200 174 189 201 205 209 216 202 201 214 183 205 216 214 197 201 185 194 211 217 221 211 214 223 203 247 236 239 230 220 215 213 224 235 245 233 237
292 291 246 249 232 233 237 229 226 228 218 213 194 185 175 199 199 207 200 204 200 203 214 205 204 219 196 224 223 205 225 214 201 208 212 207 219 242 236 223 222 227 243 217 216 225 219 234 241 288 281 278 264 276
290 290 280 286 281 267 231 229 226 221 222 226 226 211 225 214 193 216 167 179 213 213 212 214 223 224 228 230 215 224 225 217 180 239 221 226 235 222 228 239 200 243 220 210 216 286 278 257 286 289 288 266 242 303
296 287 290 279 278 280 281 235 237 240 248 236 226 233 221 219 219 223 220 209 219 167 182 217 232 217 233 235 232 236 243 256 237 252 247 237 198 212 236 242 253 289 282 269 290 295 264 219 303 295 237 248 255 270
258 270 276 273 274 285 276 273 282 251 242 277 246 233 232 232 234 242 231 232 239 183 229 232 226 230 234 242 242 256 260 202 237 241 241 214 241 245 243 285 293 293 290 299 301 306 312 311 293 319 290 286 288 313
265 260 272 277 266 274 283 304 279 285 290 251 247 228 227 232 232 206 248 268 259 251 243 251 263 229 237 243 265 244 240 215 222 227 238 248 260 295 299 256 265 282 282 270 271 267 267 283 291 297 310 314 329 340
268 254 263 273 267 261 267 282 286 282 289 285 288 288 276 278 280 279 281 270 283 257 243 254 248 254 221 245 255 262 273 260 245 253 271 299 297 279 296 305 302 290 294 295 292 303 304 309 316 319 326 331 334 350
280 272 253 257 264 249 255 255 277 261 275 279 279 274 285 293 154 282 286 289 290 285 284 289 289 259 266 292 294 260 284 291 298 270 272 310 291 287 304 306 305 308 305 305 150 325 315 321 336 338 342 349 341 346
269 276 270 250 252 257 259 248 256 260 280 274 280 277 273 267 275 285 284 284 284 283 286 264 293 280 291 284 297 302 286 308 303 308 308 262 324 324 306 270 177 330 337 336 192 328 267 335 332 345 365 442 442 466
279 282 267 267 278 262 259 274 275 262 273 284 287 281 279 281 282 287 283 279 268 271 278 280 282 295 292 310 291 202 277 260 311 320 333 328 319 327 328 287 228 330 274 309 331 337 412 481 305 465 462 458 458 460
271 274 283 268 284 275 279 260 259 283 284 279 283 279 282 280 162 150 290 289 286 290 296 295 301 304 259 290 131 328 324 320 322 320 314 337 341 320 321 326 324 317 427 92 467 460 456 455 452 454 449 440 448 447
277 267 281 283 270 276 275 271 269 272 264 258 265 256 291 157 274 292 121 298 300 306 294 293 292 284 85 91 318 319 322 104 351 348 324 311 84 133 333 435 453 444 432 388 453 457 471 500 507 507 451 412 433 442
286 280 297 265 265 292 272 275 278 266 279 278 278 276 268 282 282 224 273 257 280 281 275 277 270 89 287 302 322 339 325 77 293 322 326 321 270 405 431 437 434 430 427 425 407 437 437 436 439 455 475 454 419 423
301 296 290 281 269 278 279 277 277 280 272 265 266 273 270 260 294 196 125 192 284 274 76 82 203 274 327 310 301 225 178 317 325 336 414 298 433 422 254 173 426 424 416 404 407 412 419 414 415 422 444 459 491 417
307 234 299 296 291 287 277 281 278 277 280 277 279 281 290 290 298 266 288 285 287 290 289 276 305 115 314 315 316 320 354 437 406 433 190 189 154 388 166 405 407 403 405 404 390 393 260 406 414 410 423 216 474 452
333 312 310 311 299 297 298 296 292 292 294 294 297 298 301 298 301 80 107 108 302 122 306 316 322 170 170 451 127 444 417 416 410 410 416 419 413 176 396 390 395 397 394 392 400 402 312 377 427 167 419 433 456 490
371 364 350 381 413 353 358 320 309 308 314 314 316 321 322 316 309 189 316 336 355 362 364 408 367 447 433 399 422 422 392 382 237 385 393 407 419 379 305 124 378 379 391 391 377 369 409 445 426 435 434 438 455 454
336 342 349 353 365 282 399 406 396 399 399 397 405 404 410 378 372 356 346 347 357 422 455 450 421 393 425 411 390 378 381 375 380 378 392 418 365 367 384 400 396 381 366 360 357 375 504 500 480 456 447 132 424 409
318 320 320 321 325 332 314 337 342 99 342 342 338 343 343 356 372 396 400 412 421 427 396 422 424 382 375 377 382 380 367 360 388 396 368 352 362 405 398 390 370 345 331 371 357 391 346 475 196 136 466 470 416 416
374 358 349 346 344 340 336 345 352 358 126 361 363 362 391 425 448 444 420 395 387 432 425 366 376 351 349 346 351 378 358 361 400 405 350 357 399 384 390 387 323 404 377 386 388 360 409 409 190 135 387 430 424 408

GFSWCAN_2pvu_pres_129.txt.gz
Presure
170 158 181 183 169 149 172 175 140 180 190 173 182 188 170 169 165 171 178 177 184 187 201 188 169 171 166 180 157 179 185 185 176 197 193 197 179 183 193 191 172 199 199 178 176 180 180 166 195 181 173 171 172 170
165 178 157 182 169 164 177 160 172 165 177 188 159 160 187 170 177 190 177 173 170 183 148 200 186 162 173 197 186 189 154 192 196 179 189 174 173 206 196 168 207 199 192 185 190 190 193 173 179 206 158 175 196 187
175 179 165 185 159 189 174 188 170 168 179 170 182 180 142 184 178 163 172 152 174 142 163 182 179 168 194 188 192 172 189 182 190 165 180 162 193 161 196 192 201 193 169 185 205 182 178 173 179 183 206 178 199 190
200 196 170 173 162 162 153 186 144 161 179 157 172 174 168 186 172 179 183 169 192 171 178 178 177 177 181 176 159 185 182 190 169 177 193 173 185 197 178 190 192 182 186 193 202 189 190 186 200 189 180 181 174 167
193 180 187 184 169 174 165 185 172 173 178 182 164 162 180 160 163 193 166 145 152 180 162 146 184 146 167 177 169 196 187 173 196 165 174 184 177 176 161 160 169 163 194 154 192 190 191 191 192 193 185 194 201 191
211 203 192 195 189 165 181 186 185 190 191 171 174 143 189 164 186 171 173 177 184 187 165 159 166 128 183 171 171 176 180 185 182 189 179 179 189 149 203 204 194 181 163 140 198 191 183 184 178 189 153 191 193 150
224 210 212 185 194 190 178 175 184 177 184 189 187 189 186 173 174 162 174 175 172 159 183 185 186 191 176 156 157 177 162 170 178 183 188 174 167 167 184 174 180 186 202 210 209 176 185 179 200 196 199 185 176 209
223 223 205 206 199 203 186 177 182 176 174 188 170 170 184 173 171 169 177 171 181 183 189 185 180 177 171 163 181 180 177 182 184 178 181 179 190 191 176 179 188 179 185 184 200 202 202 205 206 211 210 198 205 200
222 240 227 207 220 201 198 192 184 186 170 186 182 178 176 179 172 170 179 167 182 167 177 170 177 174 182 187 184 176 168 186 182 161 181 182 183 178 180 179 188 168 187 190 197 192 188 181 199 201 203 206 196 220
250 251 239 223 210 220 207 205 192 186 186 175 173 170 179 178 182 183 149 192 172 188 165 166 184 185 169 178 176 187 186 161 180 173 177 194 180 179 185 201 207 188 186 184 157 187 193 200 198 208 194 209 212 217
258 248 241 210 204 215 223 181 195 188 199 185 183 184 183 177 186 177 185 184 190 193 188 184 180 178 172 190 189 187 186 184 178 186 186 187 184 188 162 79 82 146 204 202 197 183 201 202 208 206 204 214 219 236
252 237 242 236 243 247 241 203 191 199 186 195 191 181 166 189 193 203 200 196 186 192 189 189 188 196 189 193 187 188 178 187 191 191 187 191 197 199 200 207 207 199 207 209 204 201 199 211 198 197 193 231 241 215
231 242 242 242 235 245 228 216 216 206 203 193 188 201 203 191 198 189 191 194 194 192 184 199 201 195 196 191 191 188 195 189 188 194 191 181 204 207 213 200 206 222 224 198 223 224 227 213 225 210 243 192 225 230
303 232 242 229 268 247 246 235 224 221 217 215 219 196 198 195 198 189 190 188 194 190 190 188 181 195 194 183 200 207 203 204 203 198 202 215 213 212 196 211 187 228 215 232 246 232 249 242 261 243 216 237 227 238
305 237 277 246 236 272 229 220 245 230 234 229 220 213 198 210 204 199 196 197 199 196 186 197 189 205 201 194 200 204 209 212 214 218 217 215 209 215 215 218 222 221 223 224 235 235 240 258 213 215 232 235 256 249
309 295 243 298 281 225 232 241 236 220 233 234 221 239 235 231 232 209 209 209 206 202 203 205 207 209 201 207 202 205 208 209 206 219 189 216 213 220 222 226 228 226 226 244 238 262 247 200 215 242 216 225 281 300
299 305 299 285 287 294 267 286 248 241 233 239 243 226 241 212 223 225 220 212 215 215 213 199 159 210 213 203 197 199 198 220 218 219 221 222 221 244 230 225 241 248 221 227 237 237 250 261 274 215 281 268 267 289
312 299 276 284 284 274 276 286 290 282 291 301 271 290 303 300 290 235 256 219 218 220 221 218 223 207 208 206 216 224 227 229 233 209 228 239 247 241 250 280 268 278 275 281 280 282 284 285 291 285 306 312 310 311
305 299 292 294 269 273 278 273 278 276 280 283 281 282 281 224 228 237 242 249 243 244 227 233 236 230 234 228 232 240 244 243 243 242 237 234 236 247 275 282 259 280 237 272 270 284 288 283 314 310 306 297 342 330
301 293 278 274 273 280 272 278 274 270 269 271 274 274 274 277 276 267 249 277 275 270 271 278 248 243 281 289 260 281 246 239 233 238 273 290 288 289 279 278 282 284 274 269 287 287 289 277 311 311 329 247 325 342
327 293 281 270 267 268 262 278 273 268 268 263 269 275 276 281 273 281 284 288 280 275 291 290 293 283 284 282 282 286 293 293 289 291 285 284 289 291 281 277 281 286 286 288 308 315 341 336 330 329 196 339 325 338
313 299 286 277 271 270 274 266 274 266 273 267 272 269 271 277 279 277 278 289 299 290 291 292 285 292 284 283 290 283 280 292 296 289 290 289 278 280 156 256 297 304 304 310 256 290 235 346 194 327 241 444 494 481
313 330 287 278 275 273 267 276 261 266 270 273 257 259 269 280 280 281 272 266 266 280 282 280 279 287 292 292 292 294 199 257 296 299 265 305 289 292 297 306 130 318 304 321 311 337 329 242 221 479 472 464 454 457
308 302 319 277 275 266 270 264 265 261 259 263 263 263 264 264 266 244 271 265 262 268 273 269 278 282 291 294 294 133 295 147 160 294 298 283 288 311 301 317 271 305 296 337 339 347 467 475 465 458 444 435 436 437
325 292 290 294 280 268 275 274 270 267 267 270 270 266 262 247 261 269 267 255 268 274 289 285 289 291 281 87 89 267 292 286 291 288 294 158 296 309 307 302 324 328 334 319 471 464 449 436 393 434 419 413 416 417
311 315 309 289 279 289 276 278 284 274 271 271 277 277 146 275 278 168 263 259 259 261 267 273 272 207 221 221 282 268 273 217 184 290 168 288 160 319 329 335 342 336 181 351 153 432 421 418 410 413 407 393 313 408
304 298 300 292 282 287 293 293 284 278 275 275 272 178 283 283 279 267 264 239 103 289 287 286 238 278 79 178 172 240 288 294 302 308 309 265 327 332 371 426 440 433 435 309 124 412 407 406 408 398 393 377 394 405
311 311 300 296 293 287 276 293 294 282 109 260 278 271 288 294 297 289 252 115 232 157 276 276 155 78 288 218 291 295 283 301 312 323 326 333 363 366 419 425 417 418 430 424 406 395 402 396 388 391 395 382 378 400
307 305 302 298 300 295 285 284 287 290 286 294 283 288 279 288 293 262 107 275 269 285 280 101 113 281 299 283 101 304 283 328 362 366 354 392 420 389 400 397 398 398 161 405 394 386 394 412 423 364 352 334 392 460
337 320 302 299 298 297 297 297 293 294 297 303 299 296 296 292 289 272 290 290 231 290 296 299 305 257 310 318 330 360 373 297 392 427 418 410 401 398 398 390 400 393 394 379 288 401 421 374 351 367 388 403 495 475
356 381 378 335 325 317 302 300 302 302 302 302 302 302 301 298 300 300 299 300 300 305 311 325 366 368 374 373 376 360 435 421 402 393 392 395 395 397 367 361 415 394 371 373 422 395 335 353 382 185 388 481 466 470
320 328 338 349 353 363 362 378 383 396 330 327 346 353 340 360 362 300 319 373 371 370 377 362 453 355 356 441 344 392 391 393 391 392 358 350 392 413 416 435 417 421 426 396 393 362 122 346 380 397 479 466 459 325
369 370 362 354 335 330 327 332 342 295 352 358 353 347 349 352 353 350 127 351 350 372 473 459 445 455 407 391 377 377 380 377 358 373 421 436 452 468 476 455 421 399 406 402 409 406 389 381 360 408 147 186 469 393

GFSWCAN_2pvu_pres_132.txt.gz
Presure
196 185 178 181 185 157 188 173 149 167 181 172 174 177 179 179 174 157 165 171 174 180 176 189 182 192 179 194 165 198 174 162 186 194 208 184 206 198 202 182 199 197 172 179 187 184 180 190 177 183 173 179 183 182
220 196 212 166 176 179 153 173 176 178 175 175 164 149 162 182 173 183 187 168 176 180 179 162 174 172 187 174 163 165 194 203 198 204 176 181 175 171 173 191 184 205 184 203 205 193 186 182 177 198 181 195 215 196
223 194 198 183 193 163 181 176 151 172 183 181 163 184 178 165 186 172 169 155 170 193 169 170 171 175 183 180 189 189 192 181 179 152 164 194 195 199 183 187 205 203 162 167 175 207 183 204 184 180 178 179 175 190
192 227 222 201 179 182 172 162 184 159 181 191 182 161 176 174 175 156 166 135 186 190 187 169 171 163 177 175 181 177 183 183 186 172 184 170 190 193 176 186 183 168 186 215 204 186 203 196 205 188 187 162 194 172
223 202 217 240 196 182 182 158 171 169 139 162 175 187 168 174 181 174 175 180 173 190 175 170 175 151 140 157 187 185 176 173 174 185 188 192 189 185 191 194 196 192 181 161 170 167 162 170 195 158 202 178 201 166
217 224 211 233 237 184 187 180 157 184 171 155 180 176 182 189 166 143 183 178 176 165 170 188 157 166 188 182 147 135 171 192 190 175 180 176 181 179 182 185 168 150 158 161 184 170 189 187 189 187 187 189 183 170
229 232 194 241 221 227 195 192 179 180 185 169 182 151 187 179 184 177 174 185 176 165 175 158 166 179 184 173 181 185 185 191 160 178 190 185 173 177 183 177 183 189 199 197 191 188 185 179 195 200 193 183 193 189
231 225 222 240 203 226 231 172 196 179 173 181 163 165 181 187 171 175 182 185 172 183 175 168 168 160 173 177 171 176 168 183 180 180 169 185 180 182 187 188 174 188 189 190 189 197 194 197 198 199 198 202 207 211
235 231 230 206 214 211 234 221 201 187 186 188 190 180 159 169 180 185 192 187 193 192 192 191 156 169 182 195 169 196 170 168 181 190 186 182 169 182 181 186 188 172 194 188 188 198 175 202 209 209 208 204 201 212
246 234 219 233 196 218 234 229 218 178 192 194 193 184 195 186 177 172 185 186 178 154 185 167 170 181 186 168 186 196 195 183 193 186 178 177 178 188 190 187 83 84 132 190 188 195 186 185 91 197 206 214 192 201
260 236 232 229 220 234 233 238 222 221 196 183 188 191 190 185 187 189 194 171 191 170 180 174 185 181 135 185 190 189 184 190 190 186 188 189 185 186 190 136 194 191 193 196 184 193 193 201 201 208 209 207 215 216
247 244 258 262 215 222 223 232 222 225 227 201 210 202 190 183 196 200 203 192 187 187 178 179 179 178 176 181 184 188 186 190 191 190 194 188 183 180 188 190 188 192 162 196 206 205 203 196 209 216 208 206 214 217
258 255 263 247 233 264 248 243 226 248 230 241 190 209 208 191 190 204 197 163 188 176 177 199 188 189 187 187 189 194 190 200 202 200 196 192 193 197 195 207 193 192 201 201 206 215 215 213 217 219 214 213 213 232
250 241 246 230 227 231 236 231 237 237 220 223 225 230 222 215 202 144 197 197 193 188 195 190 195 197 190 189 191 198 200 197 195 198 196 194 201 200 201 200 201 202 212 212 203 212 215 218 221 223 219 221 236 243
239 250 245 233 238 230 227 249 235 297 307 240 252 242 234 228 216 199 209 208 190 204 198 195 190 197 192 177 197 199 201 202 201 200 202 211 200 202 210 205 200 203 209 220 216 209 217 222 230 227 227 230 239 243
252 246 238 246 253 237 227 238 247 236 247 262 293 289 226 237 234 225 217 209 222 220 192 201 203 199 199 201 203 206 193 206 207 208 208 203 208 203 210 207 217 215 213 213 224 223 217 222 225 248 238 233 263 276
331 264 326 238 256 253 268 283 232 285 233 288 289 270 249 230 242 240 228 239 240 240 235 204 202 204 207 217 212 208 207 207 206 208 211 219 211 218 221 221 222 225 223 225 228 233 227 239 224 235 242 276 279 273
415 340 321 322 242 245 237 279 284 271 284 287 224 288 291 225 239 243 243 241 248 232 238 237 224 221 219 218 222 227 217 221 223 225 240 248 228 222 231 226 222 226 228 231 236 241 255 234 248 281 283 282 282 280
400 422 335 324 314 313 299 290 284 286 286 265 259 230 219 224 298 275 229 224 235 291 287 229 241 242 240 244 248 240 234 233 247 225 226 233 267 263 258 245 247 257 261 262 223 240 288 292 285 284 292 287 281 281
384 395 416 338 309 298 303 292 284 280 275 274 274 280 283 279 278 268 240 238 247 282 259 236 250 251 243 241 245 251 250 285 296 309 249 253 250 242 244 278 295 272 282 278 277 285 288 284 296 304 290 307 303 299
394 370 436 410 312 293 292 301 290 284 283 279 277 272 268 275 276 277 281 282 283 286 287 291 288 289 287 290 241 242 294 290 288 295 293 292 288 290 291 298 298 284 285 290 119 298 293 307 311 180 285 293 145 297
346 348 364 343 355 298 291 284 282 265 273 279 276 268 267 272 272 268 271 273 272 274 278 281 283 283 282 282 284 287 291 293 292 289 290 296 308 163 308 300 295 299 312 306 295 165 311 285 291 297 290 294 313 388
328 320 326 332 321 304 340 283 283 281 269 273 278 266 268 271 265 266 269 271 268 272 277 278 280 278 276 280 283 284 289 294 292 291 286 282 285 278 229 282 280 220 292 241 294 284 286 293 300 302 323 416 468 458
316 307 303 309 299 278 290 299 277 275 274 278 275 272 277 278 280 279 277 271 269 272 272 276 277 279 277 280 285 287 289 292 285 253 233 279 240 277 190 285 280 274 273 294 298 297 305 313 338 364 416 388 169 430
309 299 300 304 300 290 300 312 279 287 293 297 278 283 284 285 95 278 272 271 273 278 281 281 278 277 279 263 267 271 265 95 278 105 253 119 137 291 299 309 286 247 288 305 318 321 340 442 463 455 436 432 422 420
305 303 300 298 299 293 292 310 307 319 294 288 280 278 280 262 250 166 267 266 272 280 233 273 271 270 274 275 227 150 113 248 286 281 276 232 146 285 171 291 305 300 297 314 154 390 436 394 441 387 261 407 424 419
308 299 295 296 293 293 293 296 288 284 287 292 309 171 79 238 279 255 251 266 270 273 279 280 276 279 280 217 89 274 166 247 298 295 288 298 306 291 303 309 320 326 329 397 134 438 256 254 244 202 420 418 385 389
308 305 301 298 300 298 298 320 314 302 295 288 282 278 280 225 274 276 276 275 275 276 282 285 282 279 288 114 129 124 150 217 286 307 293 189 190 311 322 330 344 400 451 420 434 421 435 412 407 420 416 390 408 381
322 315 305 298 300 302 299 298 296 300 299 253 310 317 281 279 279 256 282 282 283 279 143 131 296 276 277 264 283 283 289 291 301 307 281 318 324 329 389 443 434 397 423 423 422 415 387 390 375 377 408 435 377 368
316 321 323 322 314 303 304 308 306 307 305 306 307 309 309 307 303 302 229 299 294 178 177 287 148 219 284 305 311 309 273 317 268 325 329 355 423 395 365 415 421 419 386 372 395 417 436 412 389 429 407 324 321 391
333 316 321 323 318 315 317 316 317 319 317 314 306 311 311 309 83 292 301 303 149 94 89 262 251 301 302 310 315 321 320 322 370 388 383 378 103 202 373 201 95 238 401 454 459 467 478 447 410 327 348 408 387 389
370 356 342 333 325 321 321 317 316 320 317 316 312 312 309 312 312 308 308 312 316 320 317 318 317 316 317 325 341 395 389 370 365 419 421 424 423 391 390 434 404 398 396 395 397 404 405 396 402 398 411 388 365 406
308 313 355 359 357 345 338 336 333 328 326 322 321 320 320 321 297 319 312 318 323 324 330 343 374 379 378 373 363 349 362 417 415 405 385 366 349 355 377 376 374 376 378 383 391 392 400 430 431 417 396 393 403 422

GFSWCAN_2pvu_pres_135.txt.gz
Presure
142 186 151 212 201 174 183 180 171 180 173 166 180 186 160 166 145 141 163 179 172 167 165 178 182 181 176 179 204 188 151 154 192 193 208 176 192 196 200 210 191 192 191 194 196 196 196 187 187 184 193 206 176 178
240 216 224 206 210 181 176 184 172 171 181 171 171 182 177 163 157 172 186 188 161 186 177 170 180 179 154 178 179 185 195 207 207 156 192 206 208 198 211 175 179 211 203 219 186 192 191 183 205 185 179 185 211 182
229 228 215 218 207 203 178 153 149 188 169 186 179 180 177 163 177 176 151 174 188 178 157 168 171 166 169 181 184 181 170 188 193 198 201 197 174 185 183 180 203 208 209 208 211 207 184 182 209 188 211 211 176 205
226 187 230 207 223 215 198 163 186 173 190 175 180 179 171 175 182 177 153 182 179 177 191 180 186 177 189 160 173 184 176 181 179 178 167 195 193 196 186 184 179 162 169 169 203 195 196 194 198 182 186 182 190 185
205 219 207 203 199 218 213 205 178 189 172 186 175 176 141 175 163 180 184 170 179 152 143 168 185 191 191 183 188 181 141 147 178 189 184 177 181 185 161 196 195 196 194 193 179 162 192 180 196 173 190 167 168 169
198 228 195 213 197 203 222 205 197 187 180 184 182 183 164 174 163 183 177 184 182 175 169 161 174 180 164 161 180 132 164 188 180 157 139 173 200 180 169 197 202 191 185 188 182 187 195 188 198 190 187 187 189 196
216 200 221 198 205 218 150 221 208 221 183 173 180 170 175 182 166 194 167 173 182 154 167 170 174 177 178 180 176 167 185 175 185 179 176 182 160 174 183 178 167 185 182 189 190 199 194 196 192 193 191 184 186 189
211 172 230 209 209 193 217 223 210 217 214 172 179 184 167 161 183 181 183 191 174 178 164 173 180 178 176 180 175 169 182 168 177 176 173 176 195 189 194 180 175 200 193 193 193 182 194 174 194 192 191 193 190 199
220 229 226 219 190 207 210 240 202 227 203 236 202 188 191 184 171 170 185 178 183 174 192 161 167 175 182 182 193 191 196 162 199 197 184 181 167 196 189 181 195 196 189 189 196 195 192 191 190 192 195 187 202 201
229 232 224 247 246 198 223 191 211 218 183 213 228 242 191 179 181 187 171 176 170 187 180 178 168 178 193 191 196 194 195 192 187 180 191 192 186 190 184 189 184 158 80 194 196 193 190 196 199 188 190 197 194 198
261 267 263 217 250 225 226 205 212 213 237 184 211 246 217 187 183 180 159 186 185 191 175 179 179 176 185 178 180 193 192 187 167 180 182 185 181 183 185 114 191 196 151 188 193 204 194 188 197 200 197 200 201 205
248 250 258 206 260 255 207 238 213 232 235 237 202 212 234 225 199 197 193 195 190 181 185 186 188 192 193 191 190 194 189 191 195 193 191 186 181 179 182 189 184 188 188 191 195 193 190 191 203 200 204 204 203 205
258 259 253 253 243 230 245 216 203 240 237 203 231 219 246 221 188 222 206 197 193 186 184 187 193 196 192 189 192 196 193 195 188 187 184 182 187 188 183 186 189 189 196 198 200 198 200 201 206 211 209 202 216 219
263 247 272 261 249 254 231 251 250 242 240 244 217 243 220 248 228 98 236 233 198 201 191 194 191 191 190 190 199 198 203 203 205 199 192 196 198 196 197 197 197 198 189 192 204 199 212 210 208 210 207 219 220 213
249 257 251 258 247 248 240 245 237 240 242 244 238 249 240 227 223 231 188 229 233 204 207 198 194 197 203 203 199 197 199 201 202 202 204 198 199 194 198 205 203 208 203 198 210 210 207 206 205 217 223 221 231 234
295 241 249 256 250 243 248 240 242 251 249 248 244 258 261 226 236 221 237 248 234 228 229 229 225 201 186 219 209 200 204 208 206 206 203 210 205 210 208 208 211 211 210 208 213 210 216 219 221 213 234 246 234 250
328 323 255 243 254 255 245 243 239 251 246 242 250 260 243 253 250 222 240 214 224 250 228 225 232 238 202 247 223 217 213 215 211 216 213 213 230 220 229 227 222 223 222 221 222 222 225 226 246 229 240 264 263 291
333 324 315 258 248 254 258 245 246 240 298 251 176 122 302 258 301 289 226 241 284 286 241 246 221 233 237 237 234 237 235 229 231 235 230 225 224 231 244 253 253 246 240 238 227 252 245 243 251 286 238 295 296 293
382 323 325 322 300 272 263 255 262 262 247 252 302 235 235 264 233 219 225 235 231 258 274 236 270 295 291 259 271 245 250 249 233 251 246 243 233 239 255 252 249 234 233 241 285 267 254 253 287 292 297 307 308 306
375 387 386 319 323 330 302 244 251 262 279 287 251 237 227 243 250 271 293 257 226 235 282 272 239 224 230 277 274 260 255 265 249 236 250 256 258 280 279 244 241 261 295 271 279 291 289 288 288 285 281 271 263 218
353 356 366 371 394 332 328 331 324 316 323 253 242 247 257 249 252 253 245 263 283 282 281 234 283 289 249 291 228 283 286 290 272 302 295 236 238 246 251 229 294 279 289 288 296 288 292 287 282 305 264 265 270 275
338 342 351 362 370 379 388 350 325 319 318 315 318 313 259 256 247 230 234 251 269 272 273 278 279 279 281 282 284 286 265 288 289 295 283 292 286 285 285 288 247 288 283 282 136 284 283 137 268 263 158 286 291 291
328 331 339 343 368 356 382 388 385 382 313 309 307 306 304 297 283 282 275 253 240 236 267 271 272 274 275 277 280 284 286 287 288 287 285 282 280 278 280 283 285 285 194 205 274 82 219 267 276 283 283 297 296 329
322 324 338 360 346 353 353 471 371 361 336 317 308 294 290 292 291 288 277 275 272 271 268 270 272 273 279 280 280 281 283 282 283 283 283 279 283 287 255 292 147 157 283 280 283 287 318 294 299 298 294 327 398 314
318 317 317 329 330 337 334 343 363 349 365 367 300 294 282 280 279 277 272 275 280 286 278 273 278 282 280 283 282 286 289 288 287 285 288 290 292 257 210 104 267 280 217 281 296 293 294 288 293 332 153 449 140 450
320 309 303 308 320 309 310 327 323 331 332 332 326 294 282 322 288 268 271 280 284 291 281 273 276 285 287 287 285 287 288 290 233 272 283 275 286 283 212 285 295 279 207 293 295 304 341 335 336 422 425 463 226 420
313 307 306 295 305 318 312 312 319 309 304 308 307 309 287 282 272 276 297 282 284 284 285 283 281 281 284 286 287 291 292 288 286 278 243 183 279 286 282 296 318 313 315 312 327 330 314 410 461 461 438 406 407 417
309 306 300 297 301 302 288 293 310 299 304 292 306 308 294 277 113 257 283 286 289 288 288 288 292 290 289 289 292 290 124 282 253 101 163 188 292 299 302 303 309 314 305 293 345 400 465 459 425 414 397 432 458 465
308 295 302 295 299 300 293 295 297 303 297 297 300 293 285 290 286 290 293 295 305 308 303 305 302 146 281 277 283 94 111 222 108 291 300 327 288 293 308 319 333 331 349 399 454 455 435 413 130 436 463 435 487 439
297 299 309 310 304 305 303 303 296 295 298 302 304 304 303 303 307 306 291 306 310 316 317 319 308 308 297 294 298 305 284 322 127 190 215 311 319 328 331 309 369 388 385 447 286 421 409 418 394 391 391 400 410 411
304 315 324 323 311 309 307 307 307 306 304 297 298 301 302 298 300 302 300 297 299 303 307 308 123 309 116 313 318 322 300 322 322 322 330 336 332 346 229 384 421 437 417 118 95 384 382 380 383 393 396 400 405 418
302 303 323 347 339 323 320 297 311 313 309 315 307 308 306 304 303 307 308 184 317 317 324 315 315 318 323 116 120 330 325 333 339 338 343 364 393 351 448 430 410 379 382 378 377 380 383 395 397 401 410 425 418 396
326 313 314 336 337 342 341 328 307 314 315 297 310 318 317 319 315 316 314 317 315 315 123 80 333 336 338 336 338 343 318 357 372 392 367 371 435 418 398 377 370 364 360 363 372 379 388 401 401 412 407 399 377 405

GFSWCAN_2pvu_pres_138.txt.gz
Presure
229 181 207 171 214 223 191 207 175 189 169 176 165 166 167 173 181 190 171 155 167 172 182 174 170 176 185 176 185 195 186 200 199 196 204 205 209 202 213 206 198 205 208 215 206 203 200 210 209 206 199 204 192 191
144 164 200 168 192 210 179 213 194 176 181 176 178 185 151 176 179 174 185 180 168 173 187 155 189 180 186 177 177 172 187 214 211 199 217 191 179 190 206 197 207 206 196 199 211 199 186 191 214 185 187 183 183 178
203 212 217 226 209 215 222 213 205 191 192 178 163 176 189 171 178 176 173 187 138 159 183 170 174 186 179 172 164 176 181 174 172 174 209 145 192 202 185 195 179 177 172 191 214 195 205 193 197 206 202 200 186 181
215 127 149 161 189 172 148 196 210 186 185 153 167 180 169 176 162 178 183 181 182 153 152 178 169 189 176 182 179 183 178 177 188 184 179 174 177 198 160 171 154 198 178 204 212 182 188 177 185 176 185 193 189 168
177 192 176 195 213 173 135 204 230 202 199 173 195 163 165 191 179 183 174 176 177 175 152 171 189 192 195 162 167 198 189 194 181 147 192 182 151 186 195 189 186 184 189 191 199 190 190 188 190 196 187 185 197 199
140 226 176 224 188 211 221 162 232 216 198 168 138 184 173 182 168 177 190 189 183 154 186 184 163 190 175 190 182 185 191 161 168 183 169 171 181 193 161 194 194 195 169 166 184 182 179 173 179 196 196 201 198 175
227 212 216 124 228 200 192 176 193 200 226 214 185 152 188 169 174 189 176 182 168 191 183 169 178 185 178 182 181 178 186 185 174 176 159 171 191 196 192 173 157 156 183 192 197 184 177 195 202 178 194 194 197 187
238 234 220 231 196 183 194 198 241 209 165 204 205 178 188 190 173 182 175 186 176 184 187 176 172 183 175 177 153 172 171 164 179 175 163 180 167 164 176 166 185 187 189 192 203 195 182 193 197 187 186 190 188 196
234 224 212 231 213 151 226 215 211 209 230 210 224 214 204 188 187 191 186 182 178 191 156 184 181 185 187 182 194 185 188 186 185 169 184 187 188 190 201 186 178 191 192 188 193 112 195 192 190 188 187 190 190 198
234 240 185 227 230 225 203 148 194 219 188 187 175 223 229 218 196 183 189 183 189 192 173 175 178 176 191 188 182 192 195 178 186 191 180 185 185 189 195 196 194 181 202 193 81 189 192 180 189 190 193 194 201 190
255 241 231 239 224 206 230 172 209 223 208 204 211 170 183 210 221 223 197 185 185 184 181 176 183 189 191 181 174 190 186 172 183 191 191 181 176 187 196 198 195 162 157 180 192 186 187 190 199 198 193 192 189 196
240 260 249 218 240 234 230 225 224 214 191 213 211 226 218 208 231 226 237 189 197 189 180 182 193 191 186 190 189 193 194 184 196 198 197 186 179 191 195 197 195 193 191 192 193 193 198 191 195 191 196 188 201 204
234 275 246 272 251 232 235 202 195 183 224 208 237 208 204 203 215 225 246 234 197 212 192 195 194 188 193 192 188 181 190 195 191 189 192 188 192 192 190 189 191 193 197 197 197 199 197 199 200 201 207 202 201 203
273 250 239 258 266 274 247 251 223 208 263 244 206 199 208 229 199 211 231 211 227 211 207 220 191 200 185 198 195 193 181 195 194 193 194 199 198 199 197 198 199 198 199 198 202 203 202 204 205 213 210 210 212 226
341 311 246 243 252 262 259 257 257 250 261 200 254 250 225 207 238 223 166 208 215 213 211 224 233 231 217 202 208 204 199 201 197 199 198 206 204 207 200 198 197 193 203 204 205 210 210 212 213 215 215 221 224 224
326 328 305 256 243 255 255 252 266 256 272 271 243 240 280 216 235 195 154 211 214 213 230 219 207 224 240 236 229 231 221 206 205 214 216 211 209 209 211 212 216 205 205 214 216 217 216 218 218 227 225 228 230 232
322 326 327 321 268 253 238 259 251 269 267 260 262 256 219 258 81 248 252 220 232 209 211 240 236 225 216 237 242 225 220 224 240 241 241 144 238 234 222 227 232 240 235 234 241 241 228 233 239 252 238 236 255 251
309 318 320 325 335 337 262 242 265 257 232 258 248 256 129 259 257 254 220 254 229 205 240 248 258 226 226 226 229 240 248 234 229 237 258 257 252 253 247 244 229 232 235 235 232 236 245 251 259 262 268 234 245 280
357 324 315 323 320 328 335 298 242 253 259 256 203 246 244 257 254 248 248 253 258 248 247 249 255 249 248 246 250 259 240 253 231 252 246 255 273 283 263 267 266 255 271 290 285 269 278 267 251 269 257 247 283 286
356 366 351 306 318 326 317 329 339 328 252 236 249 247 251 255 249 249 246 245 244 259 261 253 245 241 243 246 240 244 248 253 295 243 238 265 295 271 272 243 241 230 254 243 234 282 248 227 244 282 186 286 285 286
343 363 357 349 360 315 323 328 333 325 336 333 271 245 247 240 243 245 242 234 234 240 250 246 234 233 238 291 288 283 285 286 234 231 233 233 234 267 227 296 293 295 295 236 244 287 285 289 289 285 156 275 291 283
346 347 347 357 360 373 358 340 326 326 326 327 324 330 316 250 248 249 250 248 242 237 225 234 245 250 231 233 279 276 256 280 281 297 296 291 290 289 292 287 287 287 289 287 286 280 276 282 145 194 249 285 285 286
338 338 340 339 344 357 364 365 384 391 350 328 333 333 327 312 242 249 256 246 243 248 247 236 234 237 243 256 242 236 247 254 257 258 261 263 290 263 273 287 286 282 277 279 280 283 292 183 289 238 288 282 282 288
325 328 335 336 337 342 347 357 363 369 386 394 396 343 332 336 332 323 305 255 253 251 251 249 260 264 255 253 258 260 250 249 245 239 240 250 256 267 272 272 278 286 292 295 290 250 278 287 278 283 287 289 303 310
318 322 323 329 333 335 338 347 347 426 359 369 378 382 394 370 323 324 321 316 307 310 255 250 258 261 250 246 250 283 253 277 281 283 282 283 283 267 284 283 100 299 286 295 298 290 278 291 298 297 315 302 324 346
309 316 316 323 324 320 328 348 353 355 363 369 359 378 393 390 383 344 322 316 307 299 299 299 296 297 295 295 296 294 288 285 284 285 285 288 285 292 295 293 284 289 293 183 287 252 294 298 328 324 325 343 334 426
308 308 309 311 312 308 326 320 318 338 359 359 358 337 419 370 370 342 329 310 304 303 299 296 295 296 296 297 298 297 293 290 288 290 292 297 293 288 290 88 223 306 282 320 303 181 314 339 332 340 338 396 456 447
303 306 311 305 318 330 325 319 318 328 333 329 337 338 334 327 326 352 349 341 316 304 299 296 296 297 298 297 292 295 289 297 304 294 283 301 129 92 123 315 303 286 318 316 323 329 330 336 347 382 459 463 424 399
308 305 322 305 327 320 319 322 311 300 288 314 315 311 308 334 338 331 333 314 310 301 299 300 304 297 293 290 289 287 283 287 142 119 285 177 310 296 308 313 327 320 326 330 328 342 346 366 410 450 418 397 395 392
302 305 309 307 307 311 308 314 310 317 308 299 305 308 305 308 308 306 312 311 315 319 311 311 305 300 289 289 284 210 296 294 307 318 95 269 100 321 319 320 324 257 332 317 344 374 97 440 421 395 387 386 387 399
309 309 307 311 312 313 311 312 319 310 305 320 319 308 303 307 309 309 306 310 316 312 307 302 302 311 309 308 313 311 309 317 256 322 313 311 315 317 321 267 328 347 349 386 199 430 418 398 385 375 373 378 391 406
311 309 298 328 317 320 314 296 301 300 301 306 313 309 303 303 307 311 316 172 303 306 305 309 311 316 318 322 315 310 308 316 313 136 315 323 324 330 354 354 396 372 425 421 406 392 380 376 369 365 373 384 405 425
313 313 313 310 305 317 301 302 299 306 308 305 296 308 310 309 307 315 316 315 311 312 314 228 265 315 317 222 316 315 316 321 325 325 334 354 374 395 372 369 423 410 398 382 378 373 369 369 376 379 398 408 427 411